[[{"header":{"parameterUnit":"m.s-1","parameterCategory":1,"la1":30.6,"la2":29.2853,"lo1":-89.7004,"lo2":-87.6739,"dy":0.0162,"dx":0.0183,"nx":112,"ny":82,"refTime":"2025-05-30T12:00:00:Z","depth":0,"parameterNumber":2,"parameterNumberName":"U-component_of_WINDS"},"data":[0.0,0.0,0.0,0.0,0.0,0.0,0.0,0.0,0.0,0.0,0.0,0.0,0.0,0.0,0.0,0.0,0.0,0.0,0.0,0.0,0.0,0.0,0.0,0.0,0.0,0.0,0.0,0.0,0.0,0.0,0.0,0.0,0.0,0.0,0.0,0.0,0.0,0.0,0.0,0.0,0.0,0.0,0.0,0.0,0.0,0.0,0.0,0.0,0.0,0.0,0.0,0.0,0.0,0.0,0.0,0.0,0.0,0.0,0.0,0.0,0.0,0.0,0.0,0.0,0.0,0.0,0.0,0.0,0.0,0.0,0.0,0.0,0.0,0.0,0.0,0.0,0.0,0.0,0.0,0.0,0.0,0.0,0.0,0.0,0.0,0.0,0.0,0.0,0.0,0.0,0.0,-1.1216,-1.2287,-1.2865,-1.287,-1.2101,-1.1233,-1.0365,0.0,0.0,0.0,0.0,0.0,0.0,0.0,0.0,0.0,0.0,0.0,0.0,0.0,0.0,0.0,0.0,0.0,0.0,0.0,0.0,0.0,0.0,0.0,0.0,0.0,0.0,0.0,0.0,0.0,0.0,0.0,0.0,0.0,0.0,0.0,0.0,0.0,0.0,0.0,0.0,0.0,0.0,0.0,0.0,0.0,0.0,0.0,0.0,0.0,0.0,0.0,0.0,0.0,0.0,0.0,0.0,0.0,0.0,0.0,0.0,0.0,0.0,0.0,0.0,0.0,0.0,0.0,0.0,0.0,0.0,0.0,0.0,0.0,0.0,0.0,0.0,0.0,0.0,0.0,0.0,0.0,0.0,0.0,0.0,0.0,0.0,0.0,0.0,0.0,0.0,0.0,0.0,0.0,0.0,0.0,0.0,0.0,0.0,0.0,0.0,0.0,0.0,0.0,0.0,-0.9645,-1.2206,-1.3163,-1.3661,-1.3704,-1.2967,-1.2122,-1.1254,0.0,0.0,0.0,0.0,0.0,0.0,0.0,0.0,0.0,0.0,0.0,0.0,0.0,0.0,0.0,0.0,0.0,0.0,0.0,0.0,0.0,0.0,0.0,0.0,0.0,0.0,0.0,0.0,0.0,0.0,0.0,0.0,0.0,0.0,0.0,0.0,0.0,0.0,0.0,0.0,0.0,0.0,0.0,0.0,0.0,0.0,0.0,0.0,0.0,0.0,0.0,0.0,0.0,0.0,0.0,0.0,0.0,0.0,0.0,0.0,0.0,0.0,0.0,0.0,0.0,0.0,0.0,0.0,0.0,0.0,0.0,0.0,0.0,0.0,0.0,0.0,0.0,0.0,0.0,0.0,0.0,0.0,0.0,0.0,0.0,0.0,0.0,0.0,0.0,0.0,0.0,0.0,0.0,0.0,0.0,0.0,0.0,0.0,0.0,0.0,0.0,0.0,0.0,-1.0144,-1.1372,-1.3105,-1.4059,-1.4375,-1.3934,-1.3159,-1.232,-1.1468,-0.9009,0.0,0.0,0.0,0.0,0.0,0.0,0.0,0.0,0.0,0.0,0.0,0.0,0.0,0.0,0.0,0.0,0.0,0.0,0.0,0.0,0.0,0.0,0.0,0.0,0.0,0.0,0.0,0.0,0.0,0.0,0.0,0.0,0.0,0.0,0.0,0.0,0.0,0.0,0.0,0.0,0.0,0.0,0.0,0.0,0.0,0.0,0.0,0.0,0.0,0.0,0.0,0.0,0.0,0.0,0.0,0.0,0.0,0.0,0.0,0.0,0.0,0.0,0.0,0.0,0.0,0.0,0.0,0.0,0.0,0.0,0.0,0.0,0.0,0.0,0.0,0.0,0.0,0.0,0.0,0.0,0.0,0.0,0.0,0.0,0.0,0.0,0.0,0.0,0.0,0.0,0.0,0.0,0.0,0.0,0.0,0.0,0.0,0.0,0.0,0.0,0.0,0.0,-1.189,-1.2808,-1.3736,-1.4647,-1.4948,-1.4291,-1.3283,-1.2425,-1.1742,-0.9135,0.0,0.0,0.0,0.0,0.0,0.0,0.0,0.0,0.0,0.0,0.0,0.0,0.0,0.0,0.0,0.0,0.0,0.0,0.0,0.0,0.0,0.0,0.0,0.0,0.0,0.0,0.0,0.0,0.0,0.0,0.0,0.0,0.0,0.0,0.0,0.0,0.0,0.0,0.0,0.0,0.0,0.0,0.0,0.0,0.0,0.0,0.0,0.0,0.0,0.0,0.0,0.0,0.0,0.0,0.0,0.0,0.0,0.0,0.0,0.0,0.0,0.0,0.0,0.0,0.0,0.0,0.0,0.0,0.0,0.0,0.0,0.0,0.0,0.0,0.0,0.0,0.0,0.0,0.0,0.0,0.0,0.0,0.0,0.0,0.0,0.0,0.0,0.0,0.0,0.0,0.0,0.0,0.0,0.0,0.0,0.0,0.0,0.0,0.0,0.0,0.0,0.0,-1.2018,-1.2929,-1.3791,-1.4687,-1.5202,-1.5192,-1.3659,-1.2672,-1.261,-0.9512,0.0,0.0,0.0,0.0,0.0,0.0,0.0,0.0,0.0,0.0,0.0,0.0,0.0,0.0,0.0,0.0,0.0,0.0,0.0,0.0,0.0,0.0,0.0,0.0,0.0,0.0,0.0,0.0,0.0,0.0,0.0,0.0,0.0,0.0,0.0,0.0,0.0,0.0,0.0,0.0,0.0,0.0,0.0,0.0,0.0,0.0,0.0,0.0,0.0,0.0,0.0,0.0,0.0,0.0,0.0,0.0,0.0,0.0,0.0,0.0,0.0,0.0,0.0,0.0,0.0,0.0,0.0,0.0,0.0,0.0,0.0,0.0,0.0,0.0,0.0,0.0,0.0,0.0,0.0,0.0,0.0,0.0,0.0,0.0,0.0,0.0,0.0,0.0,0.0,0.0,0.0,0.0,0.0,0.0,0.0,0.0,0.0,0.0,0.0,0.0,0.0,0.0,-1.2318,-1.3107,0.0,-1.5,-1.5224,-1.5293,-1.3706,-1.2703,-1.2692,0.0,0.0,0.0,0.0,0.0,0.0,0.0,0.0,0.0,0.0,0.0,0.0,0.0,0.0,0.0,0.0,0.0,0.0,0.0,0.0,0.0,0.0,0.0,0.0,0.0,0.0,0.0,0.0,0.0,0.0,0.0,0.0,0.0,0.0,0.0,0.0,0.0,0.0,0.0,0.0,0.0,0.0,0.0,0.0,0.0,0.0,0.0,0.0,0.0,0.0,0.0,0.0,0.0,0.0,0.0,0.0,0.0,0.0,0.0,0.0,0.0,0.0,0.0,0.0,0.0,0.0,0.0,0.0,0.0,0.0,0.0,0.0,0.0,0.0,0.0,0.0,0.0,0.0,0.0,0.0,0.0,0.0,0.0,0.0,0.0,0.0,0.0,0.0,0.0,0.0,0.0,0.0,0.0,0.0,0.0,0.0,0.0,0.0,0.0,0.0,0.0,0.0,-1.206,-1.2544,-1.3245,0.0,-1.5215,-1.5258,-1.5303,-1.3721,-1.2722,-1.2735,0.0,0.0,0.0,0.0,0.0,0.0,0.0,0.0,0.0,0.0,0.0,0.0,0.0,0.0,0.0,0.0,0.0,0.0,0.0,0.0,0.0,0.0,0.0,0.0,0.0,0.0,0.0,0.0,0.0,0.0,0.0,0.0,0.0,0.0,0.0,0.0,0.0,0.0,0.0,0.0,0.0,0.0,0.0,0.0,0.0,0.0,0.0,0.0,0.0,0.0,0.0,0.0,0.0,0.0,0.0,0.0,0.0,0.0,0.0,0.0,0.0,0.0,0.0,0.0,0.0,0.0,0.0,0.0,0.0,0.0,0.0,0.0,0.0,0.0,0.0,0.0,0.0,0.0,0.0,0.0,0.0,0.0,0.0,0.0,0.0,0.0,0.0,0.0,0.0,0.0,0.0,0.0,0.0,0.0,0.0,0.0,0.0,0.0,0.0,0.0,0.0,0.0,-1.2066,-1.2626,-1.3335,-1.5022,-1.5263,-1.5305,-1.5293,-1.3758,-1.2798,0.0,0.0,0.0,0.0,0.0,0.0,0.0,0.0,0.0,0.0,0.0,0.0,0.0,0.0,0.0,0.0,0.0,0.0,0.0,0.0,0.0,0.0,0.0,0.0,0.0,0.0,0.0,0.0,0.0,0.0,0.0,0.0,0.0,0.0,0.0,0.0,0.0,0.0,0.0,0.0,0.0,0.0,0.0,0.0,0.0,0.0,0.0,0.0,0.0,0.0,0.0,0.0,0.0,0.0,0.0,0.0,0.0,0.0,0.0,0.0,0.0,0.0,0.0,0.0,0.0,0.0,0.0,0.0,0.0,0.0,0.0,0.0,0.0,0.0,0.0,0.0,0.0,0.0,0.0,0.0,0.0,0.0,0.0,0.0,0.0,0.0,0.0,0.0,0.0,0.0,0.0,0.0,0.0,0.0,0.0,0.0,0.0,0.0,0.0,0.0,0.0,0.0,0.0,-1.2195,-1.2674,-1.3363,-1.5098,-1.5286,-1.5313,-1.5364,-1.3787,-1.2798,-1.2806,0.0,0.0,0.0,0.0,0.0,0.0,0.0,0.0,0.0,0.0,0.0,0.0,0.0,0.0,0.0,0.0,0.0,0.0,0.0,0.0,0.0,0.0,0.0,0.0,0.0,0.0,0.0,0.0,0.0,0.0,0.0,0.0,0.0,0.0,0.0,0.0,0.0,0.0,0.0,0.0,0.0,0.0,0.0,0.0,0.0,0.0,0.0,0.0,0.0,0.0,0.0,0.0,0.0,0.0,0.0,0.0,0.0,0.0,0.0,0.0,0.0,0.0,0.0,0.0,0.0,0.0,0.0,0.0,0.0,0.0,0.0,0.0,0.0,0.0,0.0,0.0,0.0,0.0,0.0,0.0,0.0,0.0,0.0,0.0,0.0,0.0,0.0,0.0,0.0,0.0,0.0,0.0,0.0,0.0,0.0,0.0,0.0,0.0,0.0,0.0,0.0,0.0,-1.2258,-1.2728,-1.3395,-1.5119,-1.5314,-1.5361,-1.5393,-1.3838,-1.2846,-1.2849,0.0,0.0,0.0,0.0,0.0,0.0,0.0,0.0,0.0,0.0,0.0,0.0,0.0,0.0,0.0,0.0,0.0,0.0,0.0,0.0,0.0,0.0,0.0,0.0,0.0,0.0,0.0,0.0,0.0,0.0,0.0,0.0,0.0,0.0,0.0,0.0,0.0,0.0,0.0,0.0,0.0,0.0,0.0,0.0,0.0,0.0,0.0,0.0,0.0,0.0,0.0,0.0,0.0,0.0,0.0,0.0,0.0,0.0,0.0,0.0,0.0,0.0,0.0,0.0,0.0,0.0,0.0,0.0,0.0,0.0,0.0,0.0,0.0,0.0,0.0,0.0,0.0,0.0,0.0,0.0,0.0,0.0,0.0,0.0,0.0,0.0,0.0,0.0,0.0,0.0,0.0,0.0,0.0,0.0,0.0,0.0,0.0,0.0,0.0,0.0,0.0,0.0,-1.2294,-1.283,-1.353,-1.5146,-1.5366,-1.5397,-1.5397,-1.3924,-1.2988,-1.2891,0.0,0.0,0.0,0.0,0.0,0.0,0.0,0.0,0.0,0.0,0.0,0.0,0.0,0.0,0.0,0.0,0.0,0.0,0.0,0.0,0.0,0.0,0.0,0.0,0.0,0.0,0.0,0.0,0.0,0.0,0.0,0.0,0.0,0.0,0.0,0.0,0.0,0.0,0.0,0.0,0.0,0.0,0.0,0.0,0.0,0.0,0.0,0.0,0.0,0.0,0.0,0.0,0.0,0.0,0.0,0.0,0.0,0.0,0.0,0.0,-1.2466,0.0,0.0,0.0,0.0,0.0,0.0,0.0,0.0,0.0,0.0,0.0,0.0,0.0,0.0,0.0,0.0,0.0,0.0,0.0,0.0,0.0,0.0,0.0,0.0,0.0,0.0,0.0,0.0,0.0,0.0,0.0,0.0,0.0,0.0,0.0,0.0,0.0,0.0,0.0,0.0,0.0,-1.2505,-1.3393,-1.4225,-1.5272,-1.5385,-1.5409,-1.5409,-1.4433,-1.3574,-1.2949,-1.1094,0.0,0.0,0.0,0.0,0.0,0.0,0.0,0.0,0.0,0.0,0.0,0.0,0.0,0.0,0.0,0.0,0.0,0.0,0.0,0.0,0.0,0.0,0.0,0.0,0.0,0.0,0.0,0.0,0.0,0.0,0.0,0.0,0.0,0.0,0.0,0.0,0.0,0.0,0.0,0.0,0.0,0.0,0.0,0.0,0.0,0.0,0.0,0.0,0.0,0.0,0.0,0.0,0.0,0.0,0.0,0.0,0.0,0.0,0.0,0.0,-1.3775,0.0,0.0,0.0,0.0,0.0,0.0,0.0,0.0,0.0,0.0,0.0,0.0,0.0,0.0,0.0,0.0,0.0,0.0,0.0,0.0,0.0,0.0,0.0,0.0,0.0,0.0,0.0,0.0,0.0,0.0,0.0,0.0,0.0,0.0,0.0,0.0,0.0,0.0,0.0,0.0,-1.2577,-1.3567,-1.4431,-1.5308,-1.5409,-1.5391,-1.5391,-1.4609,-1.3769,-1.2949,-1.166,0.0,0.0,0.0,0.0,0.0,0.0,0.0,0.0,0.0,0.0,0.0,0.0,0.0,0.0,0.0,0.0,0.0,0.0,0.0,0.0,0.0,0.0,0.0,0.0,0.0,0.0,0.0,0.0,0.0,0.0,0.0,0.0,0.0,0.0,0.0,0.0,0.0,0.0,0.0,0.0,0.0,0.0,0.0,0.0,0.0,0.0,0.0,0.0,0.0,0.0,0.0,0.0,0.0,-1.8431,-1.8863,-1.8841,-1.8853,-1.9212,-1.9702,-1.7532,-1.6827,-1.7079,0.0,0.0,0.0,0.0,0.0,0.0,0.0,0.0,0.0,0.0,0.0,0.0,0.0,0.0,0.0,0.0,0.0,0.0,0.0,0.0,0.0,0.0,0.0,0.0,0.0,-1.5302,-1.5448,0.0,0.0,0.0,0.0,0.0,0.0,0.0,0.0,0.0,0.0,0.0,0.0,-1.2828,-1.3788,-1.4609,-1.5312,-1.5391,-1.5391,-1.5391,-1.4746,-1.3984,-1.3164,-1.2305,-1.1113,0.0,0.0,0.0,0.0,0.0,0.0,0.0,0.0,0.0,0.0,0.0,0.0,0.0,0.0,0.0,0.0,0.0,0.0,0.0,0.0,0.0,0.0,0.0,0.0,0.0,0.0,0.0,0.0,0.0,0.0,0.0,0.0,-1.0859,-1.1143,0.0,0.0,0.0,0.0,0.0,0.0,0.0,0.0,0.0,0.0,0.0,0.0,0.0,-1.8534,-1.8768,-2.032,-2.1114,-2.1114,-2.1951,-2.2302,-2.2242,-2.2256,-2.2288,-2.2316,-2.196,0.0,-1.983,-1.8102,0.0,0.0,0.0,0.0,0.0,0.0,0.0,0.0,0.0,0.0,0.0,0.0,0.0,0.0,0.0,0.0,0.0,0.0,0.0,0.0,0.0,0.0,-1.7312,-1.7314,-1.7449,-1.7489,0.0,-1.5451,-1.3867,-1.3633,-1.3047,0.0,0.0,0.0,0.0,0.0,0.0,0.0,-1.3808,-1.4687,-1.5273,-1.5391,-1.5391,-1.5391,-1.5391,-1.5293,-1.4863,-1.4004,-1.3184,-1.2285,-1.1309,-0.9922,0.0,0.0,0.0,0.0,0.0,0.0,0.0,0.0,0.0,0.0,0.0,0.0,0.0,0.0,0.0,0.0,0.0,0.0,0.0,0.0,0.0,0.0,0.0,0.0,0.0,0.0,0.0,0.0,0.0,-1.0831,-1.214,-1.2174,-1.2583,-1.2678,0.0,0.0,0.0,0.0,0.0,0.0,0.0,0.0,0.0,-1.9414,-2.0197,-2.0805,-2.127,-2.2513,-2.3145,-2.3164,-2.3993,-2.4394,-2.4363,-2.4363,-2.4344,-2.4329,-2.4329,-2.3928,-2.313,-2.0858,-1.9634,-1.9082,0.0,0.0,0.0,0.0,-1.7346,-1.7468,-1.8407,-1.8731,0.0,-1.8657,0.0,0.0,0.0,0.0,0.0,0.0,0.0,0.0,0.0,0.0,0.0,-1.995,-2.0324,-2.0577,-2.0102,-1.8749,-1.7217,0.0,-1.5252,-1.4336,-1.2148,0.0,0.0,0.0,0.0,0.0,-1.4785,-1.6016,-1.6855,-1.6855,-1.6426,-1.6133,-1.6133,-1.5684,-1.5039,-1.416,-1.3769,-1.2988,-1.1641,-1.0879,-1.0234,0.0,0.0,0.0,0.0,0.0,0.0,0.0,0.0,0.0,0.0,0.0,0.0,0.0,0.0,0.0,0.0,0.0,0.0,0.0,0.0,0.0,0.0,0.0,0.0,0.0,0.0,0.0,0.0,-1.2299,-1.3432,-1.365,-1.4656,-1.4983,0.0,0.0,0.0,0.0,0.0,0.0,-1.8783,-1.9664,-2.0795,-2.2217,-2.2702,-2.3211,-2.3829,-2.4735,-2.5192,-2.5215,-2.5851,-2.6157,-2.614,-2.614,-2.6129,-2.611,-2.611,-2.5994,-2.5583,-2.3174,-2.1841,-2.1205,-2.0337,-1.9591,-1.9084,-1.9731,-1.9965,-2.0146,-2.1408,-2.1831,-2.1773,-2.1389,0.0,-1.9692,-1.8234,0.0,0.0,0.0,0.0,-1.8947,-1.9771,-2.0963,-2.1946,-2.1945,-2.2469,-2.2782,-2.2172,-2.1535,-2.0321,0.0,-1.7117,-1.6326,-1.4217,0.0,0.0,0.0,0.0,-1.5801,-1.6035,-1.7207,-1.8008,-1.8008,-1.7422,-1.6934,-1.6719,-1.6113,-1.5352,-1.4492,-1.4219,-1.3457,-1.1992,-1.1719,-1.1191,-1.0312,0.0,0.0,0.0,0.0,0.0,0.0,0.0,0.0,0.0,0.0,0.0,0.0,0.0,0.0,0.0,0.0,0.0,0.0,0.0,0.0,0.0,0.0,0.0,0.0,0.0,0.0,0.0,0.0,0.0,-1.6211,-1.7868,0.0,0.0,0.0,0.0,-1.8787,-1.8878,-1.9625,-2.1317,-2.2246,-2.3132,-2.4037,-2.5687,-2.656,-2.6596,-2.7468,-2.7895,-2.7895,-2.7957,-2.7942,-2.7876,-2.7876,-2.7844,-2.7776,-2.7776,-2.7314,-2.6424,-2.4752,-2.4039,-2.3918,-2.3033,-2.2647,-2.2547,-2.2586,-2.2605,-2.2624,-2.272,-2.274,-2.2855,-2.3644,-2.3317,-2.2451,-2.1523,-2.0673,0.0,0.0,-2.1277,-2.1536,-2.2449,-2.2766,-2.2845,-2.2918,-2.3002,-2.3057,-2.2964,-2.2951,-2.2164,0.0,-1.8355,-1.7537,-1.658,0.0,-1.6543,-1.6465,-1.6543,-1.6934,-1.7754,-1.7949,-1.8008,-1.8008,-1.7969,-1.7598,-1.6777,-1.666,-1.6269,-1.5391,-1.4551,-1.3711,-1.2871,-1.2031,-1.1191,-1.0312,-1.0254,0.0,0.0,0.0,0.0,0.0,0.0,0.0,0.0,0.0,0.0,0.0,0.0,0.0,0.0,0.0,0.0,0.0,0.0,0.0,0.0,0.0,0.0,0.0,0.0,0.0,0.0,0.0,0.0,-1.8844,-1.9964,0.0,-1.9515,-1.9928,-2.0396,-2.074,-2.1756,-2.286,-2.4055,-2.4938,-2.5783,-2.6624,-2.7244,-2.7544,-2.7516,-2.7825,-2.796,-2.796,-2.796,-2.7961,-2.7938,-2.7938,-2.7918,-2.7895,-2.7895,-2.7717,-2.74,-2.6823,-2.5929,-2.4876,-2.4578,-2.4436,-2.4404,-2.4404,-2.4404,-2.4404,-2.4404,-2.4404,-2.437,-2.4163,-2.3898,-2.3471,-2.2605,-2.2139,-2.2081,-2.2932,-2.3163,-2.3364,-2.4212,-2.4486,-2.4506,-2.4536,-2.4603,-2.4507,-2.3947,-2.3853,-2.3416,-2.1905,-2.1402,-2.0623,-1.8669,-1.8828,-1.8633,-1.6953,-1.7656,-1.8496,-1.8809,-1.9336,-1.9668,-1.9668,-1.918,-1.8477,-1.7617,-1.7012,-1.6328,-1.5469,-1.457,-1.373,-1.293,-1.2051,-1.1191,-1.0312,-1.0293,-0.9863,0.0,0.0,0.0,0.0,0.0,0.0,0.0,0.0,0.0,0.0,0.0,0.0,0.0,0.0,0.0,0.0,0.0,0.0,0.0,0.0,0.0,0.0,0.0,0.0,0.0,0.0,-2.0201,-2.1074,-2.2172,-2.2636,-2.211,-2.2814,-2.3457,-2.3805,-2.4823,-2.5705,-2.6276,-2.6868,-2.7424,-2.7956,-2.8222,-2.8343,-2.8319,-2.8602,-2.8736,-2.8736,-2.8736,-2.8736,-2.8736,-2.8736,-2.8736,-2.8736,-2.8736,-2.8582,-2.8299,-2.8299,-2.7467,-2.6173,-2.6173,-2.6,-2.5731,-2.5731,-2.5558,-2.5308,-2.5308,-2.5308,-2.5212,-2.4678,-2.4509,-2.4394,-2.3812,-2.3639,-2.3755,-2.4336,-2.4509,-2.4634,-2.5191,-2.5371,-2.5409,-2.5421,-2.5474,-2.5357,-2.4814,-2.4715,-2.4573,-2.3991,-2.346,-2.2557,-2.0877,-2.1054,-2.0859,-1.9141,-1.9629,-2.0176,-2.0176,-2.043,-2.0605,-2.0605,-2.0078,-1.9394,-1.8516,-1.7637,-1.6777,-1.5898,-1.5019,-1.418,-1.334,-1.248,-1.1621,-1.0762,-1.0449,-0.9863,-0.9004,0.0,0.0,0.0,0.0,0.0,0.0,0.0,0.0,0.0,0.0,0.0,0.0,0.0,0.0,0.0,0.0,0.0,0.0,0.0,0.0,0.0,0.0,0.0,-1.9112,-2.0618,-2.2043,-2.2914,-2.4527,-2.5576,-2.5577,-2.6287,-2.7094,-2.7922,-2.7943,-2.7915,-2.7934,-2.7934,-2.7953,-2.803,-2.878,-2.9184,-2.9223,-3.0063,-3.0481,-3.0481,-3.0481,-3.0481,-3.0481,-3.0442,-3.0442,-3.0442,-3.0404,-2.9929,-2.9146,-2.9146,-2.8684,-2.7972,-2.7915,-2.7371,-2.664,-2.664,-2.6096,-2.5346,-2.5346,-2.5327,-2.5308,-2.5308,-2.5308,-2.5308,-2.5308,-2.5308,-2.5308,-2.5308,-2.5308,-2.5317,-2.5379,-2.5409,-2.5415,-2.5473,-2.5508,-2.5491,-2.5491,-2.5554,-2.5602,-2.5602,-2.4297,-2.3168,-2.3147,-2.3141,-2.3144,-2.3184,-2.248,0.0,-2.1894,-2.1152,-2.0625,-2.0605,-2.0605,-2.0254,-1.9375,-1.8496,-1.7637,-1.6758,-1.5859,-1.498,-1.4121,-1.332,-1.25,-1.166,-1.0801,-0.9961,-0.9121,0.0,0.0,0.0,0.0,0.0,0.0,0.0,0.0,0.0,0.0,0.0,0.0,0.0,0.0,0.0,0.0,0.0,0.0,0.0,0.0,0.0,0.0,-2.1758,-2.1754,-2.3204,-2.4608,-2.549,-2.6563,-2.7238,-2.7233,-2.7436,-2.7672,-2.7903,-2.7911,-2.8145,-2.8742,-2.878,-2.9357,-3.0621,-3.0871,-3.1275,-3.1852,-3.2083,-3.2218,-3.2218,-3.2218,-3.2218,-3.2199,-3.1621,-3.1346,-3.1308,-3.0673,-3.0269,-3.0038,-3.0038,-2.9904,-2.9596,-2.8371,-2.7761,-2.7544,-2.7544,-2.6986,-2.6231,-2.6231,-2.5827,-2.5308,-2.5308,-2.5308,-2.5308,-2.5308,-2.5308,-2.5308,-2.5308,-2.5308,-2.5293,-2.5312,-2.5352,-2.5397,-2.5425,-2.5454,-2.5491,-2.5491,-2.5554,-2.5602,-2.5602,-2.5265,-2.4784,-2.4159,-2.4043,-2.3848,-2.3281,-2.3008,0.0,-2.1973,-2.1699,-2.1309,-2.0664,-2.0605,-2.0254,-1.9375,-1.8496,-1.7637,-1.6758,-1.5293,-1.4355,-1.4102,-1.332,-1.2793,-1.2559,-1.2305,-1.207,0.0,0.0,0.0,0.0,0.0,0.0,0.0,0.0,0.0,0.0,0.0,0.0,0.0,0.0,0.0,0.0,0.0,0.0,0.0,0.0,0.0,0.0,-2.2658,-2.4101,-2.4836,-2.5466,-2.6173,-2.7044,-2.7582,-2.803,-2.8376,-2.8396,-2.8544,-2.8929,-2.9294,-2.9698,-3.016,-3.0506,-3.116,-3.2179,-3.2199,-3.2429,-3.2891,-3.2891,-3.2891,-3.2891,-3.2891,-3.2891,-3.2872,-3.2429,-3.2199,0.0,-3.1679,-3.1442,-3.1423,-3.1077,-3.0942,0.0,0.0,0.0,0.0,0.0,-2.7582,-2.714,-2.714,-2.6813,-2.639,-2.639,-2.639,-2.639,-2.639,-2.6135,-2.5846,-2.5846,-2.5577,-2.5308,-2.5308,-2.5326,-2.5363,-2.5363,-2.5387,-2.5427,-2.5427,-2.5477,-2.5524,-2.5522,-2.5564,0.0,-2.4944,-2.4918,-2.4785,-2.4316,-2.3945,-2.3516,-2.3008,-2.2656,-2.2109,-2.1208,-2.1132,-2.0781,-1.988,-1.9023,0.0,0.0,0.0,-1.4863,-1.4121,-1.3652,0.0,0.0,0.0,0.0,0.0,0.0,0.0,0.0,-1.0918,-1.1367,0.0,0.0,0.0,0.0,0.0,0.0,0.0,0.0,0.0,0.0,0.0,0.0,0.0,0.0,0.0,0.0,-2.5005,-2.6154,-2.7794,-2.7371,-2.7178,-2.7934,-2.8121,-2.8511,-2.9319,-2.9396,-2.9756,-3.0615,-3.1404,-3.1833,-3.1833,0.0,0.0,0.0,0.0,-3.3083,-3.3199,-3.3199,-3.3199,-3.3199,-3.3199,-3.3199,-3.3199,-3.3083,-3.3045,-3.3045,-3.2949,-3.2891,-3.2833,-3.2122,-3.1775,-3.1621,-3.0731,-2.9929,-2.9165,-2.8453,-2.8126,-2.8049,-2.8049,0.0,0.0,-2.7895,-2.7895,-2.7895,-2.7895,-2.7351,-2.6736,-2.664,-2.6038,-2.5423,-2.5327,-2.5308,-2.5308,-2.5308,-2.5308,-2.5308,-2.5308,-2.535,-2.5409,-2.5402,-2.5459,-2.5491,-2.5491,-2.5604,-2.5683,-2.5683,-2.5039,-2.4512,-2.4414,-2.3789,-2.2987,-2.2058,0.0,0.0,-2.0729,-1.9822,-1.9297,-1.9297,-1.7754,-1.6152,-1.4609,-1.4453,-1.4062,-1.334,-1.3223,-1.3184,-1.3184,-1.4004,-1.4023,-1.332,-1.3125,-1.3047,0.0,0.0,0.0,0.0,0.0,0.0,0.0,0.0,0.0,0.0,0.0,0.0,0.0,0.0,0.0,-2.4846,-2.639,-2.7736,-2.8723,-2.8723,-2.8684,-2.8857,-2.9486,-3.025,-3.1102,-3.1198,-3.1545,-3.2352,-3.2564,-3.2679,-3.2679,-3.2814,0.0,-3.3936,-3.3955,-3.4295,-3.4981,-3.5,-3.5,-3.5,0.0,0.0,-3.4962,-3.4276,-3.3955,-3.3917,-3.3218,-3.2891,-3.2891,-3.2737,-3.2295,-3.1621,-3.0731,-3.0308,-3.0135,-2.9962,-2.9467,-2.8876,-2.8876,-2.8434,-2.7895,-2.7895,-2.7895,-2.7895,-2.7895,-2.778,0.0,-2.6794,-2.6486,-2.6192,-2.5481,-2.5308,-2.5308,-2.5308,-2.5308,-2.5308,-2.5308,-2.535,-2.539,-2.5409,-2.5443,-2.5491,-2.5491,-2.5563,-2.5629,-2.5629,-2.5524,-2.5195,-2.4492,-2.4258,-2.3848,-2.3027,-2.2305,-2.1836,-2.164,-2.0195,-1.9297,-1.9297,-1.832,-1.7598,-1.7266,-1.6562,-1.6113,-1.5977,-1.5273,-1.4922,-1.4922,-1.5781,-1.6113,-1.5937,-1.4512,-1.3867,0.0,0.0,0.0,0.0,0.0,0.0,0.0,0.0,0.0,0.0,0.0,-2.1412,-2.3139,0.0,-2.576,-2.7005,-2.8294,-2.9448,-3.0275,-3.0756,-3.0852,-3.0448,-3.0794,-3.1385,-3.2218,-3.2295,-3.2468,-3.2872,-3.3295,-3.3545,-3.3545,-3.3968,-3.441,-3.4834,-3.4853,-3.5064,-3.55,-3.55,-3.55,-3.55,-3.55,-3.55,-3.5481,-3.5045,-3.4853,-3.4834,-3.4391,-3.4192,-3.418,-3.3737,-3.3064,-3.2218,-3.1385,-3.0788,-3.0404,-3.0404,-3.0115,-2.9756,-2.9756,-2.9486,-2.9159,-2.9159,-2.9159,-2.9159,-2.9159,-2.8852,-2.8415,-2.7967,-2.7255,-2.6505,-2.6058,-2.5635,-2.5308,-2.5308,-2.5308,-2.5308,-2.5308,-2.5321,-2.5346,-2.5346,-2.5372,-2.5406,-2.5406,-2.5462,-2.5503,-2.5549,-2.557,-2.5444,-2.5015,-2.4987,-2.4678,-2.3848,-2.3395,-2.2772,-2.1878,-2.0605,-1.9672,-1.9272,-1.8842,-1.8415,-1.8027,-1.7578,-1.7344,-1.7344,-1.6914,-1.6699,-1.6699,-1.7148,-1.7344,-1.7324,-1.6465,-1.6055,0.0,0.0,0.0,0.0,0.0,0.0,0.0,0.0,-2.0454,-2.3227,-2.3798,-2.4413,-2.6467,-2.7121,-2.7775,-2.9121,-3.0217,-3.1135,-3.1833,-3.2487,-3.2718,-3.2237,-3.2045,-3.2256,-3.3064,-3.3141,-3.3218,-3.3391,-3.4064,-3.4449,-3.4449,-3.5122,-3.55,-3.55,-3.55,-3.55,-3.55,-3.55,-3.55,-3.55,-3.55,-3.55,-3.55,-3.55,-3.55,-3.55,-3.55,-3.55,-3.5423,-3.4564,-3.3801,-3.3064,-3.2256,-3.15,-3.0846,-3.0519,-3.0404,-3.0404,-3.0404,-3.0404,-3.0404,-3.0404,-3.0404,-3.0404,-3.0404,-2.991,-2.9319,-2.9146,-2.8005,-2.6813,-2.664,-2.5942,-2.5308,-2.5308,-2.5308,-2.5308,-2.5308,-2.5308,-2.5308,-2.5308,-2.5308,-2.5308,-2.5308,-2.5337,-2.5394,-2.546,-2.5484,-2.5491,-2.5491,-2.5551,-2.5311,-2.4623,-2.4458,-2.3664,-2.1878,-2.0914,-2.0141,-1.9461,-1.9449,-1.9167,-1.8514,-1.834,-1.8242,-1.8242,-1.8086,-1.8008,-1.8008,-1.8164,-1.8242,-1.8262,-1.8437,-1.832,-1.7888,-1.7938,-1.8496,-1.9308,-1.9726,-2.0947,0.0,0.0,-2.4217,-2.6794,-2.7337,-2.7414,-2.7703,-2.8967,-3.0038,-3.0212,-3.1583,-3.2641,-3.2756,-3.2833,-3.3141,-3.384,-3.3237,-3.3103,-3.3975,-3.4052,-3.4372,-3.5154,-3.5308,-3.5346,-3.5346,-3.5442,-3.55,-3.55,-3.55,-3.55,-3.55,-3.55,-3.55,-3.55,-3.55,-3.55,-3.55,-3.55,-3.55,-3.55,-3.55,-3.55,-3.5423,-3.4564,-3.4148,-3.3975,-3.3103,-3.2718,-3.2449,-3.0942,-3.0404,-3.0404,-3.0404,-3.0404,-3.0404,-3.0404,-3.0404,-3.0404,-3.0404,-3.0327,-3.0096,-2.9319,-2.8453,-2.7582,-2.6794,-2.5942,-2.5308,-2.5308,-2.5308,-2.5308,-2.5308,-2.5308,-2.5308,-2.5308,-2.5308,-2.5308,-2.5308,-2.5317,-2.5335,-2.5394,-2.5451,-2.5491,-2.5491,-2.5517,-2.55,-2.5458,-2.4763,-2.3632,-2.193,-2.0991,-2.0414,-2.0283,-2.0316,-2.0314,-2.0219,-1.9529,-1.9141,-1.9141,-1.8398,-1.8008,-1.8008,-1.8789,-1.9141,-1.918,-1.9941,-1.9473,-2.1185,-2.1336,-2.1719,0.0,-2.3426,-2.4284,-2.6177,-2.637,-2.6606,-2.8264,-2.8607,-2.8761,-2.9256,-3.0346,-3.1154,0.0,-3.2564,-3.3667,-3.3667,-3.3667,-3.3801,-3.4167,-3.3878,-3.4007,-3.4872,-3.4968,-3.5122,-3.5462,-3.55,-3.55,-3.55,-3.55,-3.55,-3.55,-3.5942,-3.6192,-3.6192,-3.6692,-3.6692,-3.6192,-3.6192,-3.5942,-3.55,-3.55,-3.55,-3.55,-3.55,-3.55,-3.5462,-3.5122,-3.4968,-3.4872,-3.4007,-3.3667,-3.3449,-3.1775,-3.1154,-3.1077,-3.0577,-3.0404,-3.0404,-3.0404,-3.0404,-3.0404,-3.0404,-3.0404,-3.0327,-2.9967,-2.9256,-2.8415,-2.7563,-2.6717,-2.5923,-2.5423,-2.5308,-2.5308,-2.5308,-2.5308,-2.5308,-2.5308,-2.5308,-2.5308,-2.5308,-2.5308,-2.5308,-2.5344,-2.5371,-2.5379,-2.5379,-2.5415,-2.5477,-2.5522,-2.4806,-2.3996,-2.3261,-2.1937,-2.1128,-2.1091,-2.0653,-2.0391,-2.0438,-2.0121,-1.996,-1.9993,-1.9642,-1.9469,-1.9512,-1.9883,-2.0059,-2.0078,-2.043,-2.0215,-2.3195,0.0,0.0,-2.5556,-2.6427,-2.7147,-2.775,-2.814,-2.8638,-2.9519,-2.9567,-2.964,-3.0288,-3.1115,-3.1775,-3.1987,-3.3256,-3.4282,-3.4526,-3.4359,-3.4302,-3.4526,-3.4359,-3.4545,-3.5423,-3.55,-3.55,-3.55,-3.55,-3.5596,-3.5827,-3.5827,-3.5942,-3.6173,-3.675,-3.7065,-3.7065,-3.768,-3.768,-3.7065,-3.7065,-3.6635,-3.5827,-3.5596,-3.55,-3.55,-3.55,-3.55,-3.55,-3.55,-3.55,-3.5442,-3.4814,-3.4564,-3.4372,-3.2929,-3.2237,-3.1948,-3.1308,-3.0942,-3.075,-3.075,-3.0596,-3.0404,-3.0404,-3.0404,-3.0404,-3.0404,-2.9775,-2.8973,-2.8376,-2.7428,-2.6447,-2.5808,-2.5481,-2.5308,-2.5308,-2.5308,-2.5308,-2.5308,-2.5308,-2.5308,-2.5308,-2.5308,-2.5308,-2.5308,-2.5308,-2.5308,-2.5308,-2.5359,-2.5415,-2.5477,-2.4742,-2.4243,-2.4203,-2.2821,-2.1956,-2.1939,-2.1359,-2.0934,-2.073,-2.0748,-2.0678,-2.0475,-2.0476,-2.0506,-2.0541,-2.0564,-2.0564,-2.0541,-2.0585,-2.0586,0.0,0.0,-2.5897,-2.6967,-2.8001,-2.9148,-3.0792,-3.0732,-3.0484,-3.1115,-3.0777,-3.0365,-3.0404,-3.1115,-3.1968,-3.2737,-3.3622,-3.4507,-3.5346,-3.4737,-3.4507,-3.5365,-3.4718,-3.4545,0.0,-3.55,-3.55,-3.55,-3.55,-3.5846,-3.6615,-3.6654,-3.7038,-3.7892,-3.795,-3.7969,-3.7969,-3.7988,-3.7988,-3.7969,-3.7969,-3.7507,-3.6635,-3.5865,-3.55,-3.55,-3.55,-3.55,-3.55,-3.55,-3.55,-3.55,-3.5462,-3.5462,-3.5346,-3.4449,-3.3583,-3.2852,-3.2833,-3.2314,-3.166,-3.166,-3.1096,-3.0404,-3.0404,-3.0404,-3.0404,-3.0404,-2.9775,-2.9088,-2.9069,-2.7832,-2.6601,-2.6563,-2.5904,-2.5308,-2.5308,-2.5308,-2.5308,-2.5308,-2.5308,-2.5308,-2.5308,-2.5308,-2.5308,-2.5308,-2.5308,-2.5308,-2.5308,-2.5354,-2.5402,-2.5394,-2.4685,-2.4194,-2.4203,-2.3369,-2.2824,-2.2767,-2.2794,-2.2433,-2.1607,-2.1636,-2.126,-2.041,-2.0393,-2.0393,-2.0414,-2.0475,-2.0475,-2.0416,-2.054,-2.0564,-2.4672,0.0,-2.7794,-2.8833,-2.9917,-3.1021,-3.2108,-3.1789,-3.1315,-3.152,-3.0483,-2.9544,-2.9544,-3.0256,-3.1115,-3.1968,-3.3276,-3.4507,-3.5385,-3.4757,-3.4321,-3.4603,-3.4379,0.0,0.0,0.0,0.0,-3.55,-3.5981,-3.6404,-3.6692,-3.7257,-3.77,-3.7988,-3.8565,-3.8854,-3.8854,-3.94,-3.94,-3.8854,-3.8277,-3.7546,-3.6692,-3.6423,-3.6,-3.55,-3.55,-3.55,-3.55,-3.55,-3.55,-3.55,-3.55,-3.55,-3.5462,-3.5173,-3.4885,-3.4462,-3.3295,-3.2718,-3.241,-3.1872,-3.1506,-3.1154,-3.0577,-3.0404,-3.0404,-3.0404,-3.0192,-2.9833,-2.9261,-2.8684,-2.7986,-2.6851,-2.639,-2.6,-2.5423,-2.5308,-2.5308,-2.5308,-2.5308,-2.5308,-2.5308,-2.5308,-2.5308,-2.5308,-2.5308,-2.5308,-2.5308,-2.5322,-2.533,-2.5335,-2.5124,-2.4987,-2.4919,-2.4208,-2.3724,-2.3672,-2.3139,-2.2693,-2.2404,-2.2416,-2.2304,-2.2067,-2.2067,-2.1801,-2.126,-2.1298,-2.0986,-2.0391,-2.0441,-2.0467,-2.6609,-2.7965,-2.9361,-3.0948,-3.191,-3.2588,-3.3105,-3.2654,-3.193,-3.1245,-2.9979,-2.8898,-2.861,-2.897,-2.9767,-3.1214,-3.2343,-3.3555,-3.5004,-3.4557,-3.4275,-3.4889,-3.4773,-3.4891,0.0,0.0,0.0,-3.5558,-3.6519,-3.7161,-3.7161,-3.7988,-3.8604,-3.8873,-3.9438,-3.9727,-3.9727,-4.0246,-4.0246,-3.9727,-3.8873,-3.8161,-3.7603,-3.6981,-3.6423,-3.5904,-3.5615,-3.55,-3.55,-3.55,-3.5439,-3.5369,-3.5453,-3.5439,-3.5369,-3.5453,-3.5439,-3.5215,-3.4172,-3.3622,-3.3276,-3.2756,-3.2199,-3.1602,-3.1019,-3.0654,-3.0404,-3.0404,-3.0404,-3.0269,-2.9717,-2.9338,-2.8838,-2.7755,-2.7044,-2.6447,-2.5885,-2.5519,-2.5308,-2.5308,-2.5308,-2.5308,-2.5308,-2.5308,-2.5308,-2.5308,-2.5308,-2.5308,-2.5308,-2.5308,-2.5308,-2.5308,-2.5344,-2.5342,-2.5293,-2.4866,-2.457,-2.4533,-2.4005,-2.3562,-2.3278,-2.3259,-2.3135,-2.2871,-2.2852,-2.261,-2.21,-2.2125,-2.1834,-2.1249,-2.1318,-2.1327,-2.8754,-2.9682,-3.0572,-3.3135,-3.3813,-3.3824,-3.38,-3.3271,-3.2275,-3.038,-2.9275,-2.8413,0.0,0.0,-2.8083,-3.0476,-3.0986,-3.193,-3.4431,-3.4299,-3.4541,0.0,0.0,0.0,0.0,0.0,0.0,-3.575,0.0,-3.8065,-3.8065,-3.8892,-3.9708,-4.0477,-4.0496,-4.0496,-4.0496,-4.0496,-4.0496,-4.0496,-3.9727,-3.9342,-3.9246,-3.7584,-3.6808,-3.6712,-3.5904,-3.5558,-3.5558,-3.5519,-3.5354,-3.5157,-3.5391,-3.5346,-3.513,-3.5383,-3.5304,-3.5113,-3.5369,-3.4929,-3.425,-3.4199,-3.3122,-3.1814,-3.1737,-3.1115,-3.0462,-3.0404,-3.0404,-3.0404,-3.0404,-2.9794,-2.9165,-2.9107,-2.789,-2.6717,-2.6678,-2.5981,-2.5365,-2.5365,-2.5327,-2.5308,-2.5308,-2.5308,-2.5308,-2.5308,-2.5308,-2.5308,-2.5308,-2.5308,-2.5308,-2.5308,-2.5308,-2.5308,-2.5308,-2.5308,-2.5308,-2.5308,-2.5308,-2.4966,-2.4187,-2.4168,-2.3759,-2.2932,-2.2932,-2.2913,-2.2874,-2.2929,-2.2906,-2.2802,-2.2933,-2.296,-2.918,-3.0764,-3.24,-3.3271,-3.3989,-3.4292,-3.3648,-3.2462,-3.1168,-3.0075,-2.8184,-2.6467,0.0,0.0,0.0,-2.8936,-3.0693,0.0,-3.5513,-3.5765,0.0,-3.7417,0.0,-3.7526,-3.7969,-3.8584,0.0,0.0,-3.8354,-3.8977,-3.8977,-3.9746,-4.0285,-4.0496,-4.0496,-4.0496,-4.0496,-4.0496,-4.0496,-4.0496,-4.0285,-3.9881,-3.9284,-3.8834,-3.8277,-3.7623,-3.6769,-3.6385,-3.6346,-3.575,-3.5453,-3.5398,-3.546,-3.5346,-3.5105,-3.5182,-3.5025,-3.4803,-3.4889,-3.4892,-3.4791,-3.4351,-3.3917,-3.3333,-3.2083,-3.1545,-3.1231,-3.0577,-3.0404,-3.0404,-3.0404,-3.0231,-2.991,-2.9261,-2.878,-2.8299,-2.7698,-2.689,-2.6269,-2.6269,-2.5731,-2.5308,-2.5308,-2.5308,-2.5308,-2.5308,-2.5308,-2.5308,-2.5308,-2.5308,-2.5308,-2.5308,-2.5308,-2.5308,-2.5308,-2.5308,-2.5308,-2.5308,-2.5308,-2.5212,-2.5,-2.4981,-2.4885,-2.4673,-2.4654,-2.437,-2.3764,-2.3786,-2.3458,-2.2797,-2.2848,-2.284,-3.065,-3.2054,-3.3302,-3.3844,-3.4054,-3.3827,-3.2609,-3.1372,-2.9935,-2.8004,-2.6396,0.0,0.0,0.0,0.0,0.0,0.0,0.0,-3.4784,-3.5627,-3.645,0.0,-3.8061,0.0,-3.8669,-3.9127,-3.9232,0.0,-3.9284,-3.9478,-3.9095,-3.9726,-4.012,-4.012,-4.012,-4.012,-4.012,-4.012,-4.012,-4.012,-4.012,-3.9862,-3.9423,-3.9032,-3.8593,-3.8088,0.0,-3.6887,-3.6811,-3.5999,-3.5604,-3.5494,-3.5376,-3.5155,-3.4944,-3.5062,-3.4935,-3.4694,-3.4694,-3.4695,-3.469,-3.4614,-3.4426,-3.4013,-3.3083,-3.2275,-3.1602,-3.1115,-3.0692,-3.0404,-3.0404,-3.0404,-3.0288,-2.9794,-2.9371,-2.8973,-2.853,-2.7755,-2.7063,-2.6678,-2.6212,-2.575,-2.5365,-2.5308,-2.5308,-2.5308,-2.5308,-2.5308,-2.5308,-2.5308,-2.5308,-2.5308,-2.5308,-2.5308,-2.5308,-2.5308,-2.5308,-2.5308,-2.5308,-2.5308,-2.5308,-2.5308,-2.5308,-2.5308,-2.5308,-2.5077,-2.462,-2.462,-2.437,-2.3908,-2.3908,-2.3908,-3.2382,-3.3227,-3.3638,-3.4434,-3.3973,-3.2861,-3.1261,-3.0122,-2.8481,-2.5371,0.0,-2.371,-2.2241,-2.2631,-2.3905,-2.6216,0.0,-3.0148,-3.3414,-3.4809,-3.6106,-3.776,-3.8275,-3.8765,-3.9524,-3.9599,-3.9599,-3.9599,-3.9819,-3.9659,-3.8946,-3.9356,-3.9599,-3.9599,-3.9599,-3.9599,-3.9599,-3.9599,-3.9599,-3.9599,-3.9599,-3.9599,-3.9561,-3.8822,-3.8471,-3.8433,0.0,0.0,-3.7205,-3.6398,-3.5871,-3.5518,-3.5296,-3.4965,-3.4663,-3.4889,-3.4813,-3.458,-3.458,-3.4401,-3.4292,-3.4851,-3.469,-3.4246,-3.4131,-3.2992,-3.1751,-3.1674,-3.1027,-3.0355,-3.0398,-3.0404,-3.0398,-3.0355,-2.9796,-2.9256,-2.9233,-2.861,-2.7775,-2.6794,-2.6601,-2.6327,-2.5442,-2.5308,-2.5308,-2.5308,-2.5308,-2.5308,-2.5308,-2.5308,-2.5308,-2.5308,-2.5308,-2.5308,-2.5308,-2.5308,-2.5308,-2.5308,-2.5308,-2.5308,-2.5308,-2.5308,-2.5308,-2.5308,-2.5308,-2.5308,-2.5308,-2.5308,-2.5308,-2.5308,-2.5308,-2.5308,-3.2641,-3.3357,-3.382,-3.4193,-3.3505,-3.2312,-3.0706,-2.8687,0.0,0.0,-2.3224,-2.2184,-2.1881,-2.3015,-2.4557,-2.6319,0.0,0.0,0.0,0.0,-3.6208,0.0,0.0,0.0,0.0,0.0,0.0,0.0,0.0,-3.9333,-3.9449,-3.9558,-3.9599,-3.9599,-3.9599,-3.9599,-3.9599,-3.9599,-3.9599,-3.9599,-3.9599,-3.9599,-3.958,-3.9448,-3.9373,-3.9335,-3.8482,0.0,-3.8026,-3.7224,-3.6467,-3.5835,-3.578,-3.5155,-3.4281,-3.4338,-3.4201,-3.3954,-3.3954,-3.4056,-3.4258,-3.4663,-3.4699,-3.4482,-3.3762,-3.2863,-3.2007,-3.1504,-3.0729,-3.0129,-3.0349,-3.0404,-3.0329,-3.0129,-3.0113,-3.0118,-2.99,-2.9334,-2.8434,-2.6909,-2.6601,-2.6327,-2.5442,-2.5308,-2.5308,-2.5308,-2.5308,-2.5308,-2.5308,-2.5308,-2.5308,-2.5308,-2.5308,-2.5308,-2.5308,-2.5308,-2.5308,-2.5308,-2.5308,-2.5308,-2.5308,-2.5308,-2.5308,-2.5308,-2.5308,-2.5308,-2.5308,-2.5308,-2.5308,-2.5308,-2.5308,-2.5308,-3.3056,-3.3607,-3.3829,-3.3961,-3.2655,-3.1041,-2.9849,0.0,0.0,0.0,-2.1969,-2.0996,-2.0582,0.0,0.0,0.0,0.0,0.0,0.0,0.0,0.0,0.0,0.0,0.0,0.0,0.0,0.0,0.0,0.0,-3.9013,-3.9314,-3.9216,-3.9127,-3.9127,-3.9127,-3.9127,-3.9127,-3.9127,-3.9127,-3.9127,-3.9127,-3.9127,-3.9127,-3.9127,-3.9127,-3.9109,-3.8686,0.0,-3.8412,-3.7203,-3.6459,-3.6037,-3.5303,-3.4682,-3.42,-3.42,-3.4111,-3.3999,-3.3855,-3.3876,-3.4024,-3.4184,-3.4431,-3.4619,-3.4202,-3.3486,-3.2685,-3.1963,-3.1145,-3.0435,-3.0244,-3.0196,-3.0157,-3.0028,-3.0018,-3.0037,-2.9999,-2.9772,-2.9251,-2.8124,-2.7563,-2.7005,-2.6135,-2.5501,-2.5173,-2.5279,-2.5214,-2.5173,-2.5298,-2.5308,-2.5308,-2.5308,-2.5308,-2.5308,-2.5308,-2.5308,-2.5308,-2.5308,-2.5308,-2.5308,-2.5308,-2.5308,-2.5308,-2.5308,-2.5308,-2.5308,-2.5308,-2.5308,-2.5308,-2.5308,-2.5308,-2.5308,-3.3109,-3.3678,-3.3807,-3.3807,-3.199,-2.9989,-2.9189,-2.6382,0.0,0.0,-2.0978,-2.0089,-1.9638,0.0,0.0,0.0,0.0,0.0,0.0,0.0,0.0,0.0,0.0,0.0,0.0,0.0,0.0,0.0,0.0,0.0,-3.9013,-3.88,-3.8707,-3.8707,-3.8707,-3.8707,-3.8707,-3.8707,-3.8707,-3.8707,-3.8707,-3.8707,-3.8707,-3.8707,-3.8707,-3.8707,-3.8707,0.0,0.0,-3.7147,-3.645,-3.6166,-3.487,-3.4278,-3.4111,-3.4111,-3.4111,-3.4074,-3.3863,-3.3807,-3.3807,-3.3807,-3.4123,-3.4516,-3.4516,-3.3912,-3.3106,-3.253,-3.1637,-3.0743,-3.0295,-3.0072,-2.9939,-2.9939,-2.978,-2.9696,-2.9893,-2.9939,-2.9736,-2.9092,-2.8495,-2.7821,-2.6932,-2.5947,-2.5332,-2.5496,-2.5205,-2.5018,-2.5171,-2.5182,-2.5192,-2.5224,-2.5269,-2.5308,-2.5308,-2.5308,-2.5308,-2.5308,-2.5308,-2.5308,-2.5308,-2.5308,-2.5308,-2.5308,-2.5308,-2.5308,-2.5308,-2.5308,-2.5308,-2.5308,-2.5308,-2.5308,-3.2271,-3.3238,-3.3807,-3.3807,-3.199,-2.9989,-2.9189,0.0,0.0,-2.1978,-2.0527,-1.9601,-2.0272,-2.0529,0.0,0.0,0.0,-2.5805,0.0,0.0,0.0,0.0,0.0,0.0,0.0,0.0,0.0,0.0,0.0,0.0,-3.8735,-3.8704,-3.8707,-3.8707,-3.8707,-3.8707,-3.8707,-3.8707,-3.8707,-3.8707,-3.8707,-3.8707,-3.8707,-3.8707,-3.8707,-3.8707,-3.8707,0.0,0.0,-3.7749,-3.696,-3.6211,-3.5303,-3.449,-3.3842,-3.3842,-3.3842,-3.3829,-3.382,-3.3807,-3.3807,-3.3807,-3.3842,-3.3881,-3.3881,-3.3329,-3.2717,-3.289,-3.1826,-3.0669,-3.0791,-3.0269,-2.9731,-2.9731,-2.957,-2.9474,-2.9687,-2.9731,-2.9475,-2.8642,-2.8597,-2.8451,-2.7579,-2.674,-2.6193,-2.6206,-2.5416,-2.4832,-2.4847,-2.4854,-2.4896,-2.501,-2.5198,-2.5308,-2.5308,-2.5308,-2.5308,-2.5308,-2.5308,-2.5308,-2.5308,-2.5308,-2.5308,-2.5308,-2.5308,-2.5308,-2.5308,-2.5308,-2.5308,-2.5308,-2.5308,-2.5308,-3.2161,-3.3201,-3.3678,-3.3201,-3.1262,-2.9262,-2.8466,0.0,-2.2198,-2.1867,-2.0472,-1.9554,-2.0346,-2.0503,-2.1153,0.0,0.0,0.0,0.0,0.0,0.0,0.0,0.0,0.0,0.0,0.0,0.0,0.0,0.0,0.0,-3.8707,-3.8707,-3.8707,-3.8707,-3.8707,-3.8707,-3.8707,-3.8707,-3.8707,-3.8707,-3.8707,-3.8707,-3.8707,-3.8707,-3.8707,-3.8707,-3.8707,0.0,0.0,-3.7841,-3.7033,-3.6211,-3.5334,-3.4509,-3.3807,-3.3807,-3.3807,-3.3807,-3.3807,-3.3807,-3.3807,-3.3807,-3.3807,-3.3807,-3.3807,-3.3587,-3.3246,-3.2865,-3.1942,-3.1027,-3.0789,-3.0112,-2.9523,-2.9523,-2.9332,-2.9225,-2.9465,-2.9523,-2.9448,-2.9236,-2.8847,-2.8449,-2.81,-2.728,-2.6704,-2.6821,-2.5984,-2.5389,-2.5514,-2.5091,-2.4814,-2.4864,-2.5024,-2.5163,-2.5279,-2.5308,-2.5308,-2.5308,-2.5198,-2.5111,-2.5111,-2.5111,-2.5111,-2.5111,-2.5248,-2.5308,-2.5308,-2.5308,-2.5308,-2.5308,-2.5308,-2.5308,-3.1152,-3.2302,-3.2944,-3.2394,-3.0418,-2.8503,0.0,-2.4695,-2.1794,-2.1794,-2.0472,-1.9554,-2.0346,-2.0503,-2.1061,0.0,0.0,-2.3923,0.0,0.0,0.0,0.0,0.0,0.0,0.0,0.0,0.0,0.0,0.0,0.0,0.0,-3.8707,-3.8707,-3.8707,-3.8707,-3.8707,-3.8707,-3.8707,-3.8707,-3.8707,-3.8707,-3.8707,-3.8707,-3.8707,-3.8707,-3.8707,0.0,0.0,0.0,-3.7841,-3.718,-3.6541,-3.5426,-3.4656,-3.4137,-3.3899,-3.3807,-3.3807,-3.3807,-3.3807,-3.3807,-3.3807,-3.3807,-3.3807,-3.3807,-3.3807,-3.3678,-3.3109,-3.2192,-3.1262,-3.0631,-2.9871,-2.9278,-2.9278,-2.9145,-2.9044,-2.9235,-2.9278,-2.9322,-2.9465,-2.9054,-2.8705,-2.8705,-2.7895,-2.7308,-2.7441,-2.6599,-2.5931,-2.582,-2.5338,-2.4901,-2.4727,-2.4795,-2.4924,-2.5138,-2.5187,-2.5214,-2.5214,-2.5122,-2.5052,-2.501,-2.5004,-2.4986,-2.4937,-2.5124,-2.5214,-2.5214,-2.5269,-2.5308,-2.5308,-2.5308,-2.5308,-2.8822,-3.021,-3.1415,-3.1415,-2.9597,-2.7816,0.0,-2.4695,-2.1794,-2.1794,-2.0472,-1.9554,-2.0346,-2.0503,-2.1061,-2.2731,-2.3006,0.0,0.0,0.0,0.0,0.0,0.0,0.0,0.0,0.0,0.0,0.0,0.0,0.0,0.0,-3.8707,-3.8707,-3.8707,-3.8707,-3.8707,-3.8707,-3.8707,-3.8707,-3.8707,-3.8707,-3.8707,-3.8707,-3.8707,-3.8707,0.0,0.0,0.0,0.0,-3.7841,-3.7492,-3.7327,-3.5646,-3.5004,-3.4894,-3.41,-3.3807,-3.3807,-3.3807,-3.3807,-3.3807,-3.3807,-3.3807,-3.3807,-3.3807,-3.3807,-3.3807,-3.3788,-3.2632,-3.1231,-3.0411,-2.9622,-2.9005,-2.9005,-2.9005,-2.9005,-2.9005,-2.9005,-2.9005,-2.9017,-2.9214,-2.9394,-2.9394,-2.8677,-2.809,-2.809,-2.7222,-2.63,-2.5513,-2.5403,-2.517,-2.4571,-2.4503,-2.4583,-2.479,-2.4936,-2.501,-2.501,-2.5198,-2.5208,-2.5016,-2.5004,-2.4949,-2.4804,-2.4924,-2.501,-2.4991,-2.5208,-2.5308,-2.5308,-2.5308,-2.5308,-2.7805,-2.8962,-2.9641,-2.9072,-2.7952,-2.6833,-2.6292,-2.3906,-2.1794,-2.1794,-2.0472,-1.9554,-2.0346,-2.0052,-2.0592,-2.3364,-2.3354,0.0,0.0,0.0,0.0,0.0,0.0,0.0,0.0,0.0,0.0,0.0,0.0,0.0,0.0,-3.8707,-3.8707,-3.8707,-3.8707,-3.8707,-3.8707,-3.8707,-3.8707,-3.8707,-3.8707,-3.8707,-3.8707,-3.8707,0.0,0.0,0.0,0.0,0.0,-3.8432,-3.7661,-3.6615,-3.6101,-3.5202,-3.4156,-3.3899,-3.3807,-3.3807,-3.3807,-3.3807,-3.3807,-3.3807,-3.3807,-3.3807,-3.3807,-3.3807,-3.3697,-3.3115,-3.2601,-3.1916,-3.0558,-3.0008,-2.9684,-2.9133,-2.9005,-2.9005,-2.9005,-2.9005,-2.9005,-2.9005,-2.9067,-2.9134,-2.9134,-2.8894,-2.8728,-2.8728,-2.797,-2.7328,-2.7082,-2.6557,-2.5927,-2.5188,-2.5133,-2.5031,-2.4832,-2.4835,-2.485,-2.485,-2.478,-2.4715,-2.4655,-2.4666,-2.4636,-2.4591,-2.4771,-2.485,-2.485,-2.4923,-2.4968,-2.4968,-2.4968,-2.5012,-2.5742,-2.6962,-2.7585,-2.7402,-2.6502,-2.5546,-2.4925,-2.2922,-2.1178,-2.108,-2.0051,-1.9427,-2.0248,-2.0305,-2.1005,-2.3364,-2.3584,0.0,0.0,0.0,0.0,0.0,0.0,0.0,0.0,0.0,0.0,0.0,0.0,0.0,0.0,-3.8707,-3.8707,-3.8707,-3.8707,-3.8707,-3.8707,-3.8707,-3.8707,-3.8707,-3.8707,-3.8707,-3.8707,-3.8707,0.0,0.0,0.0,0.0,0.0,-3.8377,-3.7661,-3.6703,-3.6064,-3.5183,-3.4229,-3.3917,-3.3807,-3.3807,-3.3807,-3.3807,-3.3807,-3.3807,-3.3807,-3.3807,-3.3807,-3.3807,-3.3697,-3.3201,-3.2821,-3.2289,-3.0999,-3.043,-3.0008,-2.9189,-2.9005,-2.9005,-2.9005,-2.9005,-2.9005,-2.9005,-2.9005,-2.9005,-2.9005,-2.9005,-2.9005,-2.9005,-2.8565,-2.8136,-2.7842,-2.7365,-2.6741,-2.5944,-2.5852,-2.5751,-2.5497,-2.4987,-2.4685,-2.4685,-2.4639,-2.4575,-2.4503,-2.4503,-2.4461,-2.4393,-2.4575,-2.4685,-2.4685,-2.476,-2.4804,-2.4804,-2.4804,-2.4842,0.0,-2.4265,-2.5279,-2.602,-2.5086,-2.3919,-2.3663,-2.1827,0.0,-1.9854,-1.9371,-1.9272,-2.012,-2.106,-2.2033,-2.3006,-2.3804,0.0,0.0,0.0,0.0,0.0,0.0,0.0,0.0,0.0,0.0,0.0,0.0,0.0,0.0,-3.8707,-3.8707,-3.8707,-3.8707,-3.8707,-3.8707,-3.8707,-3.8707,-3.8707,-3.8707,-3.8707,-3.8707,-3.8707,0.0,0.0,0.0,0.0,0.0,-3.7841,-3.7474,-3.7254,-3.5628,-3.4968,-3.4821,-3.4082,-3.3807,-3.3807,-3.3807,-3.3807,-3.3807,-3.3807,-3.3807,-3.3807,-3.3807,-3.3807,-3.3807,-3.3807,-3.3256,-3.2491,-3.1623,-3.0852,-3.0081,-2.9207,-2.9005,-2.9005,-2.9005,-2.9005,-2.9005,-2.9005,-2.9005,-2.9005,-2.9005,-2.9005,-2.9005,-2.9005,-2.9005,-2.873,-2.797,-2.7879,-2.7585,-2.6778,-2.6686,-2.6657,-2.6602,-2.5356,-2.4552,-2.4552,-2.4692,-2.467,-2.4486,-2.4478,-2.4393,-2.4199,-2.4384,-2.4478,-2.4478,-2.4662,-2.476,-2.476,-2.476,-2.4768,-2.0104,0.0,-2.2083,-2.2262,-2.2029,-2.1739,0.0,-2.0743,-1.9874,-1.9814,-1.9371,-1.9434,-2.087,-2.0951,-2.1694,-2.4401,0.0,0.0,0.0,0.0,0.0,0.0,0.0,0.0,0.0,0.0,0.0,0.0,0.0,0.0,0.0,-3.8707,-3.8707,-3.8707,-3.8707,-3.8707,-3.8707,-3.8707,-3.8707,-3.8707,-3.8707,-3.8707,-3.8707,-3.8707,0.0,0.0,0.0,0.0,-3.8634,-3.7841,-3.7144,-3.6468,-3.5408,-3.4619,-3.4064,-3.3862,-3.3807,-3.3807,-3.3807,-3.3807,-3.3807,-3.3807,-3.3807,-3.3807,-3.3807,-3.3807,-3.3807,-3.3807,-3.366,-3.3183,-3.1782,-3.1268,-3.076,-2.9335,-2.9005,-2.9005,-2.9005,-2.9005,-2.9005,-2.9005,-2.9005,-2.9005,-2.9005,-2.9005,-2.9005,-2.9005,-2.9005,-2.8932,-2.873,-2.8712,-2.84,-2.7603,-2.7512,-2.7273,-2.6638,-2.5737,-2.5187,-2.5187,-2.4654,-2.4321,-2.4266,-2.4266,-2.4256,-2.419,-2.4256,-2.4266,-2.4266,-2.4321,-2.433,-2.433,-2.433,-2.4409,-1.8548,-1.9797,-2.105,-2.1405,-2.1228,-2.1008,-2.122,-2.0392,-1.9637,-1.9845,0.0,0.0,0.0,0.0,0.0,0.0,-2.5688,0.0,0.0,0.0,0.0,0.0,0.0,0.0,0.0,0.0,0.0,0.0,0.0,0.0,0.0,-3.8707,-3.8707,-3.8707,-3.8707,-3.8707,-3.8707,-3.8707,-3.8707,-3.8707,-3.8707,-3.8707,-3.8707,-3.8707,-3.8707,0.0,0.0,0.0,-3.8083,-3.729,-3.645,-3.561,-3.4784,-3.4192,-3.3807,-3.3807,-3.3807,-3.3807,-3.3807,-3.3807,-3.3807,-3.3807,-3.3807,-3.3807,-3.3807,-3.3807,-3.3807,-3.3807,-3.3807,-3.3513,-3.2265,-3.1678,-3.1091,-2.9861,-2.9262,-2.9005,-2.9005,-2.9005,-2.9005,-2.9005,-2.9005,-2.9005,-2.9005,-2.9005,-2.9005,-2.9005,-2.9005,-2.9005,-2.9005,-2.9005,-2.8822,-2.8411,-2.8356,-2.8172,-2.7739,-2.6961,-2.6347,-2.597,-2.5209,-2.475,-2.475,-2.4401,-2.419,-2.419,-2.419,-2.419,-2.419,-2.419,-2.419,-2.419,-2.419,-2.4266,-1.7946,-1.9331,-2.0892,-2.1472,-2.1185,-2.0879,-2.1274,0.0,0.0,0.0,0.0,0.0,0.0,-2.2507,0.0,0.0,0.0,0.0,0.0,0.0,0.0,0.0,0.0,0.0,0.0,0.0,0.0,0.0,0.0,0.0,0.0,-3.8707,-3.8707,-3.8707,-3.8707,-3.8707,-3.8707,-3.8707,-3.8707,-3.8707,-3.8707,-3.8707,-3.8707,-3.8707,-3.8707,0.0,0.0,0.0,-3.7621,-3.667,-3.5862,-3.5114,-3.4174,-3.3807,-3.3807,-3.3807,-3.3807,-3.3807,-3.3807,-3.3807,-3.3807,-3.3807,-3.3807,-3.3807,-3.3807,-3.3807,-3.3807,-3.3807,-3.3807,-3.3605,-3.2803,-3.21,-3.1347,-3.043,-2.9684,-2.9152,-2.9023,-2.9005,-2.9005,-2.9005,-2.9005,-2.9005,-2.9005,-2.9005,-2.9005,-2.9005,-2.9005,-2.9005,-2.9005,-2.9005,-2.9005,-2.9005,-2.9005,-2.9005,-2.9005,-2.8374,-2.7695,-2.7005,-2.6098,-2.5521,-2.5411,-2.464,-2.419,-2.419,-2.419,-2.419,-2.419,-2.419,-2.419,-2.419,-2.419,-2.419,-1.8555,-1.9423,-2.0011,-1.9519,-1.978,-2.0169,-2.0221,-2.0073,0.0,0.0,0.0,0.0,0.0,0.0,0.0,0.0,0.0,0.0,0.0,0.0,0.0,0.0,0.0,0.0,0.0,0.0,0.0,0.0,0.0,0.0,0.0,-3.8707,-3.8707,-3.8707,-3.8707,-3.8707,-3.8707,-3.8707,-3.8707,-3.8707,-3.8707,-3.8707,-3.8707,-3.8707,-3.8707,0.0,0.0,-3.8634,-3.8395,-3.6909,-3.6211,-3.5954,-3.4394,-3.3807,-3.3807,-3.3807,-3.3807,-3.3807,-3.3807,-3.3807,-3.3807,-3.3807,-3.3807,-3.3807,-3.3807,-3.3807,-3.3807,-3.3807,-3.3807,-3.3605,-3.2803,-3.2509,-3.2045,-3.0558,-3.0118,-2.9831,-2.9152,-2.9005,-2.9005,-2.9005,-2.9005,-2.9005,-2.9005,-2.9005,-2.9005,-2.9005,-2.9005,-2.9005,-2.9005,-2.9005,-2.9005,-2.9005,-2.9005,-2.9005,-2.9005,-2.8895,-2.8767,-2.8638,-2.7244,-2.6098,-2.5429,-2.464,-2.419,-2.419,-2.419,-2.419,-2.419,-2.419,-2.419,-2.419,-2.419,-2.419,-1.8205,-1.9135,-1.9917,-1.9575,-2.0369,-2.135,-2.1738,-2.184,0.0,0.0,0.0,0.0,0.0,0.0,0.0,0.0,0.0,0.0,0.0,0.0,0.0,0.0,0.0,0.0,0.0,0.0,0.0,0.0,0.0,0.0,0.0,0.0,-3.8707,-3.8707,-3.8707,-3.8707,-3.8707,-3.8707,-3.8707,-3.8707,-3.8707,-3.8707,-3.8707,-3.8707,-3.8707,-3.8707,0.0,-3.845,-3.7955,-3.678,-3.6028,-3.5481,-3.4266,-3.3807,-3.3807,-3.3807,-3.3807,-3.3807,-3.3807,-3.3807,-3.3807,-3.3807,-3.3807,-3.3807,-3.3807,-3.3807,-3.3807,-3.3807,-3.3807,-3.3715,-3.3348,-3.2931,-3.2289,-3.1127,-3.0522,-2.9989,-2.917,-2.9005,-2.9005,-2.9005,-2.9005,-2.9005,-2.9005,-2.9005,-2.9005,-2.9005,-2.9005,-2.9005,-2.9005,-2.9005,-2.9005,-2.9005,-2.9005,-2.9005,-2.9005,-2.9005,-2.8803,-2.8374,-2.7658,-2.6888,-2.608,-2.5283,-2.4842,-2.4842,-2.441,-2.419,-2.419,-2.419,-2.419,-2.419,-2.419,-2.419,-1.8014,-1.9017,-2.0052,-2.0234,0.0,-2.2533,-2.3444,-2.3661,0.0,0.0,0.0,0.0,0.0,0.0,0.0,0.0,0.0,0.0,0.0,0.0,0.0,0.0,0.0,0.0,0.0,0.0,0.0,0.0,0.0,0.0,0.0,0.0,-3.8707,-3.8707,-3.8707,-3.8707,-3.8707,-3.8707,-3.8707,-3.8707,-3.8707,-3.8707,-3.8707,-3.8707,-3.8707,-3.8707,-3.8707,-3.823,-3.7437,-3.6615,-3.5789,-3.4931,-3.4119,-3.3807,-3.3793,-3.3694,-3.3721,-3.3793,-3.3694,-3.3721,-3.3807,-3.3807,-3.3807,-3.3807,-3.3807,-3.3734,-3.368,-3.3762,-3.3734,-3.368,-3.378,-3.3348,-3.2687,-3.1861,-3.1072,-3.0265,-2.9445,-2.9133,-2.9005,-2.9005,-2.9005,-2.9005,-2.9005,-2.9005,-2.9005,-2.9005,-2.9005,-2.9005,-2.9005,-2.9005,-2.9005,-2.9005,-2.9005,-2.9005,-2.9005,-2.9005,-2.873,-2.8117,-2.7897,-2.7512,-2.6906,-2.6109,-2.5686,-2.5686,-2.4897,-2.4493,-2.4493,-2.4281,-2.419,-2.419,-2.419,-2.419,-1.864,-1.9389,-2.0183,-2.0936,-2.1701,-2.2682,-2.4101,-2.4423,0.0,-2.6251,0.0,0.0,0.0,0.0,0.0,0.0,0.0,0.0,0.0,0.0,0.0,0.0,0.0,0.0,0.0,0.0,0.0,0.0,0.0,0.0,0.0,0.0,0.0,-3.8707,-3.8707,-3.8707,-3.8707,-3.8707,-3.8707,-3.8707,-3.8707,-3.8707,-3.8707,-3.8707,-3.8707,-3.8707,-3.8707,-3.823,-3.7437,-3.6615,-3.5789,-3.4931,-3.4119,-3.3807,-3.3748,-3.3375,-3.348,-3.3748,-3.3361,-3.3494,-3.3807,-3.3807,-3.3807,-3.3807,-3.3807,-3.3536,-3.3317,-3.3694,-3.3536,-3.3332,-3.3707,-3.3752,-3.3513,-3.2693,-3.1898,-3.1091,-3.0283,-2.9537,-2.9005,-2.9005,-2.9005,-2.9005,-2.9005,-2.9005,-2.9005,-2.9005,-2.9005,-2.9005,-2.9005,-2.9005,-2.9005,-2.9005,-2.9005,-2.9005,-2.9005,-2.9005,-2.8987,-2.8932,-2.8209,-2.778,-2.7725,-2.6943,-2.6521,-2.6521,-2.5723,-2.5301,-2.5301,-2.4566,-2.419,-2.419,-2.419,-2.419,-1.8138,-1.9452,-2.0703,-2.05,-2.2073,0.0,0.0,-2.5896,-2.6979,-2.8501,-2.9178,0.0,0.0,0.0,0.0,0.0,0.0,0.0,0.0,0.0,0.0,0.0,0.0,0.0,0.0,0.0,0.0,0.0,0.0,0.0,0.0,0.0,0.0,-3.8707,-3.8212,-3.7936,-3.7936,-3.7459,-3.7202,-3.7221,-3.823,-3.8432,-3.7955,-3.8129,-3.7927,-3.7459,-3.768,-3.7478,-3.693,-3.6131,-3.5501,-3.4931,-3.4119,-3.3807,-3.3748,-3.3346,-3.3288,-3.3361,-3.2919,-3.2856,-3.3042,-3.3332,-3.3437,-3.348,-3.3721,-3.3522,-3.3229,-3.3375,-3.3105,-3.2919,-3.362,-3.3807,-3.3605,-3.2784,-3.199,-3.1182,-3.0375,-2.9574,-2.9005,-2.9005,-2.9005,-2.9005,-2.9005,-2.9005,-2.9005,-2.9005,-2.9005,-2.9005,-2.9005,-2.9005,-2.9005,-2.9005,-2.9005,-2.9005,-2.9005,-2.9005,-2.8887,-2.8645,-2.8589,-2.8546,-2.8546,-2.7769,-2.7346,-2.7346,-2.6308,-2.5652,-2.5393,-2.484,-2.4429,-2.419,-2.419,-2.419,-1.785,-1.9452,-2.1123,-2.0809,0.0,0.0,-2.6031,-2.7266,-2.8687,-3.0429,-3.119,0.0,0.0,0.0,0.0,0.0,0.0,0.0,0.0,0.0,0.0,0.0,0.0,0.0,0.0,0.0,0.0,0.0,0.0,0.0,0.0,0.0,0.0,0.0,-3.7786,-3.7382,-3.7125,-3.6593,-3.6227,-3.6087,-3.7344,-3.7643,-3.7129,-3.7168,-3.6865,-3.6363,-3.6435,-3.6203,-3.5712,-3.5156,-3.465,-3.4152,-3.359,-3.339,-3.3328,-3.2919,-3.2856,-3.2903,-3.2433,-3.2384,-3.255,-3.2856,-3.2983,-3.3029,-3.3299,-3.3087,-3.2793,-3.2937,-3.2648,-3.245,-3.3211,-3.339,-3.3288,-3.289,-3.1986,-3.1099,-3.0662,-2.9739,-2.9005,-2.9005,-2.8905,-2.8851,-2.8982,-2.8887,-2.8851,-2.8982,-2.9005,-2.9005,-2.9005,-2.8893,-2.8761,-2.8663,-2.8737,-2.8761,-2.8663,-2.887,-2.8773,-2.8277,-2.8608,-2.8815,-2.8815,-2.828,-2.8052,-2.8172,-2.7116,-2.6368,-2.5961,-2.5204,-2.4624,-2.4228,-2.4095,-2.4036,-1.8003,-1.9469,-2.1376,0.0,0.0,0.0,-2.7317,-2.8433,-2.9653,-3.187,0.0,-3.2327,0.0,0.0,0.0,0.0,0.0,0.0,0.0,0.0,0.0,0.0,0.0,0.0,0.0,0.0,0.0,0.0,0.0,0.0,0.0,0.0,0.0,0.0,-3.7459,-3.7074,-3.627,-3.6285,-3.6021,-3.5578,-3.6035,-3.6285,-3.627,-3.5805,-3.5596,-3.5546,-3.5096,-3.4428,-3.3684,-3.3684,-3.3224,-3.2501,-3.2501,-3.2501,-3.2451,-3.1969,-3.2092,-3.2434,-3.1968,-3.2092,-3.2484,-3.2484,-3.2501,-3.2501,-3.2501,-3.2161,-3.1897,-3.2367,-3.2161,-3.1897,-3.2367,-3.2484,-3.2599,-3.3075,-3.1964,-3.0912,-3.1309,-3.0143,-2.9012,-2.8994,-2.8688,-2.8527,-2.8929,-2.8658,-2.854,-2.8929,-2.8994,-2.8994,-2.8994,-2.8645,-2.8277,-2.794,-2.8197,-2.8264,-2.794,-2.8576,-2.8676,-2.794,-2.821,-2.8394,-2.8407,-2.8407,-2.8577,-2.8982,-2.8198,-2.7593,-2.7199,-2.5648,-2.47,-2.4295,-2.3898,-2.371,-1.8273,-1.9676,0.0,-2.275,0.0,0.0,0.0,-3.0006,0.0,0.0,0.0,0.0,0.0,0.0,0.0,0.0,0.0,0.0,0.0,0.0,0.0,0.0,0.0,0.0,0.0,0.0,0.0,0.0,0.0,0.0,0.0,0.0,0.0,0.0,-3.5589,-3.4707,-3.4458,-3.3904,-3.3555,-3.3424,-3.3571,-3.3922,-3.4476,-3.4864,-3.457,-3.3757,-3.3829,-3.36,-3.3192,-3.2948,-3.273,-3.2501,-3.2501,-3.2501,-3.2451,-3.1969,-3.188,-3.195,-3.1526,-3.1468,-3.1638,-3.1915,-3.2004,-3.2057,-3.2401,-3.2161,-3.1843,-3.1969,-3.1696,-3.1411,-3.1562,-3.16,-3.1786,-3.2534,-3.1898,-3.1042,-3.0653,-3.0386,-2.9929,-2.8813,-2.8936,-2.9109,-2.8656,-2.8277,-2.8088,-2.8215,-2.8425,-2.8577,-2.8577,-2.8471,-2.8277,-2.794,-2.7996,-2.8006,-2.7911,-2.8106,-2.8006,-2.75,-2.7557,-2.7747,-2.8034,-2.8047,-2.8088,-2.8215,-2.7719,-2.7246,-2.6837,-2.6106,-2.5542,-2.5129,-2.4429,-2.4117,-1.8913,-2.0525,0.0,-2.39,-2.5727,-2.7892,-3.0768,0.0,0.0,0.0,0.0,0.0,0.0,0.0,0.0,0.0,0.0,0.0,0.0,0.0,0.0,0.0,0.0,0.0,0.0,0.0,0.0,0.0,0.0,0.0,0.0,0.0,0.0,0.0,-3.4351,-3.3543,-3.3224,-3.2747,-3.2417,-3.2213,-3.2417,-3.2579,-3.2736,-3.3317,-3.321,-3.2533,-3.2528,-3.2437,-3.2271,-3.2068,-3.1986,-3.1986,-3.1986,-3.1986,-3.195,-3.1677,-3.1547,-3.1526,-3.1291,-3.119,-3.1249,-3.147,-3.1547,-3.1621,-3.1896,-3.1787,-3.1547,-3.1547,-3.1389,-3.119,-3.119,-3.119,-3.137,-3.2057,-3.1617,-3.0949,-3.0684,-3.0581,-3.0248,-2.9265,-2.9344,-2.9354,-2.8729,-2.834,-2.8062,-2.7922,-2.8061,-2.8139,-2.797,-2.7956,-2.7833,-2.7454,-2.7577,-2.7607,-2.7441,-2.7725,-2.7648,-2.7099,-2.721,-2.735,-2.7409,-2.7592,-2.7739,-2.7897,-2.7648,-2.735,-2.6938,-2.6407,-2.592,-2.5524,-2.4881,-2.4581,-1.9626,0.0,0.0,-2.5304,-2.6962,0.0,0.0,0.0,0.0,0.0,0.0,0.0,0.0,0.0,0.0,0.0,0.0,0.0,0.0,0.0,0.0,0.0,0.0,0.0,0.0,0.0,0.0,0.0,0.0,0.0,0.0,0.0,0.0,-3.3668,-3.3546,-3.3123,-3.2401,-3.2384,-3.2179,0.0,-3.2179,-3.1985,-3.121,-3.1621,-3.1789,-3.1716,-3.1351,-3.119,-3.119,-3.119,-3.119,-3.119,-3.119,-3.119,-3.119,-3.119,-3.119,-3.119,-3.119,-3.119,-3.119,-3.119,-3.119,-3.119,-3.119,-3.119,-3.119,-3.119,-3.119,-3.119,-3.119,-3.119,-3.1291,-3.166,-3.1181,-3.0733,-3.1106,-3.0695,-3.0201,-3.0061,-2.9807,-2.9483,-2.9022,-2.8621,-2.8235,-2.7888,-2.7855,-2.7707,-2.735,-2.7303,-2.7147,-2.6741,-2.7036,-2.7099,-2.6725,-2.7363,-2.747,-2.6741,-2.7035,-2.7083,-2.6708,-2.7051,-2.7426,-2.7779,-2.7797,-2.7604,-2.7239,-2.6565,-2.6055,-2.5693,-2.5268,-2.5052,-1.9009,-2.0841,0.0,0.0,0.0,0.0,0.0,0.0,0.0,0.0,0.0,0.0,0.0,0.0,0.0,0.0,0.0,0.0,0.0,0.0,0.0,0.0,0.0,0.0,0.0,0.0,0.0,0.0,0.0,0.0,0.0,0.0,0.0,-3.3208,-3.2264,-3.1658,-3.1485,-3.1485,-3.1428,0.0,-3.1428,-3.137,-3.121,-3.1621,-3.164,-3.1312,-3.1249,-3.119,-3.119,-3.119,-3.119,-3.119,-3.119,-3.119,-3.119,-3.119,-3.119,-3.119,-3.119,-3.119,-3.119,-3.119,-3.119,-3.119,-3.119,-3.119,-3.119,-3.119,-3.119,-3.119,-3.119,-3.119,-3.123,-3.131,-3.1193,-3.094,-3.0457,-3.092,-3.1081,-2.9865,-3.0057,-3.004,-2.8753,-2.8201,-2.781,-2.7485,-2.7424,-2.7394,-2.7319,-2.7303,-2.7147,-2.6741,-2.6775,-2.6791,-2.6708,-2.6857,-2.689,-2.6708,-2.6791,-2.6791,-2.6708,-2.6774,-2.6873,-2.6955,-2.6971,-2.6923,-2.6824,-2.6671,-2.6554,-2.6437,-2.5774,-2.5466,0.0,0.0,0.0,0.0,0.0,0.0,0.0,0.0,0.0,0.0,0.0,0.0,0.0,0.0,0.0,0.0,0.0,0.0,0.0,0.0,0.0,0.0,0.0,0.0,0.0,0.0,0.0,0.0,0.0,0.0,0.0,-3.2254,-3.1907,-3.2164,-3.1553,-3.119,-3.119,-3.119,-3.119,-3.119,-3.119,-3.119,-3.121,-3.1411,-3.1408,-3.119,-3.119,-3.119,-3.119,-3.119,-3.119,-3.119,-3.119,-3.119,-3.119,-3.119,-3.119,-3.119,-3.119,-3.119,-3.119,-3.119,-3.119,-3.119,-3.119,-3.119,-3.119,-3.119,-3.119,-3.119,-3.119,-3.119,-3.119,-3.119,-3.119,-3.1089,-3.0717,-3.1098,-3.1285,-3.0479,-3.0651,-3.0567,-2.9418,-2.8439,-2.7742,-2.757,-2.7243,-2.7003,-2.7003,-2.7003,-2.6939,-2.6725,-2.6691,-2.6691,-2.6691,-2.6691,-2.6691,-2.6691,-2.6691,-2.6691,-2.6691,-2.6691,-2.6691,-2.6691,-2.6691,-2.6691,-2.6691,-2.6691,-2.6691,-2.6691,-2.6302,-2.6133,0.0,0.0,-2.4209,0.0,0.0,0.0,0.0,0.0,0.0,0.0,0.0,0.0,0.0,0.0,0.0,0.0,0.0,0.0,0.0,0.0,0.0,0.0,0.0,0.0,0.0,0.0,0.0,0.0,0.0,0.0,-3.1224,-3.119,-3.119,-3.119,-3.119,-3.119,-3.119,-3.119,-3.119,-3.119,-3.119,-3.119,-3.119,-3.119,-3.119,-3.119,-3.119,-3.119,-3.119,-3.119,-3.119,-3.119,-3.119,-3.119,-3.119,-3.119,-3.119,-3.119,-3.119,-3.119,-3.119,-3.119,-3.119,-3.119,-3.119,-3.119,-3.119,-3.119,-3.119,-3.119,-3.119,-3.119,-3.119,-3.119,-3.119,-3.119,-3.119,-3.119,-3.119,-3.119,-3.1089,-3.0818,-3.0226,-2.8939,-2.801,-2.801,-2.7486,-2.7114,-2.7114,-2.7114,-2.7029,-2.6894,-2.6894,-2.6843,-2.6708,-2.6691,-2.6691,-2.6691,-2.6691,-2.6691,-2.6691,-2.6691,-2.6691,-2.6691,-2.6691,-2.6691,-2.6691,-2.6691,-2.6691,-2.6691,-2.6691,-2.6691,0.0,0.0,0.0,0.0,0.0,0.0,0.0,0.0,0.0,0.0,0.0,0.0,0.0,0.0,0.0,0.0,0.0,0.0,0.0,0.0,0.0,0.0,0.0,0.0,0.0,0.0,0.0,0.0,0.0,0.0,-3.1207,-3.119,-3.119,-3.119,-3.119,-3.119,-3.119,-3.119,-3.119,-3.119,-3.119,-3.119,-3.119,-3.119,-3.119,-3.119,-3.119,-3.119,-3.119,-3.119,-3.119,-3.119,-3.119,-3.119,-3.119,-3.119,-3.119,-3.119,-3.119,-3.119,-3.119,-3.119,-3.119,-3.119,-3.119,-3.119,-3.119,-3.119,-3.119,-3.119,-3.119,-3.119,-3.119,-3.119,-3.119,-3.119,-3.119,-3.119,-3.119,-3.119,-3.0683,-3.0226,-3.0125,-2.9397,-2.884,-2.884,-2.8756,-2.8688,-2.8688,-2.8688,-2.8434,-2.7722,-2.7655,-2.7384,-2.6742,-2.6691,-2.6691,-2.6691,-2.6691,-2.6691,-2.6691,-2.6691,-2.6691,-2.6691,-2.6691,-2.6691,-2.6691,-2.6691,-2.6691,-2.6691,-2.6691,-2.6691,-1.7086,0.0,0.0,0.0,0.0,0.0,0.0,0.0,0.0,0.0,0.0,0.0,0.0,0.0,0.0,0.0,0.0,0.0,0.0,0.0,0.0,0.0,0.0,0.0,0.0,0.0,0.0,0.0,0.0,-3.119,-3.119,-3.119,-3.119,-3.119,-3.119,-3.119,-3.119,-3.119,-3.119,-3.119,-3.119,-3.119,-3.119,-3.119,-3.119,-3.119,-3.119,-3.119,-3.119,-3.119,-3.119,-3.119,-3.119,-3.119,-3.119,-3.119,-3.119,-3.119,-3.119,-3.119,-3.119,-3.119,-3.119,-3.119,-3.119,-3.119,-3.119,-3.119,-3.119,-3.119,-3.119,-3.119,-3.119,-3.119,-3.119,-3.119,-3.119,-3.119,-3.119,-3.119,-3.0937,-3.0717,-3.0717,-3.0108,-2.9617,-2.9617,-2.9264,-2.8993,-2.8993,-2.8993,-2.8857,-2.8518,-2.8467,-2.8163,-2.7367,-2.7334,-2.7148,-2.6725,-2.6691,-2.6691,-2.6691,-2.6691,-2.6691,-2.6691,-2.6691,-2.6691,-2.6691,-2.6691,-2.6691,-2.6691,-2.6691,-2.6691,0.0,0.0,0.0,0.0,0.0,0.0,0.0,0.0,0.0,0.0,0.0,0.0,0.0,0.0,0.0,0.0,0.0,0.0,0.0,0.0,0.0,0.0,0.0,0.0,0.0,0.0,0.0,0.0,0.0,-3.119,-3.119,-3.119,-3.119,-3.119,-3.119,-3.119,-3.119,-3.119,-3.119,-3.119,-3.119,-3.119,-3.119,-3.119,-3.119,-3.119,-3.119,-3.119,-3.119,-3.119,-3.119,-3.119,-3.119,-3.119,-3.119,-3.119,-3.119,-3.119,-3.119,-3.119,-3.119,-3.119,-3.119,-3.119,-3.119,-3.119,-3.119,-3.119,-3.119,-3.119,-3.119,-3.119,-3.119,-3.119,-3.119,-3.119,-3.119,-3.119,-3.119,-3.119,-3.119,-3.119,-3.119,-3.0734,-3.0378,-3.0378,-2.9905,-2.9568,-2.9568,-2.9568,-2.9501,-2.9314,-2.9281,-2.8958,-2.8162,-2.7925,-2.757,-2.7012,-2.6793,-2.6691,-2.6691,-2.6691,-2.6691,-2.6691,-2.6691,-2.6691,-2.6691,-2.6691,-2.6691,-2.6691,-2.6691,-2.6691,0.0,0.0,0.0,0.0,0.0,0.0,0.0,0.0,0.0,0.0,0.0,0.0,0.0,0.0,0.0,0.0,0.0,0.0,0.0,0.0,0.0,0.0,0.0,0.0,0.0,0.0,0.0,0.0,0.0,-3.119,-3.119,-3.119,-3.119,-3.119,-3.119,-3.119,-3.119,-3.119,-3.119,-3.119,-3.119,-3.119,-3.119,-3.119,-3.119,-3.119,-3.119,-3.119,-3.119,-3.119,-3.119,-3.119,-3.119,-3.119,-3.119,-3.119,-3.119,-3.119,-3.119,-3.119,-3.119,-3.119,-3.119,-3.119,-3.119,-3.119,-3.119,-3.119,-3.119,-3.119,-3.119,-3.119,-3.119,-3.119,-3.119,-3.119,-3.119,-3.119,-3.119,-3.119,-3.119,-3.119,-3.119,-3.1157,-3.114,-3.114,-3.1106,-3.1089,-3.1089,-3.1089,-3.0818,-3.0125,-3.004,-2.9736,-2.901,-2.8247,-2.779,-2.7756,-2.7097,-2.6691,-2.6691,-2.6691,-2.6691,-2.6691,-2.6691,-2.6691,-2.6691,-2.6691,-2.6691,-2.6691,-2.6691,-2.6691,0.0,0.0,0.0,0.0,0.0,0.0,0.0,0.0,0.0,0.0,0.0,0.0,0.0,0.0,0.0,0.0,0.0,0.0,0.0,0.0,0.0,0.0,0.0,0.0,0.0,0.0,0.0,0.0,0.0,0.0,-3.119,-3.119,-3.119,-3.119,-3.119,-3.119,-3.119,-3.119,-3.119,-3.119,-3.119,-3.119,-3.119,-3.119,-3.119,-3.119,-3.119,-3.119,-3.119,-3.119,-3.119,-3.119,-3.119,-3.119,-3.119,-3.119,-3.119,-3.119,-3.119,-3.119,-3.119,-3.119,-3.119,-3.119,-3.119,-3.119,-3.119,-3.119,-3.119,-3.119,-3.119,-3.119,-3.119,-3.119,-3.119,-3.119,-3.119,-3.119,-3.119,-3.119,-3.119,-3.119,-3.119,-3.119,-3.119,-3.119,-3.119,-3.119,-3.119,-3.119,-3.1089,-3.0835,-3.0818,-3.0514,-2.977,-2.9008,-2.8349,-2.7841,-2.7114,-2.6691,-2.6691,-2.6691,-2.6691,-2.6691,-2.6691,-2.6691,-2.6691,-2.6691,-2.6691,-2.6691,-2.6691,-2.6691,-1.3794,0.0,0.0,0.0,0.0,0.0,0.0,0.0,0.0,0.0,0.0,0.0,0.0,0.0,0.0,0.0,0.0,0.0,0.0,0.0,0.0,0.0,0.0,0.0,0.0,0.0,0.0,0.0,0.0,0.0,-3.119,-3.097,-3.0717,-3.0463,-3.0465,-3.0465,-3.0465,-3.07,-3.0835,-3.0835,-3.1072,-3.119,-3.119,-3.119,-3.119,-3.119,-3.119,-3.119,-3.119,-3.119,-3.119,-3.119,-3.119,-3.119,-3.119,-3.119,-3.119,-3.119,-3.119,-3.119,-3.119,-3.119,-3.119,-3.119,-3.119,-3.119,-3.119,-3.119,-3.119,-3.119,-3.119,-3.119,-3.119,-3.119,-3.119,-3.119,-3.119,-3.119,-3.119,-3.119,-3.119,-3.119,-3.119,-3.119,-3.119,-3.119,-3.119,-3.119,-3.119,-3.119,-3.119,-3.119,-3.119,-3.1004,-3.0514,-2.9585,-2.8755,-2.8247,-2.7249,-2.6691,-2.6691,-2.6691,-2.6691,-2.6691,-2.6691,-2.6624,-2.647,-2.6624,-2.6691,-2.6691,-2.6691,-2.6691,0.0,0.0,0.0,0.0,0.0,0.0,0.0,0.0,0.0,0.0,0.0,0.0,0.0,0.0,0.0,0.0,0.0,0.0,0.0,0.0,0.0,0.0,0.0,0.0,0.0,0.0,0.0,0.0,0.0,-3.1157,-3.1157,-3.048,-2.9736,-2.9027,-2.8993,-2.8993,-2.8993,-2.9702,-3.0074,-3.0091,-3.0818,-3.1157,-3.1157,-3.119,-3.119,-3.119,-3.119,-3.119,-3.119,-3.119,-3.119,-3.119,-3.119,-3.119,-3.119,-3.119,-3.119,-3.119,-3.119,-3.119,-3.119,-3.119,-3.119,-3.119,-3.119,-3.119,-3.119,-3.119,-3.119,-3.119,-3.119,-3.119,-3.119,-3.119,-3.119,-3.119,-3.119,-3.119,-3.119,-3.119,-3.119,-3.119,-3.119,-3.119,-3.119,-3.119,-3.119,-3.119,-3.119,-3.119,-3.119,-3.119,-3.119,-3.119,-3.119,-2.9873,-2.9027,-2.9027,-2.7588,-2.6725,-2.6725,-2.6708,-2.6691,-2.6691,-2.6691,-2.6453,-2.6013,-2.647,-2.6691,-2.6674,-2.6691,-2.6691,-1.378,0.0,0.0,0.0,0.0,0.0,0.0,0.0,0.0,0.0,0.0,0.0,0.0,0.0,0.0,0.0,0.0,0.0,0.0,0.0,0.0,0.0,0.0,0.0,0.0,0.0,0.0,0.0,-3.0717,-3.0412,-3.0412,-2.9702,-2.9213,-2.901,-2.8993,-2.8993,-2.8993,-2.9213,-2.9314,-2.9314,-3.0057,-3.0412,-3.0429,-3.0954,-3.119,-3.119,-3.119,-3.119,-3.119,-3.119,-3.119,-3.119,-3.119,-3.119,-3.119,-3.119,-3.119,-3.119,-3.119,-3.119,-3.119,-3.119,-3.119,-3.119,-3.119,-3.119,-3.119,-3.119,-3.119,-3.119,-3.119,-3.119,-3.119,-3.119,-3.119,-3.119,-3.119,-3.119,-3.119,-3.119,-3.119,-3.119,-3.119,-3.119,-3.119,-3.119,-3.119,-3.119,-3.119,-3.119,-3.119,-3.119,-3.119,-3.119,-3.119,-3.0345,-2.9803,-2.9803,-2.8348,-2.7503,-2.7503,-2.6651,-2.6349,-2.6691,-2.6367,-2.6138,-2.6013,-2.647,-2.6539,-2.6209,-2.6556,-2.6691,0.0,0.0,0.0,0.0,0.0,0.0,0.0,0.0,0.0,0.0,0.0,0.0,0.0,0.0,0.0,0.0,0.0,0.0,0.0,0.0,0.0,0.0,0.0,0.0,0.0,0.0,0.0,-3.0296,-2.9871,-2.9499,-2.9159,-2.8738,-2.8349,-2.8045,-2.8045,-2.8045,-2.8045,-2.8349,-2.8501,-2.8501,-2.9279,-2.9803,-3.0106,-3.0548,-3.0903,-3.119,-3.119,-3.119,-3.119,-3.119,-3.119,-3.119,-3.119,-3.119,-3.119,-3.119,-3.119,-3.119,-3.119,-3.119,-3.119,-3.119,-3.119,-3.119,-3.119,-3.119,-3.119,-3.119,-3.1015,-3.0821,-3.0821,-3.0638,-3.0518,-3.076,-3.0638,-3.0518,-3.076,-3.0638,-3.0597,-3.1095,-3.119,-3.119,-3.119,-3.119,-3.119,-3.119,-3.119,-3.119,-3.119,-3.119,-3.1095,-3.0858,-3.0821,-3.072,-3.0477,-3.0012,-2.9713,-2.9713,-2.8526,-2.7807,-2.7807,-2.6644,-2.6138,-2.6401,-2.5908,-2.567,-2.567,-2.6157,-2.6157,-2.567,-2.6175,-2.6401,0.0,0.0,0.0,0.0,0.0,0.0,-1.9345,-1.9073,0.0,0.0,0.0,0.0,0.0,0.0,0.0,0.0,0.0,0.0,0.0,0.0,0.0,0.0,0.0,0.0,0.0,-2.8993,-2.8993,-2.8993,-2.8925,-2.8518,-2.7722,-2.7672,-2.7367,-2.6708,-2.6691,-2.6691,-2.6691,-2.7351,-2.7672,-2.7689,-2.8484,-2.9262,-2.9989,-3.0055,-3.0458,-3.1095,-3.1095,-3.1055,-3.0995,-3.0995,-3.1075,-3.119,-3.119,-3.119,-3.119,-3.119,-3.119,-3.119,-3.119,-3.119,-3.119,-3.119,-3.1151,-3.1095,-3.1095,-3.1055,-3.0995,-3.0995,-3.0617,-3.0208,-3.0208,-2.9805,-2.954,-3.0081,-2.9783,-2.954,-3.0064,-2.9783,-2.9717,-3.0797,-3.1055,-3.1095,-3.1095,-3.1151,-3.119,-3.119,-3.1151,-3.1095,-3.1095,-3.1035,-3.0818,-3.0351,-3.023,-3.0016,-2.954,-2.9328,-2.9219,-2.9219,-2.8277,-2.7766,-2.7837,-2.6535,-2.587,-2.6013,-2.5411,-2.5125,-2.5125,-2.5596,-2.5615,-2.5221,-2.5689,-2.5906,0.0,0.0,0.0,0.0,0.0,0.0,0.0,-1.7632,0.0,0.0,0.0,0.0,0.0,0.0,0.0,0.0,0.0,0.0,0.0,0.0,0.0,0.0,0.0,0.0,0.0,-2.8993,-2.8993,-2.8993,-2.8399,-2.7705,-2.6945,-2.6911,-2.6843,-2.6691,-2.6691,-2.6691,-2.6691,-2.6843,-2.6911,-2.6911,-2.7689,-2.845,-2.923,-2.9837,-3.0247,-3.0477,-3.0477,-3.0208,-2.9761,-2.9761,-3.0314,-3.119,-3.119,-3.119,-3.119,-3.119,-3.119,-3.119,-3.119,-3.119,-3.119,-3.119,-3.0878,-3.0477,-3.0477,-3.0145,-2.9761,-2.9761,-2.9673,-2.9585,-2.9585,-2.9496,-2.9429,-2.954,-2.9496,-2.9429,-2.9563,-2.9473,-2.9473,-2.9695,-3.0145,-3.0477,-3.0477,-3.0878,-3.119,-3.119,-3.0797,-3.0477,-3.0477,-3.0059,-2.9892,-3.0251,-2.9886,-2.9717,-3.0102,-2.9653,-2.9353,-2.9353,-2.8123,-2.759,-2.8034,-2.5894,-2.5125,-2.5979,-2.5047,-2.4552,-2.4552,-2.4657,-2.4875,-2.5202,-2.5316,-2.5354,0.0,0.0,0.0,-1.9283,0.0,0.0,0.0,0.0,0.0,0.0,0.0,0.0,0.0,0.0,0.0,0.0,0.0,0.0,0.0,0.0,0.0,0.0,0.0,0.0,0.0,-2.73,-2.7452,-2.7842,-2.7469,-2.7097,-2.6708,-2.6691,-2.6691,-2.6691,-2.6691,-2.6691,-2.6691,-2.6691,-2.6691,-2.6691,-2.708,-2.7672,-2.8416,-2.855,-2.9018,-2.9729,-2.9482,-2.9378,-2.9406,-2.9406,-2.9761,-3.0293,-3.0293,-3.0293,-3.0293,-3.0293,-3.0497,-3.074,-3.074,-3.0938,-3.1151,-3.0858,-3.0539,-3.0251,-2.9935,-2.9651,-2.9406,-2.9406,-2.918,-2.8966,-2.8966,-2.8732,-2.8591,-2.8896,-2.8717,-2.8591,-2.8896,-2.8717,-2.8496,-2.8496,-2.8996,-2.9496,-2.9805,-3.0102,-3.0293,-3.0293,-3.0043,-2.9848,-2.9848,-2.9585,-2.9406,-2.9406,-2.9134,-2.895,-2.8957,-2.895,-2.8966,-2.8966,-2.824,-2.7768,-2.7701,-2.5899,-2.4869,-2.4812,-2.4266,-2.3991,-2.3991,-2.3991,-2.4137,-2.441,-2.4692,-2.4796,0.0,0.0,0.0,0.0,0.0,-1.9765,0.0,0.0,0.0,0.0,0.0,0.0,0.0,0.0,0.0,0.0,0.0,0.0,0.0,0.0,0.0,0.0,0.0,0.0,0.0,-2.5206,-2.5458,-2.6101,-2.61,-2.6151,-2.6354,-2.6455,-2.6539,-2.6691,-2.6691,-2.6691,-2.6691,-2.6691,-2.6691,-2.6691,-2.6691,-2.7097,-2.7789,-2.7306,-2.78,-2.9005,-2.8447,-2.8558,-2.9065,-2.9065,-2.9065,-2.9088,-2.9316,-2.9406,-2.9406,-2.9406,-2.9717,-3.0123,-3.0123,-3.0456,-3.076,-3.0293,-3.0059,-2.9848,-2.9248,-2.9065,-2.9065,-2.9065,-2.8709,-2.8334,-2.8334,-2.7968,-2.771,-2.8213,-2.7944,-2.7735,-2.8238,-2.7944,-2.76,-2.76,-2.7993,-2.8511,-2.9111,-2.9316,-2.9406,-2.9406,-2.9293,-2.9225,-2.9225,-2.9134,-2.8904,-2.8535,-2.8407,-2.8189,-2.781,-2.8116,-2.8334,-2.8334,-2.8099,-2.7727,-2.7158,-2.5873,-2.4698,-2.361,-2.3595,-2.3595,-2.3595,-2.3595,-2.3595,-2.3595,-2.4032,-2.4246,0.0,0.0,0.0,0.0,-2.1889,0.0,0.0,0.0,0.0,0.0,0.0,0.0,0.0,0.0,0.0,0.0,0.0,0.0,0.0,0.0,0.0,0.0,0.0,0.0,0.0,0.0,-2.3814,-2.4199,-2.3936,-2.4184,-2.5145,-2.553,-2.6031,-2.6674,-2.6691,-2.6691,-2.6691,-2.6691,-2.6691,-2.6691,-2.6691,-2.7097,-2.7789,-2.7306,-2.7584,-2.8377,-2.785,-2.7696,-2.7795,-2.7795,-2.7795,-2.7919,-2.8973,-2.9406,-2.9406,-2.9406,-2.9451,-2.9496,-2.9496,-2.954,-2.9585,-2.9518,-2.9134,-2.8606,-2.7993,-2.7795,-2.7795,-2.7795,-2.776,-2.771,-2.771,-2.7635,-2.7625,-2.77,-2.7635,-2.7625,-2.7685,-2.765,-2.76,-2.76,-2.7675,-2.7894,-2.8511,-2.9058,-2.9406,-2.9406,-2.8943,-2.8606,-2.8606,-2.814,-2.7993,-2.8439,-2.8018,-2.7894,-2.8359,-2.7968,-2.771,-2.771,-2.7127,-2.6709,-2.6519,-2.5232,-2.4234,-2.3595,-2.3595,-2.3595,-2.3595,-2.3595,-2.3595,-2.3595,-2.3659,-2.3702,0.0,0.0,0.0,0.0,0.0,0.0,-2.0255,0.0,-1.9663,0.0,0.0,0.0,0.0,0.0,0.0,0.0,0.0,0.0,0.0,0.0,0.0,0.0,0.0,0.0,0.0,0.0,0.0,0.0,0.0,-2.3079,-2.3909,-2.4471,-2.5057,-2.5681,-2.6098,-2.6297,-2.6297,-2.6297,-2.6139,-2.5819,-2.5819,-2.5983,-2.626,-2.5786,-2.6134,-2.7158,-2.6612,-2.6853,-2.76,-2.76,-2.76,-2.7635,-2.8149,-2.8352,-2.8352,-2.8352,-2.8567,-2.8873,-2.8873,-2.9111,-2.9339,-2.8989,-2.8463,-2.7919,-2.7675,-2.76,-2.76,-2.76,-2.76,-2.76,-2.76,-2.76,-2.76,-2.76,-2.76,-2.76,-2.76,-2.76,-2.76,-2.76,-2.76,-2.7685,-2.7919,-2.8198,-2.8352,-2.8352,-2.8125,-2.7984,-2.7984,-2.776,-2.7685,-2.7944,-2.776,-2.771,-2.7959,-2.7735,-2.76,-2.76,-2.6626,-2.5978,-2.5948,-2.4635,-2.3837,-2.3595,-2.3595,-2.3595,-2.3595,-2.3595,-2.3595,-2.3595,-2.3595,-2.3595,-2.2847,0.0,0.0,0.0,0.0,0.0,0.0,0.0,0.0,0.0,0.0,0.0,0.0,0.0,0.0,0.0,0.0,0.0,0.0,0.0,0.0,0.0,0.0,0.0,0.0,0.0,0.0,0.0,0.0,0.0,-2.2681,-2.3471,-2.4168,-2.4769,-2.5439,-2.5781,-2.5781,-2.5781,-2.5596,-2.5202,-2.5202,-2.5202,-2.5182,-2.482,-2.5313,-2.637,-2.6014,-2.6512,-2.76,-2.76,-2.76,-2.76,-2.76,-2.76,-2.76,-2.76,-2.7885,-2.8262,-2.8262,-2.8543,-2.8834,-2.8391,-2.7944,-2.76,-2.76,-2.76,-2.76,-2.76,-2.76,-2.76,-2.76,-2.76,-2.76,-2.76,-2.76,-2.76,-2.76,-2.76,-2.76,-2.76,-2.76,-2.76,-2.76,-2.76,-2.76,-2.76,-2.76,-2.76,-2.76,-2.76,-2.76,-2.76,-2.76,-2.76,-2.76,-2.76,-2.76,-2.76,-2.6497,-2.5794,-2.5615,-2.4492,-2.3789,-2.3595,-2.3595,-2.3595,-2.3595,-2.3595,-2.3595,-2.3595,-2.3595,-2.3595,0.0,0.0,0.0,-2.2338,0.0,0.0,0.0,0.0,-2.1261,0.0,0.0,0.0,0.0,0.0,0.0,0.0,0.0,0.0,0.0,0.0,0.0,0.0,0.0,0.0,0.0,0.0,0.0,0.0,0.0,0.0,-2.1463,-2.2572,-2.3472,-2.4202,-2.4871,-2.524,-2.524,-2.524,-2.5221,-2.5202,-2.5202,-2.5202,-2.5198,-2.5331,-2.5756,-2.6423,-2.652,-2.6971,-2.76,-2.76,-2.76,-2.76,-2.76,-2.76,-2.76,-2.76,-2.761,-2.7625,-2.7625,-2.7635,-2.766,-2.765,-2.7625,-2.76,-2.76,-2.76,-2.76,-2.76,-2.76,-2.76,-2.76,-2.76,-2.76,-2.76,-2.76,-2.76,-2.76,-2.76,-2.76,-2.76,-2.76,-2.76,-2.76,-2.76,-2.76,-2.76,-2.76,-2.76,-2.76,-2.76,-2.76,-2.76,-2.76,-2.76,-2.76,-2.76,-2.76,-2.76,-2.6956,-2.6273,-2.563,-2.4933,-2.4261,-2.361,-2.3595,-2.3595,-2.3595,-2.3595,-2.3595,-2.3595,-2.3595,-2.3595,0.0,0.0,-2.5719,-2.3505,0.0,0.0,0.0,0.0,0.0,0.0,0.0,0.0,0.0,0.0,0.0,0.0,0.0,0.0,0.0,0.0,0.0,0.0,0.0,0.0,0.0,0.0,0.0,0.0,0.0,0.0,0.0,-2.1488,-2.2423,-2.2985,-2.408,-2.4672,-2.4672,-2.4672,-2.4491,-2.4137,-2.4137,-2.4137,-2.4152,-2.4635,-2.5243,-2.5909,-2.6399,-2.6986,-2.76,-2.76,-2.76,-2.76,-2.76,-2.76,-2.76,-2.76,-2.76,-2.76,-2.76,-2.76,-2.76,-2.76,-2.76,-2.76,-2.76,-2.76,-2.76,-2.76,-2.76,-2.76,-2.76,-2.76,-2.76,-2.76,-2.76,-2.76,-2.76,-2.76,-2.76,-2.76,-2.76,-2.76,-2.76,-2.76,-2.76,-2.76,-2.76,-2.76,-2.76,-2.76,-2.76,-2.76,-2.76,-2.76,-2.76,-2.76,-2.76,-2.76,-2.6986,-2.6303,-2.563,-2.4948,-2.4276,-2.361,-2.3595,-2.3595,-2.3595,-2.3595,-2.3595,-2.3595,-2.3595,-2.3595,-2.6019,-2.6273,0.0,-2.4403,-2.3969,0.0,-2.1515,0.0,0.0,0.0,0.0,0.0,0.0,0.0,0.0,0.0,0.0,0.0,0.0,0.0,0.0,0.0,0.0,0.0,0.0,0.0,-1.6488,-1.7624,0.0,0.0,0.0,0.0,-2.1581,-2.2145,-2.3217,-2.3907,-2.4116,-2.4116,-2.3927,-2.3595,-2.3595,-2.3595,-2.3625,-2.453,-2.5187,-2.5659,-2.6557,-2.721,-2.76,-2.76,-2.76,-2.76,-2.76,-2.76,-2.76,-2.76,-2.76,-2.76,-2.76,-2.76,-2.76,-2.76,-2.76,-2.76,-2.76,-2.76,-2.76,-2.76,-2.76,-2.76,-2.76,-2.76,-2.76,-2.76,-2.76,-2.76,-2.76,-2.76,-2.76,-2.76,-2.76,-2.76,-2.76,-2.76,-2.76,-2.76,-2.76,-2.76,-2.76,-2.76,-2.76,-2.76,-2.76,-2.76,-2.76,-2.76,-2.76,-2.76,-2.7195,-2.6632,-2.5989,-2.5555,-2.4874,-2.3962,-2.3969,-2.3849,-2.3595,-2.3595,-2.3595,-2.3595,-2.3595,-2.3595]},{"header":{"parameterUnit":"m.s-1","parameterCategory":1,"la1":30.6,"la2":29.2853,"lo1":-89.7004,"lo2":-87.6739,"dy":0.0162,"dx":0.0183,"nx":112,"ny":82,"refTime":"2025-05-30T12:00:00:Z","depth":0,"parameterNumber":3,"parameterNumberName":"V-component_of_WINDS"},"data":[0.0,0.0,0.0,0.0,0.0,0.0,0.0,0.0,0.0,0.0,0.0,0.0,0.0,0.0,0.0,0.0,0.0,0.0,0.0,0.0,0.0,0.0,0.0,0.0,0.0,0.0,0.0,0.0,0.0,0.0,0.0,0.0,0.0,0.0,0.0,0.0,0.0,0.0,0.0,0.0,0.0,0.0,0.0,0.0,0.0,0.0,0.0,0.0,0.0,0.0,0.0,0.0,0.0,0.0,0.0,0.0,0.0,0.0,0.0,0.0,0.0,0.0,0.0,0.0,0.0,0.0,0.0,0.0,0.0,0.0,0.0,0.0,0.0,0.0,0.0,0.0,0.0,0.0,0.0,0.0,0.0,0.0,0.0,0.0,0.0,0.0,0.0,0.0,0.0,0.0,0.0,-0.2809,-0.25,-0.2283,-0.2255,-0.212,-0.1981,-0.1839,0.0,0.0,0.0,0.0,0.0,0.0,0.0,0.0,0.0,0.0,0.0,0.0,0.0,0.0,0.0,0.0,0.0,0.0,0.0,0.0,0.0,0.0,0.0,0.0,0.0,0.0,0.0,0.0,0.0,0.0,0.0,0.0,0.0,0.0,0.0,0.0,0.0,0.0,0.0,0.0,0.0,0.0,0.0,0.0,0.0,0.0,0.0,0.0,0.0,0.0,0.0,0.0,0.0,0.0,0.0,0.0,0.0,0.0,0.0,0.0,0.0,0.0,0.0,0.0,0.0,0.0,0.0,0.0,0.0,0.0,0.0,0.0,0.0,0.0,0.0,0.0,0.0,0.0,0.0,0.0,0.0,0.0,0.0,0.0,0.0,0.0,0.0,0.0,0.0,0.0,0.0,0.0,0.0,0.0,0.0,0.0,0.0,0.0,0.0,0.0,0.0,0.0,0.0,0.0,-0.2327,-0.2304,-0.2603,-0.2702,-0.2478,-0.2272,-0.211,-0.1972,0.0,0.0,0.0,0.0,0.0,0.0,0.0,0.0,0.0,0.0,0.0,0.0,0.0,0.0,0.0,0.0,0.0,0.0,0.0,0.0,0.0,0.0,0.0,0.0,0.0,0.0,0.0,0.0,0.0,0.0,0.0,0.0,0.0,0.0,0.0,0.0,0.0,0.0,0.0,0.0,0.0,0.0,0.0,0.0,0.0,0.0,0.0,0.0,0.0,0.0,0.0,0.0,0.0,0.0,0.0,0.0,0.0,0.0,0.0,0.0,0.0,0.0,0.0,0.0,0.0,0.0,0.0,0.0,0.0,0.0,0.0,0.0,0.0,0.0,0.0,0.0,0.0,0.0,0.0,0.0,0.0,0.0,0.0,0.0,0.0,0.0,0.0,0.0,0.0,0.0,0.0,0.0,0.0,0.0,0.0,0.0,0.0,0.0,0.0,0.0,0.0,0.0,0.0,-0.2813,-0.2665,-0.2592,-0.2701,-0.2713,-0.252,-0.2187,-0.1993,-0.1996,-0.1427,0.0,0.0,0.0,0.0,0.0,0.0,0.0,0.0,0.0,0.0,0.0,0.0,0.0,0.0,0.0,0.0,0.0,0.0,0.0,0.0,0.0,0.0,0.0,0.0,0.0,0.0,0.0,0.0,0.0,0.0,0.0,0.0,0.0,0.0,0.0,0.0,0.0,0.0,0.0,0.0,0.0,0.0,0.0,0.0,0.0,0.0,0.0,0.0,0.0,0.0,0.0,0.0,0.0,0.0,0.0,0.0,0.0,0.0,0.0,0.0,0.0,0.0,0.0,0.0,0.0,0.0,0.0,0.0,0.0,0.0,0.0,0.0,0.0,0.0,0.0,0.0,0.0,0.0,0.0,0.0,0.0,0.0,0.0,0.0,0.0,0.0,0.0,0.0,0.0,0.0,0.0,0.0,0.0,0.0,0.0,0.0,0.0,0.0,0.0,0.0,0.0,0.0,-0.3089,-0.2957,-0.2826,-0.2748,-0.2619,-0.2407,-0.203,-0.1829,-0.1899,-0.1243,0.0,0.0,0.0,0.0,0.0,0.0,0.0,0.0,0.0,0.0,0.0,0.0,0.0,0.0,0.0,0.0,0.0,0.0,0.0,0.0,0.0,0.0,0.0,0.0,0.0,0.0,0.0,0.0,0.0,0.0,0.0,0.0,0.0,0.0,0.0,0.0,0.0,0.0,0.0,0.0,0.0,0.0,0.0,0.0,0.0,0.0,0.0,0.0,0.0,0.0,0.0,0.0,0.0,0.0,0.0,0.0,0.0,0.0,0.0,0.0,0.0,0.0,0.0,0.0,0.0,0.0,0.0,0.0,0.0,0.0,0.0,0.0,0.0,0.0,0.0,0.0,0.0,0.0,0.0,0.0,0.0,0.0,0.0,0.0,0.0,0.0,0.0,0.0,0.0,0.0,0.0,0.0,0.0,0.0,0.0,0.0,0.0,0.0,0.0,0.0,0.0,0.0,-0.2816,-0.2675,-0.2541,-0.2639,-0.2527,-0.2068,-0.1889,-0.1753,-0.1632,-0.1052,0.0,0.0,0.0,0.0,0.0,0.0,0.0,0.0,0.0,0.0,0.0,0.0,0.0,0.0,0.0,0.0,0.0,0.0,0.0,0.0,0.0,0.0,0.0,0.0,0.0,0.0,0.0,0.0,0.0,0.0,0.0,0.0,0.0,0.0,0.0,0.0,0.0,0.0,0.0,0.0,0.0,0.0,0.0,0.0,0.0,0.0,0.0,0.0,0.0,0.0,0.0,0.0,0.0,0.0,0.0,0.0,0.0,0.0,0.0,0.0,0.0,0.0,0.0,0.0,0.0,0.0,0.0,0.0,0.0,0.0,0.0,0.0,0.0,0.0,0.0,0.0,0.0,0.0,0.0,0.0,0.0,0.0,0.0,0.0,0.0,0.0,0.0,0.0,0.0,0.0,0.0,0.0,0.0,0.0,0.0,0.0,0.0,0.0,0.0,0.0,0.0,0.0,-0.2731,-0.2682,0.0,-0.2662,-0.2513,-0.2047,-0.1683,-0.1518,-0.1601,0.0,0.0,0.0,0.0,0.0,0.0,0.0,0.0,0.0,0.0,0.0,0.0,0.0,0.0,0.0,0.0,0.0,0.0,0.0,0.0,0.0,0.0,0.0,0.0,0.0,0.0,0.0,0.0,0.0,0.0,0.0,0.0,0.0,0.0,0.0,0.0,0.0,0.0,0.0,0.0,0.0,0.0,0.0,0.0,0.0,0.0,0.0,0.0,0.0,0.0,0.0,0.0,0.0,0.0,0.0,0.0,0.0,0.0,0.0,0.0,0.0,0.0,0.0,0.0,0.0,0.0,0.0,0.0,0.0,0.0,0.0,0.0,0.0,0.0,0.0,0.0,0.0,0.0,0.0,0.0,0.0,0.0,0.0,0.0,0.0,0.0,0.0,0.0,0.0,0.0,0.0,0.0,0.0,0.0,0.0,0.0,0.0,0.0,0.0,0.0,0.0,0.0,-0.2632,-0.2609,-0.259,0.0,-0.2563,-0.2297,-0.1811,-0.1367,-0.1141,-0.1212,0.0,0.0,0.0,0.0,0.0,0.0,0.0,0.0,0.0,0.0,0.0,0.0,0.0,0.0,0.0,0.0,0.0,0.0,0.0,0.0,0.0,0.0,0.0,0.0,0.0,0.0,0.0,0.0,0.0,0.0,0.0,0.0,0.0,0.0,0.0,0.0,0.0,0.0,0.0,0.0,0.0,0.0,0.0,0.0,0.0,0.0,0.0,0.0,0.0,0.0,0.0,0.0,0.0,0.0,0.0,0.0,0.0,0.0,0.0,0.0,0.0,0.0,0.0,0.0,0.0,0.0,0.0,0.0,0.0,0.0,0.0,0.0,0.0,0.0,0.0,0.0,0.0,0.0,0.0,0.0,0.0,0.0,0.0,0.0,0.0,0.0,0.0,0.0,0.0,0.0,0.0,0.0,0.0,0.0,0.0,0.0,0.0,0.0,0.0,0.0,0.0,0.0,-0.2606,-0.2397,-0.2321,-0.2649,-0.2264,-0.1795,-0.1338,-0.0932,-0.0615,0.0,0.0,0.0,0.0,0.0,0.0,0.0,0.0,0.0,0.0,0.0,0.0,0.0,0.0,0.0,0.0,0.0,0.0,0.0,0.0,0.0,0.0,0.0,0.0,0.0,0.0,0.0,0.0,0.0,0.0,0.0,0.0,0.0,0.0,0.0,0.0,0.0,0.0,0.0,0.0,0.0,0.0,0.0,0.0,0.0,0.0,0.0,0.0,0.0,0.0,0.0,0.0,0.0,0.0,0.0,0.0,0.0,0.0,0.0,0.0,0.0,0.0,0.0,0.0,0.0,0.0,0.0,0.0,0.0,0.0,0.0,0.0,0.0,0.0,0.0,0.0,0.0,0.0,0.0,0.0,0.0,0.0,0.0,0.0,0.0,0.0,0.0,0.0,0.0,0.0,0.0,0.0,0.0,0.0,0.0,0.0,0.0,0.0,0.0,0.0,0.0,0.0,0.0,-0.226,-0.2007,-0.1893,-0.2172,-0.1792,-0.134,-0.0906,-0.0768,-0.0615,-0.0419,0.0,0.0,0.0,0.0,0.0,0.0,0.0,0.0,0.0,0.0,0.0,0.0,0.0,0.0,0.0,0.0,0.0,0.0,0.0,0.0,0.0,0.0,0.0,0.0,0.0,0.0,0.0,0.0,0.0,0.0,0.0,0.0,0.0,0.0,0.0,0.0,0.0,0.0,0.0,0.0,0.0,0.0,0.0,0.0,0.0,0.0,0.0,0.0,0.0,0.0,0.0,0.0,0.0,0.0,0.0,0.0,0.0,0.0,0.0,0.0,0.0,0.0,0.0,0.0,0.0,0.0,0.0,0.0,0.0,0.0,0.0,0.0,0.0,0.0,0.0,0.0,0.0,0.0,0.0,0.0,0.0,0.0,0.0,0.0,0.0,0.0,0.0,0.0,0.0,0.0,0.0,0.0,0.0,0.0,0.0,0.0,0.0,0.0,0.0,0.0,0.0,0.0,-0.1887,-0.1633,-0.1482,-0.1706,-0.1323,-0.0956,-0.0723,-0.0529,-0.0364,-0.0252,0.0,0.0,0.0,0.0,0.0,0.0,0.0,0.0,0.0,0.0,0.0,0.0,0.0,0.0,0.0,0.0,0.0,0.0,0.0,0.0,0.0,0.0,0.0,0.0,0.0,0.0,0.0,0.0,0.0,0.0,0.0,0.0,0.0,0.0,0.0,0.0,0.0,0.0,0.0,0.0,0.0,0.0,0.0,0.0,0.0,0.0,0.0,0.0,0.0,0.0,0.0,0.0,0.0,0.0,0.0,0.0,0.0,0.0,0.0,0.0,0.0,0.0,0.0,0.0,0.0,0.0,0.0,0.0,0.0,0.0,0.0,0.0,0.0,0.0,0.0,0.0,0.0,0.0,0.0,0.0,0.0,0.0,0.0,0.0,0.0,0.0,0.0,0.0,0.0,0.0,0.0,0.0,0.0,0.0,0.0,0.0,0.0,0.0,0.0,0.0,0.0,0.0,-0.1482,-0.125,-0.1095,-0.1225,-0.0873,-0.0639,-0.0639,-0.0243,0.0,0.0,0.0,0.0,0.0,0.0,0.0,0.0,0.0,0.0,0.0,0.0,0.0,0.0,0.0,0.0,0.0,0.0,0.0,0.0,0.0,0.0,0.0,0.0,0.0,0.0,0.0,0.0,0.0,0.0,0.0,0.0,0.0,0.0,0.0,0.0,0.0,0.0,0.0,0.0,0.0,0.0,0.0,0.0,0.0,0.0,0.0,0.0,0.0,0.0,0.0,0.0,0.0,0.0,0.0,0.0,0.0,0.0,0.0,0.0,0.0,0.0,0.1351,0.0,0.0,0.0,0.0,0.0,0.0,0.0,0.0,0.0,0.0,0.0,0.0,0.0,0.0,0.0,0.0,0.0,0.0,0.0,0.0,0.0,0.0,0.0,0.0,0.0,0.0,0.0,0.0,0.0,0.0,0.0,0.0,0.0,0.0,0.0,0.0,0.0,0.0,0.0,0.0,0.0,-0.1163,-0.0819,-0.0621,-0.08,-0.042,-0.0151,-0.0151,-0.0063,0.0,0.0,-0.0024,0.0,0.0,0.0,0.0,0.0,0.0,0.0,0.0,0.0,0.0,0.0,0.0,0.0,0.0,0.0,0.0,0.0,0.0,0.0,0.0,0.0,0.0,0.0,0.0,0.0,0.0,0.0,0.0,0.0,0.0,0.0,0.0,0.0,0.0,0.0,0.0,0.0,0.0,0.0,0.0,0.0,0.0,0.0,0.0,0.0,0.0,0.0,0.0,0.0,0.0,0.0,0.0,0.0,0.0,0.0,0.0,0.0,0.0,0.0,0.0,0.16,0.0,0.0,0.0,0.0,0.0,0.0,0.0,0.0,0.0,0.0,0.0,0.0,0.0,0.0,0.0,0.0,0.0,0.0,0.0,0.0,0.0,0.0,0.0,0.0,0.0,0.0,0.0,0.0,0.0,0.0,0.0,0.0,0.0,0.0,0.0,0.0,0.0,0.0,0.0,0.0,-0.0728,-0.0444,-0.0252,-0.0351,-0.0151,0.0,0.0,0.0,0.0,0.0,0.0,0.0,0.0,0.0,0.0,0.0,0.0,0.0,0.0,0.0,0.0,0.0,0.0,0.0,0.0,0.0,0.0,0.0,0.0,0.0,0.0,0.0,0.0,0.0,0.0,0.0,0.0,0.0,0.0,0.0,0.0,0.0,0.0,0.0,0.0,0.0,0.0,0.0,0.0,0.0,0.0,0.0,0.0,0.0,0.0,0.0,0.0,0.0,0.0,0.0,0.0,0.0,0.0,0.0,0.0503,0.0391,0.0514,0.0741,0.1007,0.1313,0.192,0.2215,0.2249,0.0,0.0,0.0,0.0,0.0,0.0,0.0,0.0,0.0,0.0,0.0,0.0,0.0,0.0,0.0,0.0,0.0,0.0,0.0,0.0,0.0,0.0,0.0,0.0,0.0,0.0953,0.0793,0.0,0.0,0.0,0.0,0.0,0.0,0.0,0.0,0.0,0.0,0.0,0.0,-0.0308,-0.0135,0.0,0.0,0.0,0.0,0.0,0.0,0.0,0.0,0.0,0.0,0.0,0.0,0.0,0.0,0.0,0.0,0.0,0.0,0.0,0.0,0.0,0.0,0.0,0.0,0.0,0.0,0.0,0.0,0.0,0.0,0.0,0.0,0.0,0.0,0.0,0.0,0.0,0.0,0.0,0.0,0.0,0.0,0.1309,0.1036,0.0,0.0,0.0,0.0,0.0,0.0,0.0,0.0,0.0,0.0,0.0,0.0,0.0,0.0222,0.0246,0.0687,0.0899,0.0899,0.1343,0.1902,0.251,0.256,0.2934,0.3559,0.3675,0.0,0.1452,0.1246,0.0,0.0,0.0,0.0,0.0,0.0,0.0,0.0,0.0,0.0,0.0,0.0,0.0,0.0,0.0,0.0,0.0,0.0,0.0,0.0,0.0,0.0,0.2279,0.226,0.1565,0.1031,0.0,0.0742,0.0,0.0,0.0,0.0,0.0,0.0,0.0,0.0,0.0,0.0,-0.0045,-0.0016,0.0,0.0,0.0,0.0,0.0,0.0,0.0,0.0,0.0,0.0,0.0,0.0,0.0,0.0,0.0,0.0,0.0,0.0,0.0,0.0,0.0,0.0,0.0,0.0,0.0,0.0,0.0,0.0,0.0,0.0,0.0,0.0,0.0,0.0,0.0,0.0,0.0,0.0,0.0,0.0,0.0,0.1378,0.145,0.1495,0.1685,0.1711,0.0,0.0,0.0,0.0,0.0,0.0,0.0,0.0,0.0,0.1507,0.1523,0.1752,0.2236,0.2168,0.2127,0.2128,0.2073,0.2188,0.2507,0.2507,0.2693,0.2987,0.2987,0.2541,0.1846,0.24,0.2738,0.2873,0.0,0.0,0.0,0.0,0.3078,0.306,0.3246,0.3324,0.0,0.329,0.0,0.0,0.0,0.0,0.0,0.0,0.0,0.0,0.0,0.0,0.0,0.2737,0.2428,0.2095,0.1936,0.1496,0.0997,0.0,0.0233,0.0,0.0,0.0,0.0,0.0,0.0,0.0,0.0,0.0,0.0,0.0,0.0,0.0,0.0,0.0,0.0,0.0,0.0,0.0,0.0,0.0,-0.0022,0.0,0.0,0.0,0.0,0.0,0.0,0.0,0.0,0.0,0.0,0.0,0.0,0.0,0.0,0.0,0.0,0.0,0.0,0.0,0.0,0.0,0.0,0.0,0.0,0.0,0.0,0.0,0.0,0.1442,0.1501,0.1812,0.1799,0.1691,0.0,0.0,0.0,0.0,0.0,0.0,0.1561,0.1569,0.1865,0.2556,0.2612,0.2953,0.3614,0.3202,0.301,0.2984,0.2546,0.2432,0.2603,0.2603,0.2717,0.2888,0.2888,0.2875,0.2858,0.3231,0.3435,0.3453,0.3312,0.3278,0.3344,0.3501,0.352,0.3507,0.3775,0.3849,0.3839,0.3771,0.0,0.3494,0.3215,0.0,0.0,0.0,0.0,0.2853,0.2889,0.2969,0.2987,0.2694,0.2585,0.242,0.2037,0.1695,0.1421,0.0,0.0635,0.0232,0.0233,0.0,0.0,0.0,0.0,0.0,0.0,0.0,0.0,0.0,0.0,0.0,0.0,0.0,0.0,0.0,0.0,0.0,0.0,0.0,0.0,0.0,0.0,0.0,0.0,0.0,0.0,0.0,0.0,0.0,0.0,0.0,0.0,0.0,0.0,0.0,0.0,0.0,0.0,0.0,0.0,0.0,0.0,0.0,0.0,0.0,0.0,0.0,0.0,0.0,0.0,0.1955,0.1485,0.0,0.0,0.0,0.0,0.212,0.2779,0.3064,0.283,0.2805,0.2636,0.2235,0.2417,0.2528,0.2561,0.2675,0.2717,0.2717,0.2692,0.3029,0.3732,0.3732,0.4099,0.4773,0.4773,0.4693,0.4452,0.2902,0.2606,0.3122,0.3109,0.346,0.395,0.3957,0.396,0.3964,0.3981,0.3984,0.4004,0.4142,0.4085,0.3933,0.3795,0.3668,0.0,0.0,0.3728,0.3604,0.3055,0.2896,0.2729,0.203,0.1432,0.1158,0.1707,0.0902,0.0435,0.0,0.1263,0.0862,0.0851,0.0,0.0,0.0,0.0,0.0,0.0,0.0,0.0,0.0,0.0,0.0,0.0,0.0,0.0,0.0,0.0,0.0,0.0,0.0,0.0,0.0,-0.0011,0.0,0.0,0.0,0.0,0.0,0.0,0.0,0.0,0.0,0.0,0.0,0.0,0.0,0.0,0.0,0.0,0.0,0.0,0.0,0.0,0.0,0.0,0.0,0.0,0.0,0.0,0.0,0.0,0.3006,0.2917,0.0,0.2288,0.2447,0.2482,0.2226,0.2455,0.2605,0.2634,0.2649,0.2824,0.321,0.3285,0.3565,0.4051,0.4096,0.4116,0.4116,0.4116,0.4241,0.4519,0.4519,0.4641,0.4887,0.4887,0.4887,0.477,0.4188,0.3962,0.3996,0.4003,0.4144,0.4331,0.4331,0.4331,0.4331,0.4331,0.4331,0.4297,0.4233,0.416,0.4112,0.396,0.3904,0.3894,0.4018,0.4058,0.4041,0.3943,0.3578,0.3145,0.2904,0.2261,0.1767,0.1911,0.159,0.1381,0.1724,0.1005,0.0315,0.0326,0.0144,0.0,0.0,0.0,0.0,0.0,0.0,0.0,0.0,0.0,0.0,0.0,0.0,0.0,0.0,0.0,0.0,0.0,0.0,0.0,0.0,0.0,-0.0022,0.0,0.0,0.0,0.0,0.0,0.0,0.0,0.0,0.0,0.0,0.0,0.0,0.0,0.0,0.0,0.0,0.0,0.0,0.0,0.0,0.0,0.0,0.0,0.0,0.0,0.0,0.3177,0.3408,0.3338,0.3131,0.2788,0.2978,0.3036,0.2765,0.2966,0.3156,0.3314,0.3299,0.358,0.4147,0.4218,0.4457,0.4961,0.5043,0.5067,0.5067,0.5067,0.5067,0.5067,0.5067,0.5067,0.5067,0.5067,0.504,0.4958,0.4958,0.4843,0.4644,0.4644,0.4614,0.4566,0.4566,0.4535,0.4491,0.4491,0.4491,0.4474,0.4351,0.4294,0.4274,0.4199,0.4168,0.4189,0.4264,0.4294,0.4261,0.4131,0.3735,0.3317,0.3065,0.2593,0.2163,0.2089,0.1864,0.1664,0.1572,0.0871,0.0295,0.0296,0.0138,0.0,0.0,0.0,0.0,0.0,0.0,0.0,0.0,0.0,0.0,0.0,0.0,0.0,0.0,0.0,0.0,0.0,0.0,0.0,0.0,0.0,0.0,0.0,0.0,0.0,0.0,0.0,0.0,0.0,0.0,0.0,0.0,0.0,0.0,0.0,0.0,0.0,0.0,0.0,0.0,0.0,0.0,0.0,0.0,0.0,0.0,0.3413,0.3035,0.2853,0.3118,0.2632,0.235,0.2547,0.3228,0.3687,0.3831,0.4488,0.4891,0.4894,0.4894,0.4897,0.4911,0.5042,0.5113,0.512,0.5301,0.5409,0.5409,0.5409,0.5409,0.5409,0.5402,0.5402,0.5402,0.5395,0.5277,0.5106,0.5106,0.5026,0.4901,0.4891,0.4826,0.4697,0.4697,0.4631,0.4498,0.4498,0.4494,0.4491,0.4491,0.4491,0.4491,0.4491,0.4491,0.4491,0.4491,0.4491,0.4322,0.3539,0.3317,0.3121,0.2397,0.2232,0.2202,0.2202,0.1619,0.109,0.109,0.0981,0.086,0.0884,0.0379,0.0,0.0,0.0,0.0,0.0,0.0,0.0,0.0,0.0,0.0,0.0,0.0,0.0,0.0,0.0,0.0,0.0,0.0,0.0,0.0,0.0,0.0,0.0,0.0,0.0,0.0,0.0,0.0,0.0,0.0,0.0,0.0,0.0,0.0,0.0,0.0,0.0,0.0,0.0,0.0,0.0,0.0,0.0,0.0,0.0,0.3812,0.3836,0.3935,0.4063,0.4237,0.4207,0.4192,0.4222,0.4438,0.4569,0.4607,0.4796,0.4931,0.5036,0.5042,0.5143,0.5399,0.5443,0.5515,0.5616,0.5657,0.5681,0.5681,0.5681,0.5681,0.5677,0.5576,0.5562,0.5556,0.5443,0.5371,0.533,0.533,0.5306,0.5252,0.5003,0.4864,0.4857,0.4857,0.4758,0.4655,0.4655,0.4583,0.4491,0.4491,0.4491,0.4491,0.4491,0.4491,0.4491,0.4491,0.4491,0.446,0.4236,0.3732,0.3259,0.3037,0.2591,0.2202,0.2202,0.1619,0.109,0.109,0.0634,0.0243,0.0237,0.0105,0.0,0.0,0.0,0.0,0.0,0.0,0.0,0.0,0.0,0.0,0.0,0.0,0.0,0.0,0.0,0.0,0.0,0.0,0.0,0.0,0.0,0.0,0.0,0.0,0.0,0.0,0.0,0.0,0.0,0.0,0.0,0.0,0.0,0.0,0.0,0.0,0.0,0.0,0.0,0.0,0.0,0.0,0.0,0.0,0.3995,0.425,0.4351,0.449,0.4644,0.4769,0.4863,0.4911,0.4972,0.4975,0.5033,0.5101,0.5165,0.5237,0.5318,0.5379,0.5494,0.5674,0.5677,0.5718,0.58,0.58,0.58,0.58,0.58,0.58,0.5796,0.5718,0.5677,0.0,0.5586,0.5579,0.5576,0.5515,0.5491,0.0,0.0,0.0,0.0,0.0,0.4863,0.4785,0.4785,0.4728,0.4653,0.4653,0.4653,0.4653,0.4653,0.4638,0.4586,0.4586,0.4539,0.4491,0.4491,0.4153,0.379,0.379,0.3483,0.3178,0.3178,0.2565,0.2037,0.2065,0.1452,0.0,0.0926,0.0408,0.0,0.0,0.0,0.0,0.0,0.0,0.0096,0.0347,0.0161,0.0113,0.0347,0.0145,0.0,0.0,0.0,0.0,0.0,0.0,0.0,0.0,0.0,0.0,0.0,0.0,0.0,0.0,0.0,-0.0087,0.0,0.0,0.0,0.0,0.0,0.0,0.0,0.0,0.0,0.0,0.0,0.0,0.0,0.0,0.0,0.0,0.4409,0.4641,0.4901,0.4826,0.4792,0.4894,0.4958,0.4995,0.5137,0.515,0.5247,0.5433,0.5573,0.5613,0.5613,0.0,0.0,0.0,0.0,0.5833,0.5854,0.5854,0.5854,0.5854,0.5854,0.5854,0.5854,0.5833,0.5827,0.5827,0.581,0.58,0.5789,0.5664,0.5603,0.5576,0.5453,0.5277,0.511,0.4985,0.4928,0.4914,0.4914,0.0,0.0,0.4887,0.4887,0.4887,0.4887,0.4823,0.4714,0.4697,0.4621,0.4511,0.4494,0.4491,0.4491,0.4491,0.4491,0.4491,0.4491,0.3873,0.3317,0.3372,0.2732,0.2202,0.2202,0.1034,0.0112,0.0112,0.0055,0.0,0.0,0.0,0.0201,0.0746,0.0,0.0,0.0747,0.0303,0.0,0.0,0.0,0.0,0.0,0.0,0.0,0.0,0.0,0.0,0.0,0.0,0.0,0.0,0.0,0.0,0.0,0.0,0.0,0.0,0.0,0.0,0.0,0.0,0.0,0.0,0.0,0.0,0.0,0.0,0.0,0.4409,0.4653,0.4891,0.5032,0.5032,0.5026,0.5056,0.5199,0.5368,0.5484,0.5501,0.5562,0.5705,0.5742,0.5762,0.5762,0.5786,0.0,0.5946,0.5949,0.6047,0.6207,0.6211,0.6211,0.6211,0.0,0.0,0.6204,0.6044,0.5949,0.5942,0.5857,0.58,0.58,0.5772,0.5694,0.5576,0.5453,0.5378,0.5347,0.5317,0.5196,0.5059,0.5059,0.4982,0.4887,0.4887,0.4887,0.4887,0.4887,0.4867,0.0,0.4724,0.467,0.4648,0.4522,0.4491,0.4491,0.4491,0.4491,0.4491,0.4491,0.3873,0.3314,0.3317,0.2702,0.2202,0.2202,0.148,0.0895,0.0895,0.039,0.0,0.0,0.0,0.0052,0.0151,0.0073,0.0048,0.0165,0.0066,0.0,0.0,0.0,0.0,0.0,0.0,0.0,0.0,0.0,0.0,0.0,0.0,0.0,0.0,0.0,0.0,0.0,0.0,0.0,0.0,0.0,0.0,0.0,0.0,0.0,0.0,0.0,0.3751,0.408,0.0,0.4513,0.4762,0.4989,0.5192,0.5338,0.5423,0.544,0.5369,0.543,0.5569,0.5681,0.5694,0.5725,0.5796,0.5871,0.5915,0.5915,0.5989,0.6067,0.6142,0.6146,0.6183,0.63,0.63,0.63,0.63,0.63,0.63,0.6296,0.6179,0.6146,0.6142,0.6064,0.6067,0.6027,0.5949,0.583,0.5681,0.5569,0.5463,0.5395,0.5395,0.5344,0.5247,0.5247,0.5199,0.5142,0.5142,0.5142,0.5142,0.5142,0.5087,0.4978,0.4931,0.4806,0.4674,0.4624,0.4549,0.4491,0.4491,0.4491,0.4491,0.4491,0.4181,0.3901,0.3901,0.3594,0.3345,0.3345,0.2704,0.2063,0.1703,0.134,0.1111,0.1092,0.0791,0.0673,0.0963,0.0408,0.0248,0.086,0.09,0.0773,0.0463,0.0452,0.0321,0.002,0.0,0.0,0.0,0.0,0.0,0.0,0.0,0.0,0.0,0.0,0.0,0.0,0.0,0.0,0.0,0.0,0.0,0.0,0.0,0.4652,0.4253,0.4169,0.4277,0.4667,0.4782,0.4897,0.5135,0.5328,0.5525,0.5613,0.5728,0.5769,0.5684,0.565,0.5688,0.583,0.5844,0.5857,0.5888,0.6006,0.6074,0.6074,0.6193,0.63,0.63,0.63,0.63,0.63,0.63,0.63,0.63,0.63,0.63,0.63,0.63,0.63,0.63,0.63,0.63,0.6286,0.6095,0.5922,0.583,0.5688,0.559,0.5474,0.5416,0.5395,0.5395,0.5395,0.5395,0.5395,0.5395,0.5395,0.5395,0.5395,0.5274,0.5137,0.5106,0.4938,0.4728,0.4697,0.4604,0.4491,0.4491,0.4491,0.4491,0.4491,0.4491,0.4491,0.4491,0.4491,0.4491,0.4491,0.3956,0.3287,0.2536,0.2286,0.2202,0.2202,0.1675,0.1437,0.1776,0.0854,0.0594,0.1554,0.1623,0.1475,0.1105,0.0955,0.069,0.0202,0.006,0.0,0.0,0.0,0.0,0.0,0.0,0.0,0.0,0.0,0.0,0.6357,0.5656,0.4848,0.4747,0.4238,0.3906,0.0,0.0,0.4379,0.4724,0.479,0.4803,0.4854,0.5108,0.533,0.5361,0.5569,0.5755,0.5776,0.5789,0.5844,0.5929,0.5861,0.5837,0.5952,0.5966,0.6061,0.6238,0.6265,0.6272,0.6272,0.6289,0.63,0.63,0.63,0.63,0.63,0.63,0.63,0.63,0.63,0.63,0.63,0.63,0.63,0.63,0.63,0.63,0.6286,0.6095,0.5983,0.5952,0.5837,0.5769,0.5722,0.5491,0.5395,0.5395,0.5395,0.5395,0.5395,0.5395,0.5395,0.5395,0.5395,0.5382,0.5341,0.5137,0.4985,0.4863,0.4724,0.4604,0.4491,0.4491,0.4491,0.4491,0.4491,0.4491,0.4491,0.4491,0.4491,0.4491,0.4491,0.4436,0.4098,0.3287,0.2619,0.2202,0.2202,0.212,0.1839,0.1251,0.1054,0.098,0.1005,0.1008,0.1204,0.1663,0.1198,0.0865,0.0794,0.0277,0.0,0.0,0.0,0.0,0.0,0.0,0.0,0.0,0.0,0.0,0.6528,0.6017,0.5491,0.0,0.4766,0.4858,0.4734,0.4977,0.5202,0.5047,0.5012,0.5039,0.5159,0.5385,0.5528,0.0,0.5742,0.5899,0.5899,0.5899,0.5922,0.5986,0.5936,0.5996,0.6149,0.6166,0.6193,0.6293,0.63,0.63,0.63,0.63,0.63,0.63,0.6378,0.6422,0.6422,0.6511,0.6511,0.6422,0.6422,0.6378,0.63,0.63,0.63,0.63,0.63,0.63,0.6293,0.6193,0.6166,0.6149,0.5996,0.5899,0.5898,0.5603,0.5528,0.5515,0.5426,0.5395,0.5395,0.5395,0.5395,0.5395,0.5395,0.5395,0.5382,0.5284,0.5159,0.4978,0.486,0.4711,0.46,0.4511,0.4491,0.4491,0.4491,0.4491,0.4491,0.4491,0.4491,0.4491,0.4491,0.4491,0.4377,0.4042,0.3735,0.3539,0.3539,0.3121,0.2565,0.1813,0.168,0.1783,0.2137,0.204,0.2081,0.2426,0.2125,0.1784,0.1429,0.1187,0.0893,0.0524,0.0514,0.0361,0.0,0.0,0.0,0.0,0.0,0.0,0.7036,0.0,0.0,0.5461,0.5587,0.5863,0.5457,0.5597,0.5794,0.5671,0.5413,0.5226,0.5375,0.5521,0.5603,0.564,0.5864,0.6006,0.6088,0.602,0.601,0.6088,0.602,0.6091,0.6286,0.63,0.63,0.63,0.63,0.6317,0.6358,0.6358,0.6378,0.6419,0.6521,0.6536,0.6536,0.6644,0.6644,0.6536,0.6536,0.6501,0.6358,0.6317,0.63,0.63,0.63,0.63,0.63,0.63,0.63,0.6289,0.6139,0.6095,0.6061,0.5806,0.5684,0.5633,0.5556,0.5491,0.5457,0.5457,0.5429,0.5395,0.5395,0.5395,0.5395,0.5395,0.525,0.5076,0.4972,0.4836,0.4663,0.458,0.4522,0.4491,0.4491,0.4491,0.4491,0.4491,0.4491,0.4491,0.4491,0.4491,0.4491,0.4491,0.4491,0.4491,0.4491,0.3818,0.3121,0.2565,0.2246,0.2334,0.3052,0.2928,0.2915,0.3181,0.2954,0.2594,0.2133,0.1952,0.1627,0.1163,0.114,0.094,0.0493,0.0337,0.0337,0.0493,0.0157,0.009,0.0,0.0,0.7949,0.7194,0.669,0.6495,0.6932,0.6183,0.5719,0.6827,0.6157,0.5388,0.5395,0.5521,0.5637,0.5772,0.5928,0.6084,0.6272,0.6125,0.6084,0.6276,0.6122,0.6091,0.0,0.63,0.63,0.63,0.63,0.6361,0.6497,0.6504,0.6573,0.6681,0.6692,0.6695,0.6695,0.6698,0.6698,0.6695,0.6695,0.6614,0.6501,0.6364,0.63,0.63,0.63,0.63,0.63,0.63,0.63,0.63,0.6293,0.6293,0.6272,0.6074,0.5922,0.5793,0.5789,0.5698,0.5583,0.5583,0.5518,0.5395,0.5395,0.5395,0.5395,0.5395,0.525,0.5096,0.5093,0.4908,0.4691,0.4684,0.4597,0.4491,0.4491,0.4491,0.4491,0.4491,0.4491,0.4491,0.4491,0.4491,0.4491,0.4491,0.4491,0.4491,0.4491,0.3846,0.3372,0.3287,0.2622,0.2436,0.3052,0.3103,0.3335,0.3938,0.3407,0.3028,0.2869,0.2298,0.193,0.1786,0.1762,0.1762,0.1741,0.1163,0.1163,0.1719,0.0538,0.0314,0.8375,0.0,0.7578,0.6989,0.6359,0.5925,0.6169,0.5856,0.5627,0.602,0.5615,0.5209,0.5209,0.5335,0.5521,0.5637,0.5867,0.6084,0.6279,0.6129,0.6013,0.6101,0.6023,0.0,0.0,0.0,0.0,0.63,0.6385,0.646,0.6511,0.6569,0.6647,0.6698,0.68,0.6851,0.6851,0.6903,0.6903,0.6851,0.6749,0.662,0.6511,0.6463,0.6388,0.63,0.63,0.63,0.63,0.63,0.63,0.63,0.63,0.63,0.6293,0.6242,0.619,0.6115,0.5871,0.5769,0.5715,0.562,0.5555,0.5528,0.5426,0.5395,0.5395,0.5395,0.5358,0.526,0.5127,0.5026,0.4935,0.4735,0.4653,0.4614,0.4511,0.4491,0.4491,0.4491,0.4491,0.4491,0.4491,0.4491,0.4491,0.4491,0.4491,0.4491,0.4491,0.4294,0.4125,0.4098,0.3391,0.3234,0.3975,0.3456,0.3387,0.4094,0.3846,0.367,0.3624,0.3425,0.311,0.2661,0.2661,0.2412,0.193,0.1723,0.1698,0.1784,0.1385,0.1297,0.8486,0.8052,0.7457,0.7038,0.6565,0.6261,0.636,0.6015,0.5738,0.6003,0.5759,0.5486,0.5432,0.573,0.6124,0.6457,0.669,0.6903,0.7321,0.6874,0.6585,0.6703,0.6366,0.6152,0.0,0.0,0.0,0.631,0.648,0.6552,0.6552,0.6698,0.6807,0.6854,0.691,0.696,0.696,0.7051,0.7051,0.696,0.6854,0.6729,0.663,0.6562,0.6463,0.6371,0.632,0.63,0.63,0.63,0.6528,0.6795,0.6451,0.6528,0.6795,0.6451,0.6528,0.6765,0.6179,0.5928,0.5867,0.5776,0.5677,0.5572,0.5504,0.544,0.5395,0.5395,0.5395,0.5371,0.524,0.514,0.5052,0.4894,0.4769,0.4663,0.4593,0.4528,0.4491,0.4491,0.4491,0.4491,0.4491,0.4491,0.4491,0.4491,0.4491,0.4491,0.4491,0.4491,0.4491,0.4491,0.4042,0.3929,0.446,0.3938,0.3809,0.4271,0.4233,0.4155,0.4078,0.4075,0.3872,0.3418,0.3415,0.3178,0.2713,0.2496,0.2464,0.2586,0.2147,0.2054,0.8825,0.8441,0.7764,0.746,0.738,0.7421,0.7532,0.6731,0.6128,0.6805,0.6557,0.6202,0.0,0.0,0.7328,0.8059,0.8194,0.8444,0.9145,0.8234,0.7618,0.0,0.0,0.0,0.0,0.0,0.0,0.6344,0.0,0.6712,0.6712,0.6858,0.6957,0.7092,0.7095,0.7095,0.7095,0.7095,0.7095,0.7095,0.696,0.6893,0.6876,0.6627,0.6532,0.6515,0.6371,0.631,0.631,0.6303,0.6872,0.7633,0.6679,0.6911,0.7668,0.6718,0.7022,0.7744,0.6795,0.6277,0.6078,0.603,0.584,0.561,0.5596,0.5521,0.5405,0.5395,0.5395,0.5395,0.5395,0.5254,0.511,0.51,0.4918,0.4711,0.4704,0.461,0.4501,0.4501,0.4494,0.4491,0.4491,0.4491,0.4491,0.4491,0.4491,0.4491,0.4491,0.4491,0.4491,0.4491,0.4491,0.4491,0.4491,0.4491,0.4491,0.4491,0.4491,0.4402,0.421,0.4207,0.4163,0.4018,0.4018,0.4014,0.4008,0.3427,0.3449,0.3969,0.2816,0.2591,0.9166,0.9332,0.952,0.8643,0.8593,0.8749,0.8507,0.8018,0.7555,0.7499,0.7092,0.663,0.0,0.0,0.0,0.7618,0.8153,0.0,0.8362,0.8052,0.0,0.7104,0.0,0.6617,0.6695,0.6803,0.0,0.0,0.6763,0.6829,0.6829,0.6964,0.7058,0.7095,0.7095,0.7095,0.7095,0.7095,0.7095,0.7095,0.7058,0.6987,0.6883,0.6848,0.6749,0.6634,0.6525,0.6457,0.645,0.6344,0.6451,0.6641,0.6412,0.6911,0.7783,0.7518,0.8046,0.8879,0.8618,0.8015,0.7197,0.6289,0.5942,0.5878,0.5657,0.5562,0.5542,0.5426,0.5395,0.5395,0.5395,0.5365,0.5274,0.5127,0.5042,0.4958,0.4884,0.4741,0.4662,0.4662,0.4566,0.4491,0.4491,0.4491,0.4491,0.4491,0.4491,0.4491,0.4491,0.4491,0.4491,0.4491,0.4491,0.4491,0.4491,0.4491,0.4491,0.4491,0.4491,0.4474,0.4436,0.4433,0.4416,0.4378,0.4375,0.4297,0.4137,0.4007,0.3952,0.3994,0.3695,0.3618,0.9701,0.9723,0.9707,0.9148,0.9045,0.8985,0.8623,0.826,0.7811,0.7242,0.7135,0.0,0.0,0.0,0.0,0.0,0.0,0.0,0.9851,0.9588,0.9299,0.0,0.8612,0.0,0.8396,0.8495,0.8473,0.0,0.8037,0.7763,0.7688,0.8308,0.8619,0.8619,0.8619,0.8619,0.8619,0.8619,0.8619,0.8619,0.8619,0.8609,0.8515,0.8475,0.8379,0.8313,0.0,0.8135,0.8119,0.7898,0.8056,0.8358,0.7358,0.7553,0.8389,0.7974,0.8428,0.9296,0.9296,0.9216,0.885,0.7279,0.6419,0.5959,0.5833,0.5691,0.5572,0.5521,0.5446,0.5395,0.5395,0.5395,0.5375,0.5254,0.5179,0.5076,0.4999,0.4894,0.4772,0.4704,0.4651,0.4569,0.4501,0.4491,0.4491,0.4491,0.4491,0.4491,0.4491,0.4491,0.4491,0.4491,0.4491,0.4491,0.4491,0.4491,0.4491,0.4491,0.4491,0.4491,0.4491,0.4491,0.4491,0.4491,0.4491,0.445,0.4341,0.4341,0.4297,0.4216,0.4216,0.4216,1.0249,0.9961,0.9526,0.9509,0.9342,0.9113,0.867,0.8247,0.7731,0.6887,0.0,0.7419,0.7013,0.7765,0.873,0.9574,0.0,1.0936,1.1956,1.1563,1.1298,1.1634,1.093,1.0478,1.059,1.0611,1.0611,1.0611,0.9836,0.9247,0.8947,0.9995,1.0611,1.0611,1.0611,1.0611,1.0611,1.0611,1.0611,1.0611,1.0611,1.0611,1.06,1.0493,1.0443,1.0433,0.0,0.0,1.0187,0.988,1.0243,1.0817,0.8841,0.8637,0.941,0.8537,0.8841,0.9712,0.9712,1.019,1.0484,0.8609,0.7295,0.6424,0.6403,0.6226,0.5956,0.5835,0.5681,0.5557,0.5428,0.5395,0.5428,0.5557,0.5354,0.5159,0.5286,0.5109,0.4897,0.4724,0.4691,0.4672,0.4515,0.4491,0.4491,0.4491,0.4491,0.4491,0.4491,0.4491,0.4491,0.4491,0.4491,0.4491,0.4491,0.4491,0.4491,0.4491,0.4491,0.4491,0.4491,0.4491,0.4491,0.4491,0.4491,0.4491,0.4491,0.4491,0.4491,0.4491,0.4491,0.4491,1.0527,1.104,1.1563,1.074,1.0967,1.1205,1.0648,0.9913,0.0,0.0,0.8082,0.7801,0.7721,0.8263,0.8938,0.9579,0.0,0.0,0.0,0.0,1.0897,0.0,0.0,0.0,0.0,0.0,0.0,0.0,0.0,1.1278,1.034,1.0461,1.0611,1.0611,1.0611,1.0611,1.0611,1.0611,1.0611,1.0611,1.0611,1.0611,1.0605,1.057,1.055,1.054,1.0401,0.0,1.0367,1.0192,1.007,0.9938,0.9545,0.9832,1.0522,1.0335,1.0907,1.1774,1.1774,1.1354,1.0596,0.941,0.8893,0.8717,0.8614,0.8346,0.7906,0.7057,0.6672,0.6301,0.5591,0.5395,0.5587,0.6301,0.5888,0.5548,0.6253,0.5702,0.4982,0.4745,0.4691,0.4672,0.4515,0.4491,0.4491,0.4491,0.4491,0.4491,0.4491,0.4491,0.4491,0.4491,0.4491,0.4491,0.4491,0.4491,0.4491,0.4491,0.4491,0.4491,0.4491,0.4491,0.4491,0.4491,0.4491,0.4491,0.4491,0.4491,0.4491,0.4491,0.4491,0.4491,1.1382,1.1819,1.2187,1.1694,1.1524,1.1337,1.0901,0.0,0.0,0.0,0.7996,0.7642,0.7466,0.0,0.0,0.0,0.0,0.0,0.0,0.0,0.0,0.0,0.0,0.0,0.0,0.0,0.0,0.0,0.0,1.2723,1.1552,1.2083,1.2431,1.2431,1.2431,1.2431,1.2431,1.2431,1.2431,1.2431,1.2431,1.2431,1.2431,1.2431,1.2431,1.2425,1.2337,0.0,1.2296,1.1909,1.1671,1.1449,1.0583,1.0479,1.0783,1.0783,1.1124,1.1583,1.2114,1.1996,1.1508,1.1025,1.0158,0.9276,0.9244,0.9051,0.872,0.808,0.7729,0.7342,0.6325,0.6075,0.617,0.6588,0.6724,0.6728,0.6719,0.6294,0.5719,0.5054,0.486,0.4762,0.4638,0.4842,0.4893,0.4543,0.4787,0.4893,0.4546,0.4491,0.4491,0.4491,0.4491,0.4491,0.4491,0.4491,0.4491,0.4491,0.4491,0.4491,0.4491,0.4491,0.4491,0.4491,0.4491,0.4491,0.4491,0.4491,0.4491,0.4491,0.4491,0.4491,1.2051,1.2258,1.2305,1.2305,1.1643,1.0915,1.066,0.9635,0.0,0.0,0.7635,0.7337,0.7148,0.0,0.0,0.0,0.0,0.0,0.0,0.0,0.0,0.0,0.0,0.0,0.0,0.0,0.0,0.0,0.0,0.0,1.2723,1.3597,1.4088,1.4088,1.4088,1.4088,1.4088,1.4088,1.4088,1.4088,1.4088,1.4088,1.4088,1.4088,1.4088,1.4088,1.4088,0.0,0.0,1.352,1.3267,1.3074,1.1752,1.1179,1.1124,1.1124,1.1124,1.1236,1.2033,1.2305,1.2305,1.2305,1.1211,0.9938,0.9938,0.9844,0.961,0.9136,0.8848,0.8418,0.7343,0.7012,0.6981,0.6981,0.7632,0.8027,0.7177,0.6981,0.6729,0.582,0.541,0.5188,0.5052,0.5308,0.5385,0.4869,0.5329,0.5546,0.5007,0.4952,0.4897,0.4732,0.4598,0.4491,0.4491,0.4491,0.4491,0.4491,0.4491,0.4491,0.4491,0.4491,0.4491,0.4491,0.4491,0.4491,0.4491,0.4491,0.4491,0.4491,0.4491,0.4491,1.1785,1.2098,1.2305,1.2305,1.1643,1.0915,1.066,0.0,0.0,0.7972,0.7446,0.7134,0.7404,0.7497,0.0,0.0,0.0,0.9392,0.0,0.0,0.0,0.0,0.0,0.0,0.0,0.0,0.0,0.0,0.0,0.0,1.3955,1.4039,1.4088,1.4088,1.4088,1.4088,1.4088,1.4088,1.4088,1.4088,1.4088,1.4088,1.4088,1.4088,1.4088,1.4088,1.4088,0.0,0.0,1.3693,1.3407,1.318,1.2762,1.2426,1.215,1.215,1.215,1.2187,1.2268,1.2305,1.2305,1.2305,1.215,1.204,1.204,1.1843,1.1465,1.0647,0.9997,0.9376,0.8467,0.8075,0.7897,0.7897,0.8549,0.8941,0.8059,0.7897,0.7795,0.7507,0.68,0.621,0.6083,0.5898,0.5747,0.569,0.6161,0.648,0.6426,0.6399,0.615,0.5487,0.4869,0.4491,0.4491,0.4491,0.4491,0.4491,0.4491,0.4491,0.4491,0.4491,0.4491,0.4491,0.4491,0.4491,0.4491,0.4491,0.4491,0.4491,0.4491,0.4491,1.1745,1.2084,1.2258,1.2084,1.1417,1.0687,1.0361,0.0,0.8052,0.7932,0.7426,0.7093,0.743,0.7513,0.7725,0.0,0.0,0.0,0.0,0.0,0.0,0.0,0.0,0.0,0.0,0.0,0.0,0.0,0.0,0.0,1.4088,1.4088,1.4088,1.4088,1.4088,1.4088,1.4088,1.4088,1.4088,1.4088,1.4088,1.4088,1.4088,1.4088,1.4088,1.4088,1.4088,0.0,0.0,1.3726,1.3433,1.318,1.2904,1.2603,1.2305,1.2305,1.2305,1.2305,1.2305,1.2305,1.2305,1.2305,1.2305,1.2305,1.2305,1.2225,1.2018,1.1517,1.1077,1.0495,0.945,0.8991,0.878,0.878,0.946,0.9849,0.8973,0.878,0.8618,0.8005,0.7494,0.7159,0.7104,0.731,0.7343,0.6905,0.7236,0.74,0.6956,0.6723,0.6475,0.6199,0.5519,0.4948,0.4543,0.4491,0.4491,0.4491,0.4869,0.5109,0.5109,0.5109,0.5109,0.5109,0.4708,0.4491,0.4491,0.4491,0.4491,0.4491,0.4491,0.4491,1.1377,1.1757,1.1991,1.179,1.1109,1.0374,0.0,0.8958,0.7905,0.7905,0.7426,0.7093,0.743,0.7513,0.7692,0.0,0.0,0.8737,0.0,0.0,0.0,0.0,0.0,0.0,0.0,0.0,0.0,0.0,0.0,0.0,0.0,1.4088,1.4088,1.4088,1.4088,1.4088,1.4088,1.4088,1.4088,1.4088,1.4088,1.4088,1.4088,1.4088,1.4088,1.4088,0.0,0.0,0.0,1.3726,1.3487,1.33,1.2938,1.2656,1.2425,1.2338,1.2305,1.2305,1.2305,1.2305,1.2305,1.2305,1.2305,1.2305,1.2305,1.2305,1.2258,1.2051,1.1717,1.1186,1.0323,0.9886,0.969,0.969,1.0142,1.0428,0.9817,0.969,0.9492,0.8903,0.8434,0.8163,0.8163,0.8429,0.8479,0.7966,0.8323,0.8426,0.7802,0.7505,0.7258,0.6945,0.647,0.5869,0.5171,0.4924,0.4787,0.4787,0.5054,0.5296,0.5487,0.5515,0.5597,0.5814,0.514,0.4787,0.4787,0.4598,0.4491,0.4491,0.4491,0.4491,1.0526,1.0995,1.1395,1.1395,1.0736,1.009,0.0,0.8958,0.7905,0.7905,0.7426,0.7093,0.743,0.7513,0.7692,0.8301,0.8402,0.0,0.0,0.0,0.0,0.0,0.0,0.0,0.0,0.0,0.0,0.0,0.0,0.0,0.0,1.4088,1.4088,1.4088,1.4088,1.4088,1.4088,1.4088,1.4088,1.4088,1.4088,1.4088,1.4088,1.4088,1.4088,0.0,0.0,0.0,0.0,1.3726,1.36,1.354,1.3018,1.2784,1.2744,1.2412,1.2305,1.2305,1.2305,1.2305,1.2305,1.2305,1.2305,1.2305,1.2305,1.2305,1.2305,1.2298,1.1877,1.1329,1.1069,1.0782,1.0593,1.0593,1.0593,1.0593,1.0593,1.0593,1.0593,1.0561,0.9881,0.9268,0.9268,0.9007,0.879,0.879,0.9307,0.9573,0.9223,0.9183,0.879,0.7806,0.7696,0.7369,0.6642,0.59,0.5487,0.5487,0.4869,0.4814,0.546,0.5515,0.5846,0.6588,0.5869,0.5487,0.5483,0.4814,0.4491,0.4491,0.4491,0.4491,1.012,1.0541,1.0788,1.0581,1.0174,0.9766,0.9537,0.8671,0.7905,0.7905,0.7426,0.7093,0.743,0.7323,0.7495,0.8504,0.8529,0.0,0.0,0.0,0.0,0.0,0.0,0.0,0.0,0.0,0.0,0.0,0.0,0.0,0.0,1.4088,1.4088,1.4088,1.4088,1.4088,1.4088,1.4088,1.4088,1.4088,1.4088,1.4088,1.4088,1.4088,0.0,0.0,0.0,0.0,0.0,1.3988,1.3707,1.3327,1.314,1.2812,1.2432,1.2338,1.2305,1.2305,1.2305,1.2305,1.2305,1.2305,1.2305,1.2305,1.2305,1.2305,1.2265,1.2094,1.1906,1.1617,1.1122,1.0922,1.0841,1.064,1.0593,1.0593,1.0593,1.0593,1.0593,1.0593,1.0364,1.0174,1.0174,1.009,1.0032,1.0032,1.0008,0.9947,0.9824,0.9666,0.9341,0.8796,0.8715,0.8163,0.6712,0.6394,0.6253,0.6253,0.6524,0.6767,0.6983,0.7015,0.7122,0.7343,0.6637,0.6253,0.6253,0.6041,0.5937,0.5937,0.5937,0.566,0.9785,0.998,1.004,0.9973,0.9646,0.9361,0.935,0.8684,0.8103,0.8304,0.7823,0.7433,0.7747,0.7541,0.7619,0.8504,0.8584,0.0,0.0,0.0,0.0,0.0,0.0,0.0,0.0,0.0,0.0,0.0,0.0,0.0,0.0,1.4088,1.4088,1.4088,1.4088,1.4088,1.4088,1.4088,1.4088,1.4088,1.4088,1.4088,1.4088,1.4088,0.0,0.0,0.0,0.0,0.0,1.3968,1.3707,1.3313,1.3126,1.2806,1.2458,1.2345,1.2305,1.2305,1.2305,1.2305,1.2305,1.2305,1.2305,1.2305,1.2305,1.2305,1.2265,1.2084,1.1986,1.1792,1.1283,1.1076,1.0922,1.066,1.0593,1.0593,1.0593,1.0593,1.0593,1.0593,1.0593,1.0593,1.0593,1.0593,1.0593,1.0593,1.0432,1.0241,1.0134,0.996,0.9733,0.9411,0.9377,0.8961,0.7856,0.7313,0.702,0.702,0.7182,0.7396,0.7696,0.7696,0.783,0.8103,0.7396,0.702,0.702,0.675,0.6588,0.6588,0.6588,0.6367,0.0,0.9436,0.9295,0.9599,0.9255,0.8973,0.9471,0.8958,0.0,0.8996,0.8448,0.7983,0.8282,0.8084,0.7992,0.8402,0.8664,0.0,0.0,0.0,0.0,0.0,0.0,0.0,0.0,0.0,0.0,0.0,0.0,0.0,0.0,1.4088,1.4088,1.4088,1.4088,1.4088,1.4088,1.4088,1.4088,1.4088,1.4088,1.4088,1.4088,1.4088,0.0,0.0,0.0,0.0,0.0,1.3726,1.3593,1.3513,1.3012,1.277,1.2717,1.2405,1.2305,1.2305,1.2305,1.2305,1.2305,1.2305,1.2305,1.2305,1.2305,1.2305,1.2305,1.2305,1.2104,1.1866,1.151,1.1229,1.0949,1.0667,1.0593,1.0593,1.0593,1.0593,1.0593,1.0593,1.0593,1.0593,1.0593,1.0593,1.0593,1.0593,1.0593,1.0492,1.018,1.0147,1.004,0.9746,0.9713,0.9735,0.9715,0.8546,0.78,0.78,0.7139,0.7074,0.775,0.7777,0.8103,0.8778,0.8129,0.7777,0.7777,0.7101,0.675,0.675,0.675,0.6723,0.9751,0.0,0.9459,0.9536,0.9436,0.9368,0.0,0.9208,0.8952,0.9082,0.8448,0.805,0.8512,0.8042,0.7896,0.8851,0.0,0.0,0.0,0.0,0.0,0.0,0.0,0.0,0.0,0.0,0.0,0.0,0.0,0.0,0.0,1.4088,1.4088,1.4088,1.4088,1.4088,1.4088,1.4088,1.4088,1.4088,1.4088,1.4088,1.4088,1.4088,0.0,0.0,0.0,0.0,1.4062,1.3726,1.3473,1.3273,1.2931,1.2643,1.2398,1.2325,1.2305,1.2305,1.2305,1.2305,1.2305,1.2305,1.2305,1.2305,1.2305,1.2305,1.2305,1.2305,1.2251,1.2078,1.1529,1.1342,1.1196,1.0713,1.0593,1.0593,1.0593,1.0593,1.0593,1.0593,1.0593,1.0593,1.0593,1.0593,1.0593,1.0593,1.0593,1.0566,1.0492,1.0486,1.0372,1.0047,1.0013,0.9927,0.9729,0.9177,0.8857,0.8857,0.8489,0.8374,0.8533,0.8533,0.8619,0.8804,0.8619,0.8533,0.8533,0.8374,0.8289,0.8289,0.8289,0.799,1.0045,0.9844,0.9621,0.9783,0.9702,0.9713,1.0178,0.9918,0.9684,1.0139,0.0,0.0,0.0,0.0,0.0,0.0,0.954,0.0,0.0,0.0,0.0,0.0,0.0,0.0,0.0,0.0,0.0,0.0,0.0,0.0,0.0,1.4088,1.4088,1.4088,1.4088,1.4088,1.4088,1.4088,1.4088,1.4088,1.4088,1.4088,1.4088,1.4088,1.4088,0.0,0.0,0.0,1.3861,1.3527,1.3267,1.3005,1.2703,1.2445,1.2305,1.2305,1.2305,1.2305,1.2305,1.2305,1.2305,1.2305,1.2305,1.2305,1.2305,1.2305,1.2305,1.2305,1.2305,1.2198,1.1744,1.153,1.1316,1.0868,1.0687,1.0593,1.0593,1.0593,1.0593,1.0593,1.0593,1.0593,1.0593,1.0593,1.0593,1.0593,1.0593,1.0593,1.0593,1.0593,1.0526,1.0341,1.0321,1.0254,1.0131,0.9813,0.9557,0.9452,0.9144,0.8978,0.8978,0.8851,0.8804,0.8804,0.8804,0.8804,0.8804,0.8804,0.8804,0.8804,0.8804,0.8593,1.0361,1.0197,1.0049,1.0241,1.0162,1.0211,1.1075,0.0,0.0,0.0,0.0,0.0,0.0,1.0287,0.0,0.0,0.0,0.0,0.0,0.0,0.0,0.0,0.0,0.0,0.0,0.0,0.0,0.0,0.0,0.0,0.0,1.4088,1.4088,1.4088,1.4088,1.4088,1.4088,1.4088,1.4088,1.4088,1.4088,1.4088,1.4088,1.4088,1.4088,0.0,0.0,0.0,1.3646,1.3347,1.3053,1.2824,1.2438,1.2305,1.2305,1.2305,1.2305,1.2305,1.2305,1.2305,1.2305,1.2305,1.2305,1.2305,1.2305,1.2305,1.2305,1.2305,1.2305,1.2231,1.198,1.1683,1.141,1.1076,1.0841,1.0646,1.06,1.0593,1.0593,1.0593,1.0593,1.0593,1.0593,1.0593,1.0593,1.0593,1.0593,1.0593,1.0593,1.0593,1.0593,1.0593,1.0593,1.0593,1.0593,1.0327,1.008,0.9863,0.9499,0.9257,0.9217,0.8938,0.8804,0.8804,0.8804,0.8804,0.8804,0.8804,0.8804,0.8804,0.8804,0.8804,1.0713,1.1045,1.1235,1.0875,1.1049,1.1353,1.1499,1.1443,0.0,0.0,0.0,0.0,0.0,0.0,0.0,0.0,0.0,0.0,0.0,0.0,0.0,0.0,0.0,0.0,0.0,0.0,0.0,0.0,0.0,0.0,0.0,1.4088,1.4088,1.4088,1.4088,1.4088,1.4088,1.4088,1.4088,1.4088,1.4088,1.4088,1.4088,1.4088,1.4088,0.0,0.0,1.4062,1.3975,1.3434,1.318,1.3086,1.2518,1.2305,1.2305,1.2305,1.2305,1.2305,1.2305,1.2305,1.2305,1.2305,1.2305,1.2305,1.2305,1.2305,1.2305,1.2305,1.2305,1.2231,1.198,1.1873,1.1663,1.1122,1.0962,1.0894,1.0646,1.0593,1.0593,1.0593,1.0593,1.0593,1.0593,1.0593,1.0593,1.0593,1.0593,1.0593,1.0593,1.0593,1.0593,1.0593,1.0593,1.0593,1.0593,1.0553,1.0506,1.0459,0.995,0.9499,0.9224,0.8938,0.8804,0.8804,0.8804,0.8804,0.8804,0.8804,0.8804,0.8804,0.8804,0.8804,1.0537,1.1076,1.1557,1.133,1.179,1.2357,1.2582,1.2641,0.0,0.0,0.0,0.0,0.0,0.0,0.0,0.0,0.0,0.0,0.0,0.0,0.0,0.0,0.0,0.0,0.0,0.0,0.0,0.0,0.0,0.0,0.0,0.0,1.4088,1.4088,1.4088,1.4088,1.4088,1.4088,1.4088,1.4088,1.4088,1.4088,1.4088,1.4088,1.4088,1.4088,0.0,1.3995,1.3814,1.3387,1.3113,1.2958,1.2472,1.2305,1.2305,1.2305,1.2305,1.2305,1.2305,1.2305,1.2305,1.2305,1.2305,1.2305,1.2305,1.2305,1.2305,1.2305,1.2305,1.2271,1.2138,1.2027,1.1792,1.1329,1.1109,1.0915,1.0653,1.0593,1.0593,1.0593,1.0593,1.0593,1.0593,1.0593,1.0593,1.0593,1.0593,1.0593,1.0593,1.0593,1.0593,1.0593,1.0593,1.0593,1.0593,1.0593,1.0519,1.0327,1.0067,0.9786,0.9492,0.9171,0.9011,0.9011,0.8884,0.8804,0.8804,0.8804,0.8804,0.8804,0.8804,0.8804,1.04,1.1007,1.1636,1.1712,0.0,1.3042,1.3535,1.3627,0.0,0.0,0.0,0.0,0.0,0.0,0.0,0.0,0.0,0.0,0.0,0.0,0.0,0.0,0.0,0.0,0.0,0.0,0.0,0.0,0.0,0.0,0.0,0.0,1.4088,1.4088,1.4088,1.4088,1.4088,1.4088,1.4088,1.4088,1.4088,1.4088,1.4088,1.4088,1.4088,1.4088,1.4088,1.3915,1.358,1.3327,1.3026,1.2757,1.2418,1.2305,1.2342,1.2556,1.2482,1.2342,1.2556,1.2482,1.2305,1.2305,1.2305,1.2305,1.2305,1.2445,1.2592,1.2372,1.2445,1.2592,1.2378,1.2138,1.1897,1.1597,1.1309,1.1015,1.0754,1.064,1.0593,1.0593,1.0593,1.0593,1.0593,1.0593,1.0593,1.0593,1.0593,1.0593,1.0593,1.0593,1.0593,1.0593,1.0593,1.0593,1.0593,1.0593,1.0492,1.0234,1.0154,1.0013,0.9793,0.9471,0.9317,0.9317,0.9031,0.8884,0.8884,0.8838,0.8804,0.8804,0.8804,0.8804,1.0762,1.1222,1.1682,1.2057,1.2529,1.3096,1.388,1.4065,0.0,1.5118,0.0,0.0,0.0,0.0,0.0,0.0,0.0,0.0,0.0,0.0,0.0,0.0,0.0,0.0,0.0,0.0,0.0,0.0,0.0,0.0,0.0,0.0,0.0,1.4088,1.4088,1.4088,1.4088,1.4088,1.4088,1.4088,1.4088,1.4088,1.4088,1.4088,1.4088,1.4088,1.4088,1.3915,1.358,1.3327,1.3026,1.2757,1.2418,1.2305,1.2409,1.3273,1.3062,1.2409,1.331,1.3025,1.2305,1.2305,1.2305,1.2305,1.2305,1.2915,1.3419,1.2556,1.2915,1.3382,1.2519,1.2285,1.2198,1.194,1.161,1.1316,1.1022,1.0787,1.0593,1.0593,1.0593,1.0593,1.0593,1.0593,1.0593,1.0593,1.0593,1.0593,1.0593,1.0593,1.0593,1.0593,1.0593,1.0593,1.0593,1.0593,1.0586,1.0566,1.0267,1.0077,1.0057,0.9806,0.9653,0.9653,0.9331,0.9178,0.9178,0.8911,0.8804,0.8804,0.8804,0.8804,1.0498,1.123,1.1953,1.1836,1.2744,0.0,0.0,1.4951,1.5576,1.6455,1.6846,0.0,0.0,0.0,0.0,0.0,0.0,0.0,0.0,0.0,0.0,0.0,0.0,0.0,0.0,0.0,0.0,0.0,0.0,0.0,0.0,0.0,0.0,1.4088,1.3908,1.3808,1.3808,1.3634,1.354,1.3547,1.3915,1.3988,1.3814,1.4684,1.4988,1.4897,1.5752,1.5524,1.464,1.4324,1.3628,1.2757,1.2418,1.2305,1.2409,1.3346,1.3491,1.331,1.4271,1.4414,1.3983,1.3382,1.3171,1.3062,1.2482,1.2952,1.3637,1.3273,1.3882,1.4271,1.2696,1.2305,1.2231,1.1973,1.1643,1.1349,1.1056,1.0801,1.0593,1.0593,1.0593,1.0593,1.0593,1.0593,1.0593,1.0593,1.0593,1.0593,1.0593,1.0593,1.0593,1.0593,1.0593,1.0593,1.0593,1.0593,1.08,1.132,1.076,1.0425,1.0425,1.0107,0.9953,0.9953,1.0164,0.9911,0.9211,0.9628,0.95,0.8804,0.8804,0.8804,1.0332,1.123,1.2164,1.2044,0.0,0.0,1.5029,1.5782,1.6562,1.7568,1.8008,0.0,0.0,0.0,0.0,0.0,0.0,0.0,0.0,0.0,0.0,0.0,0.0,0.0,0.0,0.0,0.0,0.0,0.0,0.0,0.0,0.0,0.0,0.0,1.3706,1.356,1.3467,1.3273,1.3365,1.3627,1.3777,1.3701,1.3514,1.4782,1.527,1.5155,1.6365,1.6308,1.5389,1.515,1.4441,1.3539,1.3316,1.3237,1.3339,1.4271,1.4414,1.4307,1.5296,1.5446,1.5092,1.4414,1.4171,1.4063,1.3411,1.3875,1.4557,1.4279,1.4879,1.5261,1.3629,1.3237,1.307,1.2584,1.2158,1.1743,1.1236,1.0861,1.0593,1.0593,1.0807,1.0895,1.0656,1.08,1.0895,1.0656,1.0593,1.0593,1.0593,1.0839,1.1076,1.1327,1.1139,1.1076,1.1327,1.0902,1.1045,1.2112,1.1413,1.0989,1.0989,1.075,1.0523,1.0254,1.0511,1.0387,0.9868,1.0247,1.0168,0.9636,0.9279,0.9106,1.042,1.124,1.2311,0.0,0.0,0.0,1.5811,1.6416,1.7077,1.8354,0.0,1.8617,0.0,0.0,0.0,0.0,0.0,0.0,0.0,0.0,0.0,0.0,0.0,0.0,0.0,0.0,0.0,0.0,0.0,0.0,0.0,0.0,0.0,0.0,1.3634,1.3494,1.3246,1.3206,1.3692,1.46,1.3653,1.3206,1.3246,1.4194,1.4608,1.4678,1.5626,1.5871,1.5618,1.5618,1.5449,1.5199,1.5199,1.5199,1.5305,1.6245,1.6,1.534,1.6289,1.6,1.5234,1.5234,1.5199,1.5199,1.5199,1.586,1.6428,1.5482,1.5904,1.6384,1.5482,1.5234,1.4985,1.3954,1.3322,1.2646,1.1628,1.1008,1.0631,1.0624,1.1264,1.1562,1.0744,1.1288,1.1531,1.0744,1.0624,1.0624,1.0624,1.132,1.2112,1.2917,1.2297,1.2143,1.2917,1.1545,1.1296,1.2917,1.2266,1.1834,1.1803,1.1803,1.1437,1.0656,1.0298,1.0523,1.1301,1.0656,1.074,1.1491,1.0329,0.9821,1.1336,1.1735,0.0,1.3135,0.0,0.0,0.0,1.7324,0.0,0.0,0.0,0.0,0.0,0.0,0.0,0.0,0.0,0.0,0.0,0.0,0.0,0.0,0.0,0.0,0.0,0.0,0.0,0.0,0.0,0.0,0.0,0.0,0.0,0.0,1.4878,1.4956,1.4893,1.4698,1.4765,1.5013,1.4728,1.4706,1.4901,1.5477,1.5983,1.651,1.7751,1.7725,1.6639,1.5715,1.5262,1.5199,1.5199,1.5199,1.5305,1.6245,1.6419,1.6324,1.7251,1.7398,1.7044,1.6393,1.6175,1.607,1.5411,1.586,1.6532,1.6245,1.6853,1.7501,1.7226,1.7157,1.6768,1.5128,1.4453,1.4024,1.3408,1.2742,1.2054,1.1532,1.1801,1.1946,1.1505,1.2112,1.2543,1.2305,1.181,1.1437,1.1437,1.1648,1.2112,1.2917,1.2795,1.2726,1.2978,1.2551,1.2726,1.3786,1.3627,1.3235,1.2665,1.2634,1.2543,1.2305,1.2742,1.2741,1.223,1.2592,1.2458,1.1919,1.1294,1.0991,1.1675,1.2181,0.0,1.3799,1.4853,1.6103,1.7764,0.0,0.0,0.0,0.0,0.0,0.0,0.0,0.0,0.0,0.0,0.0,0.0,0.0,0.0,0.0,0.0,0.0,0.0,0.0,0.0,0.0,0.0,0.0,0.0,0.0,0.0,0.0,1.5474,1.5552,1.5449,1.527,1.5376,1.5755,1.5376,1.5671,1.6545,1.643,1.6558,1.7026,1.8263,1.8305,1.7476,1.6649,1.6298,1.6298,1.6298,1.6298,1.6367,1.6932,1.7173,1.7251,1.7794,1.8008,1.7906,1.7354,1.7173,1.7035,1.6472,1.6724,1.7173,1.7173,1.7579,1.8008,1.8008,1.8008,1.7613,1.6114,1.5506,1.5095,1.4472,1.3856,1.3309,1.2877,1.318,1.33,1.2641,1.3215,1.3573,1.3094,1.2604,1.2381,1.271,1.274,1.3053,1.3876,1.3674,1.3614,1.3944,1.3373,1.3485,1.4599,1.4392,1.4124,1.3965,1.3644,1.3342,1.3009,1.3485,1.3562,1.3248,1.3564,1.3529,1.3146,1.2473,1.2155,1.1705,0.0,0.0,1.4609,1.5606,0.0,0.0,0.0,0.0,0.0,0.0,0.0,0.0,0.0,0.0,0.0,0.0,0.0,0.0,0.0,0.0,0.0,0.0,0.0,0.0,0.0,0.0,0.0,0.0,0.0,0.0,0.0,0.0,1.5745,1.5776,1.571,1.5455,1.5446,1.5869,0.0,1.5869,1.6341,1.7974,1.7035,1.6636,1.6775,1.7647,1.8008,1.8008,1.8008,1.8008,1.8008,1.8008,1.8008,1.8008,1.8008,1.8008,1.8008,1.8008,1.8008,1.8008,1.8008,1.8008,1.8008,1.8008,1.8008,1.8008,1.8008,1.8008,1.8008,1.8008,1.8008,1.7794,1.6922,1.6492,1.6041,1.5129,1.4723,1.4486,1.4419,1.5024,1.5144,1.392,1.4426,1.4581,1.3302,1.31,1.3364,1.4124,1.4213,1.451,1.5323,1.4756,1.4599,1.5352,1.4055,1.3846,1.5323,1.4717,1.4628,1.5381,1.4688,1.3974,1.3213,1.3221,1.3575,1.4293,1.3939,1.4147,1.4834,1.3755,1.325,1.2612,1.2865,0.0,0.0,0.0,0.0,0.0,0.0,0.0,0.0,0.0,0.0,0.0,0.0,0.0,0.0,0.0,0.0,0.0,0.0,0.0,0.0,0.0,0.0,0.0,0.0,0.0,0.0,0.0,0.0,0.0,0.0,0.0,1.6738,1.72,1.7458,1.7407,1.7407,1.751,0.0,1.751,1.7613,1.7974,1.7035,1.7001,1.7716,1.7906,1.8008,1.8008,1.8008,1.8008,1.8008,1.8008,1.8008,1.8008,1.8008,1.8008,1.8008,1.8008,1.8008,1.8008,1.8008,1.8008,1.8008,1.8008,1.8008,1.8008,1.8008,1.8008,1.8008,1.8008,1.8008,1.794,1.7759,1.7648,1.7461,1.6926,1.6441,1.5922,1.534,1.5564,1.5555,1.4769,1.5312,1.5415,1.4118,1.3936,1.3995,1.4183,1.4213,1.451,1.5323,1.5264,1.5196,1.5381,1.5079,1.5021,1.5381,1.5235,1.5235,1.5381,1.5225,1.505,1.4903,1.4874,1.4962,1.5138,1.5051,1.51,1.5264,1.4694,1.4445,0.0,0.0,0.0,0.0,0.0,0.0,0.0,0.0,0.0,0.0,0.0,0.0,0.0,0.0,0.0,0.0,0.0,0.0,0.0,0.0,0.0,0.0,0.0,0.0,0.0,0.0,0.0,0.0,0.0,0.0,0.0,1.7833,1.8052,1.7509,1.7806,1.8008,1.8008,1.8008,1.8008,1.8008,1.8008,1.8008,1.7974,1.7501,1.7545,1.8008,1.8008,1.8008,1.8008,1.8008,1.8008,1.8008,1.8008,1.8008,1.8008,1.8008,1.8008,1.8008,1.8008,1.8008,1.8008,1.8008,1.8008,1.8008,1.8008,1.8008,1.8008,1.8008,1.8008,1.8008,1.8008,1.8008,1.8008,1.8008,1.8008,1.7949,1.7734,1.746,1.7163,1.6764,1.6816,1.6726,1.6181,1.609,1.5856,1.5204,1.4907,1.4776,1.4776,1.4776,1.4932,1.5352,1.541,1.541,1.541,1.541,1.541,1.541,1.541,1.541,1.541,1.541,1.541,1.541,1.541,1.541,1.541,1.541,1.541,1.5371,1.5186,1.5088,0.0,0.0,1.4083,0.0,0.0,0.0,0.0,0.0,0.0,0.0,0.0,0.0,0.0,0.0,0.0,0.0,0.0,0.0,0.0,0.0,0.0,0.0,0.0,0.0,0.0,0.0,0.0,0.0,0.0,0.0,1.8027,1.8008,1.8008,1.8008,1.8008,1.8008,1.8008,1.8008,1.8008,1.8008,1.8008,1.8008,1.8008,1.8008,1.8008,1.8008,1.8008,1.8008,1.8008,1.8008,1.8008,1.8008,1.8008,1.8008,1.8008,1.8008,1.8008,1.8008,1.8008,1.8008,1.8008,1.8008,1.8008,1.8008,1.8008,1.8008,1.8008,1.8008,1.8008,1.8008,1.8008,1.8008,1.8008,1.8008,1.8008,1.8008,1.8008,1.8008,1.8008,1.8008,1.7949,1.7793,1.7451,1.675,1.6212,1.6212,1.5869,1.5615,1.5615,1.5615,1.5605,1.5527,1.5527,1.5498,1.542,1.541,1.541,1.541,1.541,1.541,1.541,1.541,1.541,1.541,1.541,1.541,1.541,1.541,1.541,1.541,1.541,1.541,0.0,0.0,0.0,0.0,0.0,0.0,0.0,0.0,0.0,0.0,0.0,0.0,0.0,0.0,0.0,0.0,0.0,0.0,0.0,0.0,0.0,0.0,0.0,0.0,0.0,0.0,0.0,0.0,0.0,0.0,1.8018,1.8008,1.8008,1.8008,1.8008,1.8008,1.8008,1.8008,1.8008,1.8008,1.8008,1.8008,1.8008,1.8008,1.8008,1.8008,1.8008,1.8008,1.8008,1.8008,1.8008,1.8008,1.8008,1.8008,1.8008,1.8008,1.8008,1.8008,1.8008,1.8008,1.8008,1.8008,1.8008,1.8008,1.8008,1.8008,1.8008,1.8008,1.8008,1.8008,1.8008,1.8008,1.8008,1.8008,1.8008,1.8008,1.8008,1.8008,1.8008,1.8008,1.7715,1.7451,1.7393,1.6973,1.6609,1.6609,1.656,1.6521,1.6521,1.6521,1.6375,1.6046,1.6007,1.585,1.5439,1.541,1.541,1.541,1.541,1.541,1.541,1.541,1.541,1.541,1.541,1.541,1.541,1.541,1.541,1.541,1.541,1.541,1.1552,0.0,0.0,0.0,0.0,0.0,0.0,0.0,0.0,0.0,0.0,0.0,0.0,0.0,0.0,0.0,0.0,0.0,0.0,0.0,0.0,0.0,0.0,0.0,0.0,0.0,0.0,0.0,0.0,1.8008,1.8008,1.8008,1.8008,1.8008,1.8008,1.8008,1.8008,1.8008,1.8008,1.8008,1.8008,1.8008,1.8008,1.8008,1.8008,1.8008,1.8008,1.8008,1.8008,1.8008,1.8008,1.8008,1.8008,1.8008,1.8008,1.8008,1.8008,1.8008,1.8008,1.8008,1.8008,1.8008,1.8008,1.8008,1.8008,1.8008,1.8008,1.8008,1.8008,1.8008,1.8008,1.8008,1.8008,1.8008,1.8008,1.8008,1.8008,1.8008,1.8008,1.8008,1.7861,1.7734,1.7734,1.7383,1.71,1.71,1.6853,1.6697,1.6697,1.6697,1.6619,1.6465,1.6436,1.626,1.584,1.5781,1.5674,1.543,1.541,1.541,1.541,1.541,1.541,1.541,1.541,1.541,1.541,1.541,1.541,1.541,1.541,1.541,0.0,0.0,0.0,0.0,0.0,0.0,0.0,0.0,0.0,0.0,0.0,0.0,0.0,0.0,0.0,0.0,0.0,0.0,0.0,0.0,0.0,0.0,0.0,0.0,0.0,0.0,0.0,0.0,0.0,1.8008,1.8008,1.8008,1.8008,1.8008,1.8008,1.8008,1.8008,1.8008,1.8008,1.8008,1.8008,1.8008,1.8008,1.8008,1.8008,1.8008,1.8008,1.8008,1.8008,1.8008,1.8008,1.8008,1.8008,1.8008,1.8008,1.8008,1.8008,1.8008,1.8008,1.8008,1.8008,1.8008,1.8008,1.8008,1.8008,1.8008,1.8008,1.8008,1.8008,1.8008,1.8008,1.8008,1.8008,1.8008,1.8008,1.8008,1.8008,1.8008,1.8008,1.8008,1.8008,1.8008,1.8008,1.7744,1.7539,1.7539,1.7266,1.7028,1.7028,1.7028,1.6989,1.6882,1.6863,1.6719,1.63,1.6163,1.5958,1.5596,1.5469,1.541,1.541,1.541,1.541,1.541,1.541,1.541,1.541,1.541,1.541,1.541,1.541,1.541,0.0,0.0,0.0,0.0,0.0,0.0,0.0,0.0,0.0,0.0,0.0,0.0,0.0,0.0,0.0,0.0,0.0,0.0,0.0,0.0,0.0,0.0,0.0,0.0,0.0,0.0,0.0,0.0,0.0,1.8008,1.8008,1.8008,1.8008,1.8008,1.8008,1.8008,1.8008,1.8008,1.8008,1.8008,1.8008,1.8008,1.8008,1.8008,1.8008,1.8008,1.8008,1.8008,1.8008,1.8008,1.8008,1.8008,1.8008,1.8008,1.8008,1.8008,1.8008,1.8008,1.8008,1.8008,1.8008,1.8008,1.8008,1.8008,1.8008,1.8008,1.8008,1.8008,1.8008,1.8008,1.8008,1.8008,1.8008,1.8008,1.8008,1.8008,1.8008,1.8008,1.8008,1.8008,1.8008,1.8008,1.8008,1.7988,1.7978,1.7978,1.7959,1.7949,1.7949,1.7949,1.7793,1.7393,1.7344,1.7168,1.6707,1.6309,1.6085,1.6065,1.5644,1.541,1.541,1.541,1.541,1.541,1.541,1.541,1.541,1.541,1.541,1.541,1.541,1.541,0.0,0.0,0.0,0.0,0.0,0.0,0.0,0.0,0.0,0.0,0.0,0.0,0.0,0.0,0.0,0.0,0.0,0.0,0.0,0.0,0.0,0.0,0.0,0.0,0.0,0.0,0.0,0.0,0.0,0.0,1.8008,1.8008,1.8008,1.8008,1.8008,1.8008,1.8008,1.8008,1.8008,1.8008,1.8008,1.8008,1.8008,1.8008,1.8008,1.8008,1.8008,1.8008,1.8008,1.8008,1.8008,1.8008,1.8008,1.8008,1.8008,1.8008,1.8008,1.8008,1.8008,1.8008,1.8008,1.8008,1.8008,1.8008,1.8008,1.8008,1.8008,1.8008,1.8008,1.8008,1.8008,1.8008,1.8008,1.8008,1.8008,1.8008,1.8008,1.8008,1.8008,1.8008,1.8008,1.8008,1.8008,1.8008,1.8008,1.8008,1.8008,1.8008,1.8008,1.8008,1.7949,1.7803,1.7793,1.7617,1.7187,1.6748,1.6367,1.6114,1.5654,1.541,1.541,1.541,1.541,1.541,1.541,1.541,1.541,1.541,1.541,1.541,1.541,1.541,1.0801,0.0,0.0,0.0,0.0,0.0,0.0,0.0,0.0,0.0,0.0,0.0,0.0,0.0,0.0,0.0,0.0,0.0,0.0,0.0,0.0,0.0,0.0,0.0,0.0,0.0,0.0,0.0,0.0,0.0,1.8008,1.7881,1.7734,1.7588,1.7545,1.7545,1.7545,1.7725,1.7803,1.7803,1.7939,1.8008,1.8008,1.8008,1.8008,1.8008,1.8008,1.8008,1.8008,1.8008,1.8008,1.8008,1.8008,1.8008,1.8008,1.8008,1.8008,1.8008,1.8008,1.8008,1.8008,1.8008,1.8008,1.8008,1.8008,1.8008,1.8008,1.8008,1.8008,1.8008,1.8008,1.8008,1.8008,1.8008,1.8008,1.8008,1.8008,1.8008,1.8008,1.8008,1.8008,1.8008,1.8008,1.8008,1.8008,1.8008,1.8008,1.8008,1.8008,1.8008,1.8008,1.8008,1.8008,1.79,1.7617,1.7038,1.6602,1.6309,1.5732,1.541,1.541,1.541,1.541,1.541,1.541,1.5526,1.5787,1.5526,1.541,1.541,1.541,1.541,0.0,0.0,0.0,0.0,0.0,0.0,0.0,0.0,0.0,0.0,0.0,0.0,0.0,0.0,0.0,0.0,0.0,0.0,0.0,0.0,0.0,0.0,0.0,0.0,0.0,0.0,0.0,0.0,0.0,1.7988,1.7988,1.7598,1.7168,1.6716,1.6697,1.6697,1.6697,1.7148,1.7363,1.7373,1.7793,1.7988,1.7988,1.8008,1.8008,1.8008,1.8008,1.8008,1.8008,1.8008,1.8008,1.8008,1.8008,1.8008,1.8008,1.8008,1.8008,1.8008,1.8008,1.8008,1.8008,1.8008,1.8008,1.8008,1.8008,1.8008,1.8008,1.8008,1.8008,1.8008,1.8008,1.8008,1.8008,1.8008,1.8008,1.8008,1.8008,1.8008,1.8008,1.8008,1.8008,1.8008,1.8008,1.8008,1.8008,1.8008,1.8008,1.8008,1.8008,1.8008,1.8008,1.8008,1.8008,1.8008,1.8008,1.7204,1.6716,1.6716,1.5888,1.543,1.543,1.542,1.541,1.541,1.541,1.5777,1.6492,1.5748,1.541,1.5439,1.541,1.541,1.1563,0.0,0.0,0.0,0.0,0.0,0.0,0.0,0.0,0.0,0.0,0.0,0.0,0.0,0.0,0.0,0.0,0.0,0.0,0.0,0.0,0.0,0.0,0.0,0.0,0.0,0.0,0.0,1.7734,1.7559,1.7559,1.7148,1.6824,1.6707,1.6697,1.6697,1.6697,1.6824,1.6882,1.6882,1.7353,1.7559,1.7568,1.7871,1.8008,1.8008,1.8008,1.8008,1.8008,1.8008,1.8008,1.8008,1.8008,1.8008,1.8008,1.8008,1.8008,1.8008,1.8008,1.8008,1.8008,1.8008,1.8008,1.8008,1.8008,1.8008,1.8008,1.8008,1.8008,1.8008,1.8008,1.8008,1.8008,1.8008,1.8008,1.8008,1.8008,1.8008,1.8008,1.8008,1.8008,1.8008,1.8008,1.8008,1.8008,1.8008,1.8008,1.8008,1.8008,1.8008,1.8008,1.8008,1.8008,1.8008,1.8008,1.7519,1.7207,1.7207,1.6408,1.5919,1.5919,1.6093,1.595,1.541,1.5921,1.6293,1.6492,1.5748,1.5671,1.6179,1.5642,1.541,0.0,0.0,0.0,0.0,0.0,0.0,0.0,0.0,0.0,0.0,0.0,0.0,0.0,0.0,0.0,0.0,0.0,0.0,0.0,0.0,0.0,0.0,0.0,0.0,0.0,0.0,0.0,1.7447,1.7246,1.7031,1.6877,1.6592,1.6367,1.6151,1.6151,1.6151,1.6151,1.6367,1.6455,1.6455,1.6904,1.7207,1.7425,1.7637,1.7842,1.8008,1.8008,1.8008,1.8008,1.8008,1.8008,1.8008,1.8008,1.8008,1.8008,1.8008,1.8008,1.8008,1.8008,1.8008,1.8008,1.8008,1.8008,1.8008,1.8008,1.8008,1.8008,1.8008,1.8269,1.8519,1.8519,1.8821,1.8977,1.862,1.8821,1.8977,1.862,1.8821,1.8888,1.8134,1.8008,1.8008,1.8008,1.8008,1.8008,1.8008,1.8008,1.8008,1.8008,1.8008,1.8134,1.8496,1.8519,1.8687,1.9044,1.8347,1.7898,1.7898,1.6761,1.6095,1.6095,1.6367,1.6293,1.5864,1.6585,1.695,1.695,1.6226,1.6226,1.695,1.6197,1.5864,0.0,0.0,0.0,0.0,0.0,0.0,1.5148,1.4735,0.0,0.0,0.0,0.0,0.0,0.0,0.0,0.0,0.0,0.0,0.0,0.0,0.0,0.0,0.0,0.0,0.0,1.6697,1.6697,1.6697,1.6658,1.6465,1.6046,1.6016,1.584,1.542,1.541,1.541,1.541,1.5791,1.6016,1.6026,1.6445,1.6894,1.7314,1.7396,1.7674,1.8134,1.8134,1.8202,1.8303,1.8303,1.8168,1.8008,1.8008,1.8008,1.8008,1.8008,1.8008,1.8008,1.8008,1.8008,1.8008,1.8008,1.8076,1.8134,1.8134,1.8202,1.8303,1.8303,1.8854,1.9431,1.9431,2.0009,2.0398,1.9628,2.0042,2.0398,1.9617,2.0042,2.0139,1.8596,1.8202,1.8134,1.8134,1.8076,1.8008,1.8008,1.8076,1.8134,1.8134,1.8236,1.8563,1.9243,1.9398,1.9726,2.0398,1.9458,1.8839,1.8839,1.7328,1.6396,1.6315,1.6581,1.668,1.6492,1.7302,1.7715,1.7715,1.7062,1.7034,1.7578,1.6922,1.6624,0.0,0.0,0.0,0.0,0.0,0.0,0.0,1.4567,0.0,0.0,0.0,0.0,0.0,0.0,0.0,0.0,0.0,0.0,0.0,0.0,0.0,0.0,0.0,0.0,0.0,1.6697,1.6697,1.6697,1.6396,1.6036,1.5557,1.5537,1.5498,1.541,1.541,1.541,1.541,1.5498,1.5537,1.5537,1.5986,1.6426,1.6833,1.7227,1.7995,1.9044,1.9044,1.9431,2.0074,2.0074,1.9266,1.8008,1.8008,1.8008,1.8008,1.8008,1.8008,1.8008,1.8008,1.8008,1.8008,1.8008,1.8462,1.9044,1.9044,1.9529,2.0074,2.0074,2.0204,2.0333,2.0333,2.0462,2.0558,2.0398,2.0462,2.0558,2.0365,2.0494,2.0494,2.0171,1.9529,1.9044,1.9044,1.8462,1.8008,1.8008,1.8596,1.9044,1.9044,1.9661,1.9879,1.9365,1.9922,2.0139,1.9595,1.9954,2.0221,2.0221,1.9149,1.8261,1.7645,1.8047,1.7715,1.651,1.7825,1.8501,1.8501,1.8328,1.8031,1.7605,1.744,1.7385,0.0,0.0,0.0,1.6216,0.0,0.0,0.0,0.0,0.0,0.0,0.0,0.0,0.0,0.0,0.0,0.0,0.0,0.0,0.0,0.0,0.0,0.0,0.0,0.0,0.0,1.5762,1.585,1.6034,1.5859,1.5644,1.542,1.541,1.541,1.541,1.541,1.541,1.541,1.541,1.541,1.541,1.5635,1.5977,1.6406,1.7028,1.7913,1.8985,1.9329,1.9909,2.059,2.059,2.0074,1.9299,1.9299,1.9299,1.9299,1.9299,1.9011,1.8654,1.8654,1.8361,1.8076,1.8496,1.8944,1.9365,1.9814,2.0236,2.059,2.059,2.091,2.1239,2.1239,2.1553,2.1741,2.1333,2.1542,2.1741,2.1333,2.1542,2.1865,2.1865,2.1164,2.0462,2.0009,1.9595,1.9299,1.9299,1.965,1.9944,1.9944,2.0333,2.059,2.059,2.0974,2.1227,2.1184,2.1227,2.1239,2.1239,2.0143,1.9218,1.8553,1.8947,1.8826,1.8151,1.8874,1.9254,1.9254,1.9254,1.9071,1.8688,1.8313,1.814,0.0,0.0,0.0,0.0,0.0,1.6584,0.0,0.0,0.0,0.0,0.0,0.0,0.0,0.0,0.0,0.0,0.0,0.0,0.0,0.0,0.0,0.0,0.0,0.0,0.0,1.4663,1.4772,1.5298,1.5145,1.5174,1.5446,1.5351,1.5322,1.541,1.541,1.541,1.541,1.541,1.541,1.541,1.541,1.5644,1.6125,1.6856,1.7796,1.8881,1.9643,2.037,2.1069,2.1069,2.1069,2.1037,2.0719,2.059,2.059,2.059,2.0139,1.9562,1.9562,1.9077,1.862,1.9299,1.9661,1.9944,2.0814,2.1069,2.1069,2.1069,2.1585,2.2137,2.2137,2.2598,2.2944,2.2292,2.2628,2.2914,2.2261,2.2628,2.3108,2.3108,2.2567,2.1877,2.1005,2.0719,2.059,2.059,2.0751,2.0846,2.0846,2.0974,2.129,2.1846,2.2044,2.2322,2.2823,2.2414,2.2137,2.2137,2.103,2.0053,1.9372,1.9409,1.9558,1.9811,1.9798,1.9798,1.9798,1.9798,1.9798,1.9798,1.9202,1.89,0.0,0.0,0.0,0.0,1.8367,0.0,0.0,0.0,0.0,0.0,0.0,0.0,0.0,0.0,0.0,0.0,0.0,0.0,0.0,0.0,0.0,0.0,0.0,0.0,0.0,0.0,1.4063,1.5048,1.424,1.4281,1.5598,1.5151,1.5029,1.54,1.541,1.541,1.541,1.541,1.541,1.541,1.541,1.5644,1.6125,1.6856,1.8128,1.9778,2.0514,2.159,2.2811,2.2811,2.2811,2.2659,2.1195,2.059,2.059,2.059,2.0526,2.0462,2.0462,2.0398,2.0333,2.043,2.0974,2.1753,2.2567,2.2811,2.2811,2.2811,2.2884,2.2944,2.2944,2.3035,2.3078,2.2987,2.3035,2.3078,2.2975,2.3047,2.3108,2.3108,2.3017,2.2689,2.1877,2.1112,2.059,2.059,2.127,2.1753,2.1753,2.2384,2.2567,2.197,2.2537,2.2689,2.2106,2.2598,2.2944,2.2944,2.2362,2.1484,2.0303,1.9317,1.9105,1.9798,1.9798,1.9798,1.9798,1.9798,1.9798,1.9798,1.9721,1.9669,0.0,0.0,0.0,0.0,0.0,0.0,1.7033,0.0,1.6463,0.0,0.0,0.0,0.0,0.0,0.0,0.0,0.0,0.0,0.0,0.0,0.0,0.0,0.0,0.0,0.0,0.0,0.0,0.0,0.0,1.4881,1.5825,1.593,1.5848,1.5583,1.5875,1.6036,1.6036,1.6036,1.6255,1.6687,1.6687,1.6793,1.7013,1.7722,1.8857,2.0234,2.0979,2.1989,2.3108,2.3108,2.3108,2.3035,2.2341,2.2051,2.2051,2.2051,2.1772,2.1365,2.1365,2.1005,2.0687,2.1207,2.1939,2.2659,2.3017,2.3108,2.3108,2.3108,2.3108,2.3108,2.3108,2.3108,2.3108,2.3108,2.3108,2.3108,2.3108,2.3108,2.3108,2.3108,2.3108,2.2975,2.2659,2.2279,2.2051,2.2051,2.2372,2.261,2.261,2.2884,2.2975,2.2628,2.2884,2.2944,2.2641,2.2914,2.3108,2.3108,2.2293,2.1606,2.1059,1.9949,1.9475,1.9798,1.9798,1.9798,1.9798,1.9798,1.9798,1.9798,1.9798,1.9798,1.9171,0.0,0.0,0.0,0.0,0.0,0.0,0.0,0.0,0.0,0.0,0.0,0.0,0.0,0.0,0.0,0.0,0.0,0.0,0.0,0.0,0.0,0.0,0.0,0.0,0.0,0.0,0.0,0.0,0.0,1.6029,1.6434,1.6455,1.6009,1.652,1.6782,1.6782,1.6782,1.7062,1.7605,1.7605,1.7605,1.7633,1.8534,1.9468,2.0464,2.1349,2.2246,2.3108,2.3108,2.3108,2.3108,2.3108,2.3108,2.3108,2.3108,2.2732,2.223,2.223,2.1803,2.1385,2.2032,2.2628,2.3108,2.3108,2.3108,2.3108,2.3108,2.3108,2.3108,2.3108,2.3108,2.3108,2.3108,2.3108,2.3108,2.3108,2.3108,2.3108,2.3108,2.3108,2.3108,2.3108,2.3108,2.3108,2.3108,2.3108,2.3108,2.3108,2.3108,2.3108,2.3108,2.3108,2.3108,2.3108,2.3108,2.3108,2.3108,2.2234,2.1644,2.1493,2.0552,1.9962,1.9798,1.9798,1.9798,1.9798,1.9798,1.9798,1.9798,1.9798,1.9798,0.0,0.0,0.0,1.8744,0.0,0.0,0.0,0.0,1.784,0.0,0.0,0.0,0.0,0.0,0.0,0.0,0.0,0.0,0.0,0.0,0.0,0.0,0.0,0.0,0.0,0.0,0.0,0.0,0.0,0.0,1.6174,1.6249,1.6397,1.6751,1.7294,1.755,1.755,1.755,1.7578,1.7605,1.7605,1.7605,1.7644,1.8959,1.9853,2.0459,2.1716,2.2581,2.3108,2.3108,2.3108,2.3108,2.3108,2.3108,2.3108,2.3108,2.3065,2.3078,2.3078,2.3035,2.3005,2.3047,2.3078,2.3108,2.3108,2.3108,2.3108,2.3108,2.3108,2.3108,2.3108,2.3108,2.3108,2.3108,2.3108,2.3108,2.3108,2.3108,2.3108,2.3108,2.3108,2.3108,2.3108,2.3108,2.3108,2.3108,2.3108,2.3108,2.3108,2.3108,2.3108,2.3108,2.3108,2.3108,2.3108,2.3108,2.3108,2.3108,2.2569,2.2046,2.1506,2.0968,2.0402,1.9811,1.9798,1.9798,1.9798,1.9798,1.9798,1.9798,1.9798,1.9798,0.0,0.0,2.1581,1.9723,0.0,0.0,0.0,0.0,0.0,0.0,0.0,0.0,0.0,0.0,0.0,0.0,0.0,0.0,0.0,0.0,0.0,0.0,0.0,0.0,0.0,0.0,0.0,0.0,0.0,0.0,0.0,1.713,1.7362,1.7008,1.7859,1.834,1.834,1.834,1.8581,1.9071,1.9071,1.9071,1.9083,1.9949,2.0625,2.1168,2.1956,2.2594,2.3108,2.3108,2.3108,2.3108,2.3108,2.3108,2.3108,2.3108,2.3108,2.3108,2.3108,2.3108,2.3108,2.3108,2.3108,2.3108,2.3108,2.3108,2.3108,2.3108,2.3108,2.3108,2.3108,2.3108,2.3108,2.3108,2.3108,2.3108,2.3108,2.3108,2.3108,2.3108,2.3108,2.3108,2.3108,2.3108,2.3108,2.3108,2.3108,2.3108,2.3108,2.3108,2.3108,2.3108,2.3108,2.3108,2.3108,2.3108,2.3108,2.3108,2.2594,2.2071,2.1506,2.0981,2.0415,1.9811,1.9798,1.9798,1.9798,1.9798,1.9798,1.9798,1.9798,1.9798,2.1832,2.2046,0.0,2.0476,2.0112,0.0,1.8053,0.0,0.0,0.0,0.0,0.0,0.0,0.0,0.0,0.0,0.0,0.0,0.0,0.0,0.0,0.0,0.0,0.0,0.0,0.0,1.3896,1.4821,0.0,0.0,0.0,0.0,1.779,1.7497,1.8344,1.8889,1.9097,1.9097,1.9333,1.9798,1.9798,1.9798,1.9823,2.0629,2.1182,2.1531,2.2284,2.2782,2.3108,2.3108,2.3108,2.3108,2.3108,2.3108,2.3108,2.3108,2.3108,2.3108,2.3108,2.3108,2.3108,2.3108,2.3108,2.3108,2.3108,2.3108,2.3108,2.3108,2.3108,2.3108,2.3108,2.3108,2.3108,2.3108,2.3108,2.3108,2.3108,2.3108,2.3108,2.3108,2.3108,2.3108,2.3108,2.3108,2.3108,2.3108,2.3108,2.3108,2.3108,2.3108,2.3108,2.3108,2.3108,2.3108,2.3108,2.3108,2.3108,2.3108,2.2769,2.2347,2.1807,2.1443,2.0918,2.0151,2.0112,2.0012,1.9798,1.9798,1.9798,1.9798,1.9798,1.9798]}]]